[[[{"header":{"parameterUnit":"kt","parameterCategory":2,"dx":1,"dy":1,"la1":29.285339999999998,"la2":30.599998999999997,"lo1":-89.70041500000002,"lo2":-87.6738589999976,"nx":112,"ny":82,"refTime":"2022-09-26T12:00:00:Z","depth":0,"parameterNumber":1,"parameterNumberName":"U-component_of_WINDS"},"data":[12.6172,12.6641,12.6571,12.3586,12.279,12.1915,11.8925,11.6055,11.3587,11.1974,10.8941,10.6027,10.3819,10.1952,9.9975,9.7285,9.6351,9.5641,0.0,9.4295,9.523,9.773,10.2307,10.8831,11.7924,12.188,12.552,12.9382,13.1684,13.1907,12.9739,12.9664,12.8921,12.7154,12.8178,12.8996,12.9649,13.2278,13.3924,13.4529,13.6077,13.6883,13.6883,13.6577,13.6423,13.6374,13.5557,13.4664,13.3768,13.307,13.2249,13.143,13.1288,13.1145,13.1074,13.1145,13.1149,13.0935,13.0722,13.0651,13.0651,13.0568,13.0598,13.0639,13.0608,13.0537,13.078,13.2111,13.2492,13.2941,13.5432,13.644,13.7073,13.7988,13.8622,13.8974,13.8974,13.8974,13.8974,13.8974,13.8974,13.8974,13.8974,13.8974,13.8974,13.8974,13.8974,13.8974,13.8974,13.8974,13.8974,13.8974,13.8974,13.8974,13.8974,13.8974,13.8974,13.8974,13.8974,13.8974,13.8974,13.8974,13.8974,13.8974,13.8974,13.8236,13.6881,13.583,13.4241,13.2391,13.2253,13.3021,12.3143,12.2616,12.1934,11.9358,11.8709,11.8028,11.5457,11.3182,11.098,10.8727,10.7082,10.4764,10.08,10.0576,9.9454,9.5117,9.5753,9.6276,0.0,9.5753,9.863,10.3478,10.8227,11.4289,12.2326,12.561,12.8134,13.0287,13.1387,13.1299,12.9724,12.907,12.855,12.803,12.907,13.0185,13.1299,13.3479,13.4752,13.5335,13.63,13.6883,13.6883,13.6883,13.6883,13.6809,13.63,13.5557,13.4705,13.4168,13.3139,13.2106,13.2106,13.1716,13.1359,13.1645,13.1716,13.1645,13.1145,13.1002,13.0969,13.1008,13.0972,13.0972,13.0972,13.129,13.182,13.2662,13.3497,13.4655,13.6467,13.7264,13.7777,13.8763,13.8974,13.8974,13.8974,13.8974,13.8974,13.8974,13.8974,13.8974,13.8974,13.8974,13.8974,13.8974,13.8974,13.8974,13.8974,13.8974,13.8974,13.8974,13.8974,13.8974,13.8974,13.8974,13.8974,13.8974,13.8974,13.8974,13.8974,13.8974,13.8974,13.8974,13.8974,13.8552,13.7566,13.7073,13.6076,13.4646,13.5623,13.6541,11.8074,11.5487,11.3492,11.4996,11.3148,11.1279,11.2743,11.0605,10.7381,10.4165,10.4764,10.4464,9.9604,9.9978,9.8931,9.2575,9.5528,0.0,0.0,9.5902,10.1985,10.9929,11.506,11.9762,12.4554,12.9261,13.1954,13.188,13.1894,13.127,12.9724,12.8104,12.803,12.9649,12.9798,13.1373,13.4455,13.4529,13.5335,13.6883,13.6883,13.6883,13.6883,13.6883,13.6883,13.6883,13.6883,13.6374,13.566,13.5677,13.4595,13.306,13.2996,13.2424,13.1781,13.267,13.3028,13.2924,13.2034,13.1645,13.1573,13.1573,13.1573,13.1573,13.1645,13.2503,13.3568,13.364,13.5396,13.7269,13.7269,13.816,13.8974,13.8974,13.8974,13.8974,13.8974,13.8974,13.8974,13.8974,13.8974,13.8974,13.8974,13.8974,13.8974,13.8974,13.8974,13.8974,13.8974,13.8974,13.8974,13.8974,13.8974,13.8974,13.8974,13.8974,13.8974,13.8974,13.8974,13.8974,13.8974,13.8974,13.8974,13.8974,13.8974,13.8974,13.8904,13.7566,13.7566,13.8904,13.8974,13.8974,11.2301,11.1994,11.2391,10.9316,11.0541,11.1695,10.8652,10.8129,10.768,10.5661,10.5586,0.0,0.0,0.0,10.2107,10.0234,0.0,10.4972,10.3669,10.869,11.3742,11.707,12.175,12.6114,12.9706,13.1202,13.1498,13.0374,13.0333,13.0095,12.9649,12.9203,12.9724,13.1344,13.2501,13.3627,13.4529,13.5632,13.6374,13.6883,13.6883,13.6883,13.6883,13.6883,13.6883,13.6883,13.6883,13.6374,13.5642,13.5708,13.4973,13.3935,13.3984,13.3826,13.3574,13.3868,13.3946,13.3958,13.3743,13.3139,13.2463,13.1787,13.1573,13.1787,13.2929,13.3465,13.4212,13.6271,13.7439,13.8134,13.873,13.9127,13.9288,13.8974,13.8974,13.8974,13.8974,13.8974,13.8974,13.8974,13.8974,13.8974,13.8974,13.8974,13.8974,13.8974,13.8974,13.8974,13.8974,13.8974,13.8974,13.8974,13.8974,13.8974,13.8974,13.8974,13.8974,13.8974,13.8974,13.8974,13.8974,13.8974,13.8974,13.8974,13.8974,13.8481,13.7425,13.8059,13.8059,13.7425,13.8481,13.8974,10.672,10.6119,10.6449,10.4383,10.6965,10.9367,10.6592,10.7073,10.7745,10.6259,0.0,0.0,0.0,0.0,0.0,0.0,10.8586,11.063,10.9302,11.4637,11.9774,12.2791,12.6766,12.9767,13.0916,13.1635,13.1326,12.9753,13.0318,13.0318,12.9724,13.0273,13.1387,13.3008,13.3998,13.4826,13.5483,13.6374,13.6883,13.6883,13.6883,13.6883,13.6883,13.6883,13.6883,13.6883,13.6883,13.6586,13.6151,13.6151,13.5632,13.4919,13.5226,13.533,13.5335,13.5038,13.49,13.4834,13.447,13.3946,13.3463,13.2935,13.2924,13.3457,13.4984,13.5708,13.6174,13.7917,13.8802,13.9286,13.9674,13.9649,13.9409,13.9096,13.8974,13.8974,13.8974,13.8974,13.8974,13.8974,13.8974,13.8974,13.8974,13.8974,13.8974,13.8974,13.8974,13.8974,13.8974,13.8974,13.8974,13.8974,13.8974,13.8974,13.8974,13.8974,13.8974,13.8974,13.8974,13.8974,13.8974,13.8974,13.8974,13.8974,13.8974,13.8552,13.7707,13.8552,13.8552,13.7777,13.8622,13.8974,10.1588,9.9455,9.8856,10.0268,10.3296,10.5994,10.6367,0.0,10.8406,10.7447,0.0,11.0944,10.9656,0.0,0.0,11.0105,11.339,11.5382,11.2644,11.7666,12.3107,12.7376,13.0496,13.1697,13.0037,13.1016,13.1195,12.9724,13.1121,13.1493,13.0259,13.1487,13.3056,13.4677,13.4752,13.5483,13.6809,13.6883,13.6883,13.6883,13.6883,13.6883,13.6883,13.6883,13.6883,13.6883,13.6883,13.6883,13.6883,13.6883,13.6374,13.5854,13.6586,13.6883,13.6809,13.6077,13.578,13.5706,13.4826,13.4677,13.4727,13.4715,13.5247,13.5966,13.7378,13.8326,13.8893,13.8999,13.985,14.0695,14.0166,13.9886,13.9529,13.9167,13.8974,13.8974,13.8974,13.8974,13.8974,13.8974,13.8974,13.8974,13.9218,13.9218,13.9096,13.8974,13.8974,13.8974,13.8974,13.8974,13.8974,13.8974,13.8974,13.8974,13.8974,13.8974,13.8974,13.8974,13.8974,13.8974,13.8974,13.8974,13.8974,13.8974,13.8974,13.8974,13.8974,13.8974,13.8974,13.8974,13.8974,13.8974,9.7917,9.7727,9.8626,9.8931,10.2523,10.6643,0.0,0.0,0.0,11.5031,11.5978,11.6276,11.6027,11.6475,11.7096,11.7592,12.0741,12.29,12.2305,12.7658,13.1549,13.1127,13.2822,13.3342,13.1657,13.0719,12.9947,12.9649,13.1121,13.2474,13.3553,13.3861,13.4752,13.63,13.6374,13.6586,13.6883,13.6883,13.6883,13.6883,13.6883,13.6883,13.6883,13.6883,13.6883,13.6883,13.6883,13.6883,13.6883,13.6883,13.6735,13.666,13.6809,13.6883,13.6809,13.666,13.666,13.6586,13.6374,13.6809,13.7339,13.7321,13.7767,13.852,13.8813,13.9848,14.1015,14.1513,14.1958,14.1862,14.0695,14.0352,14.0192,13.96,13.9409,13.9409,13.9044,13.8974,13.8974,13.8974,13.8974,13.9268,14.0339,14.041,14.0095,13.9096,13.8974,13.8974,13.8974,13.8974,13.8974,13.8974,13.8974,13.8974,13.8974,13.8974,13.8974,13.8974,13.8974,13.8974,13.8974,13.8974,13.8974,13.8974,13.8974,13.8974,13.8974,13.8974,13.8974,13.8974,13.8974,13.8974,9.6643,9.6637,9.7502,9.8333,10.226,0.0,0.0,11.0659,11.2719,11.5929,11.7815,11.9207,12.0027,12.1569,12.3186,12.4795,12.6417,12.7955,12.959,13.2514,13.3935,13.2176,13.3541,13.3826,13.213,13.2028,13.1716,13.0898,13.2339,13.3615,13.4455,13.526,13.6003,13.6809,13.6883,13.6883,13.6883,13.6883,13.6883,13.6883,13.6883,13.6883,13.6883,13.6883,13.6883,13.6883,13.6883,13.6883,13.6883,13.6883,13.6883,13.6883,13.6883,13.7329,13.8135,13.8135,13.8655,13.9324,13.9324,13.9685,13.9919,13.9937,14.0781,14.1612,14.1144,14.215,14.3365,14.3186,14.3121,14.2929,14.2205,14.1999,14.1823,14.1328,14.1221,14.1113,14.0933,14.0895,14.0785,14.0933,14.0933,14.1149,14.1814,14.1886,14.1574,14.1042,14.0933,14.0933,14.0933,14.0339,13.9953,13.9953,13.9388,13.8974,13.8974,13.8974,13.8974,13.8974,13.8974,13.8974,13.8974,13.8974,13.8622,13.7918,13.7918,13.827,13.8974,13.8974,13.8974,13.8974,13.8974,13.8974,9.6268,9.6303,9.6908,9.8557,10.2705,0.0,10.9601,11.1262,11.3391,11.7392,12.0146,12.2379,12.4145,12.6637,12.8873,13.0606,13.0839,13.1635,13.4158,13.4518,13.3998,13.2674,13.3664,13.3858,13.2177,13.3278,13.365,13.2548,13.3764,13.4603,13.49,13.6151,13.6883,13.6883,13.6883,13.6883,13.6883,13.6883,13.6883,13.6883,13.6883,13.6883,13.6883,13.6883,13.6883,13.6883,13.6883,13.6883,13.6883,13.6883,13.7255,13.7775,13.7775,13.8655,13.9908,13.9844,14.0736,14.1915,14.1915,14.2064,14.2361,14.232,14.3433,14.4626,14.3819,14.4478,14.5294,14.4645,14.4304,14.3968,14.3609,14.3517,14.3425,14.2998,14.2998,14.2998,14.2903,14.2784,14.288,14.3463,14.3554,14.3463,14.3279,14.3186,14.3092,14.2903,14.2903,14.2903,14.2903,14.1916,14.1257,14.1257,14.0068,13.9339,13.9339,13.9096,13.8974,13.8974,13.8974,13.8974,13.8974,13.8974,13.8411,13.7284,13.7214,13.7848,13.8974,13.8974,13.8974,13.8974,13.8974,13.8974,9.5669,9.7132,9.8632,10.0193,10.4383,0.0,11.5385,11.7886,12.0744,12.6864,12.8352,12.9054,13.063,13.1225,13.2042,13.3764,13.3998,13.4084,13.4455,13.4556,13.4453,13.4379,13.4587,13.4021,13.2525,13.2462,13.3045,13.4147,13.4381,13.5112,13.6512,13.6735,13.6883,13.6883,13.6883,13.6883,13.6883,13.6883,13.6883,13.6883,13.6883,13.6883,13.6883,13.6883,13.6883,13.6883,13.6883,13.6883,13.6883,13.6883,13.8581,14.1384,14.1384,14.1459,14.1682,14.1645,14.1801,14.1949,14.1949,14.2765,14.3946,14.402,14.506,14.6464,14.6327,14.6475,14.655,14.648,14.575,14.482,14.3968,14.3863,14.37,14.3425,14.3425,14.3259,14.2903,14.2903,14.3554,14.5899,14.6047,14.5593,14.4738,14.4414,14.391,14.2998,14.2903,14.2903,14.2903,14.2687,14.2464,14.2464,14.1293,14.0481,14.0481,13.9626,13.8974,13.8974,13.8974,13.8974,13.8974,13.8974,13.8904,13.8763,13.8763,13.8833,13.8974,13.8974,13.8974,13.8974,13.8974,13.8974,9.6761,9.8033,9.9454,10.2923,0.0,0.0,11.6873,11.9782,12.2821,12.7361,12.9753,13.1549,13.3182,13.4209,13.4804,13.4529,13.4507,13.4481,13.4481,13.4556,13.4197,13.3244,13.3976,13.4296,13.3661,13.4481,13.526,13.5854,13.5854,13.6151,13.6809,13.6883,13.6883,13.6883,13.6883,13.6883,13.6883,13.6883,13.6883,13.6883,13.6883,13.6883,13.6883,13.7849,13.8358,13.8358,13.9324,13.9834,13.9834,13.9789,14.002,14.0531,14.1496,14.1934,14.2016,14.2914,14.3878,14.4763,14.4763,14.5134,14.5722,14.5722,14.6167,14.6761,14.6761,14.6761,14.6761,14.6761,14.648,14.6046,14.5673,14.5523,14.5523,14.5445,14.5367,14.5367,14.5215,14.4982,14.5294,14.655,14.6624,14.6409,14.5973,14.5899,14.5675,14.5215,14.5136,14.5136,14.5136,14.4488,14.3806,14.3717,14.2589,14.1541,14.0818,14.0254,13.9744,13.8974,13.8974,13.8974,13.8974,13.8974,13.82,13.6369,13.8059,13.8129,13.6369,13.8129,13.8974,13.8974,13.8974,13.8974,9.8258,0.0,0.0,0.0,0.0,0.0,11.8933,12.1953,12.4734,12.7985,13.0448,13.2388,13.3575,13.4752,13.526,13.4655,13.4556,13.4468,13.4468,13.4507,13.4232,13.3501,13.4513,13.5247,13.5247,13.6313,13.6958,13.6883,13.6883,13.6883,13.6883,13.6883,13.6883,13.6883,13.6883,13.6883,13.6883,13.6883,13.6883,13.6883,13.6883,13.6883,13.6883,13.8135,13.8953,13.9483,14.0736,14.1479,14.1851,14.1875,14.1214,14.0182,14.143,14.1875,14.2104,14.3656,14.4986,14.6093,14.6613,14.6761,14.6761,14.6761,14.6761,14.6761,14.6761,14.6761,14.6761,14.6761,14.6761,14.6761,14.6761,14.6761,14.6761,14.6761,14.6761,14.6761,14.6761,14.6619,14.655,14.6761,14.6761,14.6761,14.6761,14.6761,14.6761,14.6761,14.6761,14.6761,14.6761,14.5899,14.5215,14.4982,14.388,14.2759,14.1823,14.1076,14.0368,13.9508,13.9218,13.8974,13.8974,13.8974,13.7777,13.5172,13.7707,13.7707,13.5102,13.7707,13.8974,13.8974,13.8974,13.8974,0.0,0.0,0.0,10.9258,11.2989,11.7067,12.3348,12.604,12.8059,13.1202,13.188,13.1954,13.2028,13.2102,13.26,13.423,13.4494,13.4455,13.4455,13.4529,13.5186,13.6883,13.7106,13.7106,13.7106,13.718,13.7106,13.6883,13.6883,13.6883,13.6883,13.6883,13.6883,13.6883,13.6883,13.6883,13.6883,13.6883,13.6883,13.6883,13.6883,13.6883,13.6883,13.6883,13.7794,13.9367,13.9441,14.0331,14.1882,14.1882,14.1882,14.1807,14.1851,14.1925,14.2104,14.3656,14.4317,14.454,14.6167,14.6761,14.6761,14.6761,14.6761,14.6761,14.6761,14.6761,14.6761,14.6761,14.6761,14.6761,14.6761,14.6761,14.6761,14.6761,14.6761,14.6761,14.6761,14.6761,14.6761,14.6761,14.6761,14.6761,14.6761,14.6761,14.6761,14.6761,14.6761,14.6761,14.6761,14.655,14.6264,14.6264,14.5048,14.413,14.413,14.206,14.0706,14.0706,13.9626,13.8974,13.8974,13.8974,13.827,13.6792,13.82,13.827,13.6792,13.827,13.8974,13.8974,13.8974,13.8974,10.1288,10.3684,10.6375,11.2219,11.7765,12.2642,12.5817,12.8579,13.0682,13.1795,13.1994,13.2339,13.3441,13.2736,13.2537,13.4209,13.4518,13.4826,13.5929,13.6077,13.6226,13.6883,13.6958,13.6958,13.6958,13.6958,13.6958,13.6883,13.6883,13.6883,13.6883,13.6883,13.6883,13.6883,13.6883,13.6883,13.6883,13.6883,13.6883,13.6883,13.6883,13.6883,13.6883,13.8061,13.8814,13.9418,14.0547,14.1356,14.1925,14.1925,14.1256,14.03,14.1469,14.1246,14.0448,14.2074,14.2668,14.2899,14.4526,14.512,14.5202,14.639,14.6761,14.6761,14.6761,14.6761,14.6761,14.6761,14.6761,14.6761,14.6761,14.6761,14.6761,14.6761,14.6761,14.6761,14.6761,14.6761,14.6761,14.6761,14.6761,14.6761,14.6761,14.6761,14.6761,14.6761,14.6761,14.6761,14.6761,14.6619,14.655,14.6409,14.5973,14.5289,14.4304,14.359,14.2661,14.1823,14.0818,14.0139,14.0139,13.9388,13.827,13.6862,13.827,13.847,13.7317,13.847,13.9459,14.0139,13.9339,13.9167,10.2824,10.5803,10.9046,11.533,12.1039,12.555,12.7628,13.0163,13.1869,13.1264,13.1596,13.2147,13.2668,13.2798,13.3427,13.5112,13.5335,13.5706,13.6735,13.6883,13.6883,13.6883,13.6883,13.6883,13.6883,13.6883,13.6883,13.6883,13.6883,13.6883,13.6883,13.6883,13.6883,13.6883,13.6883,13.6883,13.6883,13.6883,13.6883,13.6883,13.6883,13.6883,13.6883,13.7987,13.8804,13.9398,13.9863,14.0151,14.0131,14.0131,13.9462,13.8581,13.9685,13.9462,13.8655,14.0364,14.1033,14.1265,14.3485,14.4228,14.4459,14.6167,14.6761,14.6761,14.6761,14.6761,14.6761,14.6761,14.6761,14.6761,14.6761,14.6761,14.6761,14.6761,14.6761,14.6761,14.6761,14.6761,14.6761,14.6761,14.6761,14.6761,14.6761,14.6761,14.6761,14.6761,14.6761,14.6761,14.6761,14.6761,14.6761,14.655,14.648,14.6047,14.5048,14.4561,14.388,14.3048,14.1958,14.14,14.1293,14.0523,13.9144,13.7083,13.8799,13.9311,13.8534,13.9571,14.041,14.0746,14.0297,14.021,10.4584,10.845,11.2477,11.8775,12.2821,12.607,12.9074,13.0842,13.1487,13.0036,13.0898,13.1418,13.0021,13.2427,13.4974,13.6512,13.6809,13.6883,13.6883,13.6883,13.6883,13.6883,13.6883,13.6883,13.6883,13.6883,13.6883,13.6883,13.6883,13.6883,13.6883,13.6883,13.6883,13.6883,13.6883,13.6883,13.6883,13.6883,13.6883,13.6883,13.6883,13.6883,13.6883,13.6883,13.77,13.9176,13.7552,13.6883,13.6883,13.6883,13.6883,13.6883,13.6883,13.6883,13.7032,13.8675,13.9269,13.9706,14.2899,14.4013,14.4385,14.6093,14.6687,14.6761,14.6761,14.6761,14.6761,14.6761,14.6761,14.6761,14.6761,14.6761,14.6761,14.6761,14.6761,14.6761,14.6761,14.6761,14.6761,14.6761,14.6761,14.6761,14.6761,14.6761,14.6761,14.6761,14.6761,14.6761,14.6761,14.6761,14.6761,14.6761,14.655,14.6409,14.6409,14.5215,14.4488,14.4304,14.3259,14.2516,14.2292,14.2119,14.0675,13.7642,13.975,14.0679,14.0295,14.1668,14.1855,14.1042,14.1958,14.1927,10.6639,11.2448,11.7369,12.3754,12.6931,12.8936,13.0979,13.0819,13.0482,13.127,13.0823,13.0482,13.1264,13.3119,13.4603,13.5038,13.6077,13.6883,13.6883,13.6883,13.6883,13.6883,13.6883,13.6883,13.6883,13.6883,13.6883,13.6883,13.6883,13.6883,13.6883,13.6883,13.6883,13.6883,13.6883,13.6883,13.6883,13.6883,13.6883,13.6883,13.6883,13.6883,13.6883,13.6883,13.7106,13.7477,13.7032,13.6883,13.6883,13.6883,13.6883,13.6883,13.6883,13.6883,13.6883,13.7265,13.7552,13.7775,13.9854,14.1414,14.2751,14.4385,14.5722,14.6761,14.6761,14.6761,14.6761,14.6761,14.6761,14.6761,14.6761,14.6761,14.6761,14.6761,14.6761,14.6761,14.6761,14.6761,14.6761,14.6761,14.6761,14.6761,14.6761,14.6761,14.6761,14.6761,14.6761,14.6761,14.6761,14.6761,14.6761,14.6761,14.6761,14.655,14.6409,14.6046,14.5824,14.567,14.3377,14.1876,14.1876,13.9956,13.8534,13.7472,14.031,14.1995,14.2615,14.2604,14.2759,14.3071,14.2759,14.2563,10.5855,11.337,11.9837,12.4867,12.7911,12.9693,12.9854,12.9753,12.9872,13.0823,13.0259,13.0138,13.1697,13.3318,13.4569,13.4455,13.5854,13.6883,13.6883,13.6883,13.6883,13.6883,13.6883,13.6883,13.6883,13.6883,13.6883,13.6883,13.6883,13.6883,13.6883,13.6883,13.6883,13.6883,13.6883,13.6883,13.6883,13.6883,13.6883,13.6883,13.6883,13.6883,13.6883,13.6883,13.6883,13.6883,13.6883,13.6883,13.6883,13.6883,13.6883,13.6883,13.6883,13.6883,13.6883,13.6883,13.6883,13.7106,13.8814,14.0448,14.2157,14.3716,14.535,14.6761,14.6761,14.6761,14.6761,14.6761,14.6761,14.6761,14.6761,14.6761,14.6761,14.6761,14.6761,14.6761,14.6761,14.6761,14.6761,14.6761,14.6761,14.6761,14.6761,14.6761,14.6761,14.6761,14.6761,14.6761,14.6761,14.6761,14.6761,14.6761,14.6761,14.6761,14.655,14.655,14.648,14.6266,14.4711,14.3436,14.2541,14.1094,13.9949,13.9205,14.0837,14.2345,14.3533,14.3816,14.4042,14.4231,14.4042,14.3863,10.417,11.2677,12.0538,12.4437,12.7419,12.8989,12.7688,12.8401,12.9426,12.9649,12.9483,12.9792,13.1359,13.2891,13.3947,13.4147,13.5483,13.666,13.6809,13.6883,13.6883,13.6883,13.6883,13.6883,13.6883,13.6883,13.6883,13.6883,13.6883,13.6883,13.6883,13.6883,13.6883,13.6883,13.6883,13.6883,13.6883,13.6883,13.6883,13.6883,13.6883,13.6883,13.6883,13.6883,13.6883,13.6883,13.6883,13.6883,13.6883,13.6883,13.6883,13.6883,13.6883,13.6883,13.6883,13.6883,13.6883,13.7106,13.8517,14.03,14.2082,14.3493,14.5202,14.6761,14.6761,14.6761,14.6761,14.6761,14.6761,14.6761,14.6761,14.6761,14.6761,14.6761,14.6761,14.6761,14.6761,14.6761,14.6761,14.6761,14.6761,14.6761,14.6761,14.6761,14.6761,14.6761,14.6761,14.6761,14.6761,14.6761,14.6761,14.6761,14.6761,14.6761,14.6761,14.6761,14.6619,14.648,14.6187,14.5227,14.3383,14.3161,14.2567,14.1382,14.1605,14.2493,14.4047,14.5156,14.5436,14.4975,14.5436,14.5276,10.5243,11.2565,11.9726,12.6989,12.8193,12.7837,12.8996,12.8327,12.7955,12.9352,12.8491,12.8119,12.9798,13.0244,13.0928,13.2166,13.3861,13.5409,13.666,13.6883,13.6883,13.6883,13.6883,13.6883,13.6883,13.6883,13.6883,13.6883,13.6883,13.6883,13.6883,13.6883,13.6883,13.6883,13.6883,13.6883,13.6883,13.6883,13.6883,13.6883,13.6883,13.6883,13.6883,13.6883,13.6883,13.6883,13.6883,13.6883,13.6883,13.6883,13.6883,13.6883,13.6883,13.6883,13.6883,13.6883,13.6883,13.6883,13.718,13.9334,14.1934,14.2231,14.431,14.6761,14.6761,14.6761,14.6761,14.6761,14.6761,14.6761,14.6761,14.6761,14.6761,14.6761,14.6761,14.6761,14.6761,14.6761,14.6761,14.6761,14.6761,14.6761,14.6761,14.6761,14.6761,14.6761,14.6761,14.6761,14.6761,14.6761,14.6761,14.6761,14.6761,14.6761,14.6761,14.6761,14.6761,14.6761,14.5219,14.3667,14.1893,14.0633,14.0553,14.1793,14.313,14.4403,14.5894,14.6118,14.6121,14.5972,14.6046,14.5972,10.3653,11.1938,11.9782,12.3679,12.5832,12.7302,12.8178,12.7674,12.7154,12.7376,12.7228,12.7376,12.8178,12.8996,12.9887,13.0584,13.2885,13.4752,13.5557,13.63,13.6883,13.6883,13.6883,13.6883,13.6883,13.6883,13.6883,13.6883,13.6883,13.6883,13.6883,13.6883,13.6883,13.6883,13.6883,13.6883,13.6883,13.6883,13.6883,13.6883,13.6883,13.6883,13.6883,13.6883,13.6883,13.6883,13.6883,13.6883,13.6883,13.6883,13.6883,13.6883,13.6883,13.6883,13.6883,13.6883,13.6883,13.6883,13.6883,13.8517,14.0745,14.1637,14.3493,14.5573,14.6464,14.6761,14.6761,14.6761,14.6761,14.6761,14.6761,14.6761,14.6761,14.6761,14.6761,14.6761,14.6761,14.6761,14.6761,14.6761,14.6761,14.6761,14.6761,14.6761,14.6761,14.6761,14.6761,14.6761,14.6761,14.6761,14.639,14.5499,14.5425,14.5127,14.431,14.4236,14.4608,14.5425,14.3872,14.2543,14.1727,14.1801,14.2172,14.2988,14.373,14.4848,14.6409,14.6266,14.6412,14.6484,14.6268,14.6268,10.2942,11.1905,11.9997,12.0373,12.3266,12.6055,12.6204,12.669,12.6874,12.6007,12.6204,12.6708,12.7079,12.7955,12.8847,12.9575,13.2056,13.4073,13.4455,13.5854,13.6883,13.6883,13.6883,13.6883,13.6883,13.6883,13.6883,13.6883,13.6883,13.6883,13.6883,13.6883,13.6883,13.6883,13.6883,13.6883,13.6883,13.6883,13.6883,13.6883,13.6883,13.6883,13.6883,13.6883,13.6883,13.6883,13.6883,13.6883,13.6883,13.6883,13.6883,13.6883,13.6883,13.6883,13.6883,13.6883,13.6883,13.6883,13.6883,13.7923,13.9631,14.134,14.2974,14.4533,14.6242,14.6761,14.6761,14.6761,14.6761,14.6761,14.6761,14.6761,14.6761,14.6761,14.6761,14.6761,14.6761,14.6761,14.6761,14.6761,14.6761,14.6761,14.6761,14.6761,14.6761,14.6761,14.6761,14.6761,14.6761,14.6761,14.6242,14.4905,14.4459,14.3716,14.2528,14.2082,14.2454,14.3642,14.2899,14.2231,14.1934,14.3419,14.4169,14.4107,14.4477,14.5219,14.648,14.6338,14.6484,14.6761,14.6412,14.6412,10.6293,11.3599,12.0139,12.1657,12.2391,12.2821,12.3191,12.5304,12.7073,12.6967,12.5907,12.5461,12.6857,12.6055,12.6204,12.9144,13.1062,13.2772,13.4295,13.5854,13.6883,13.6883,13.6883,13.6883,13.6883,13.6883,13.6883,13.6883,13.6883,13.6883,13.6883,13.6883,13.6883,13.6883,13.6883,13.6883,13.6883,13.6883,13.6883,13.6883,13.6883,13.6883,13.6883,13.6883,13.6883,13.6883,13.6883,13.6883,13.6883,13.6883,13.6883,13.6883,13.6883,13.6883,13.6883,13.6883,13.6883,13.6883,13.6883,13.7923,13.9631,14.134,14.2974,14.4533,14.6242,14.6761,14.6761,14.6761,14.6761,14.6761,14.6761,14.6761,14.6761,14.6761,14.6761,14.6761,14.6761,14.6761,14.6761,14.6761,14.6761,14.6761,14.6761,14.6761,14.6761,14.6761,14.6761,14.6761,14.6761,14.6761,14.6687,14.6539,14.5127,14.4162,14.4013,14.2751,14.1934,14.2082,14.3345,14.3419,14.1934,14.3419,14.4236,14.4236,14.5722,14.6613,14.6761,14.6761,14.6761,14.6761,14.648,14.6409,10.1698,10.9701,11.7195,11.685,11.9631,12.2376,12.2549,12.2289,12.2726,12.5468,12.6278,12.6337,12.584,12.5949,12.6278,12.6708,12.8847,13.1151,13.2822,13.4381,13.578,13.6735,13.6883,13.6883,13.6883,13.6883,13.6883,13.6883,13.6883,13.6883,13.6883,13.6883,13.6883,13.6883,13.6883,13.6883,13.6883,13.6883,13.6883,13.6883,13.6883,13.6883,13.6883,13.6883,13.6883,13.6883,13.6883,13.6883,13.6883,13.6883,13.6883,13.6883,13.6883,13.6883,13.6883,13.6883,13.6883,13.6883,13.6883,13.7329,13.8146,13.978,14.0745,14.1785,14.4459,14.5276,14.5425,14.6464,14.6761,14.6761,14.6761,14.6761,14.6761,14.6761,14.6761,14.6761,14.6761,14.5944,14.5276,14.5276,14.4459,14.3791,14.3791,14.4608,14.5276,14.5276,14.6093,14.639,14.535,14.4385,14.3419,14.2379,14.1711,14.0894,13.9854,14.0151,14.082,14.1859,14.2454,14.2974,14.3271,14.4905,14.5722,14.5722,14.639,14.6761,14.6761,14.6761,14.6761,14.6761,14.6619,14.6619,9.8586,10.5722,11.2923,11.3159,11.6236,11.9593,12.1368,12.0357,12.0167,12.4363,12.5758,12.5965,12.4948,12.5337,12.5652,12.4941,12.754,13.0064,13.1138,13.313,13.49,13.6003,13.6586,13.6883,13.6883,13.6883,13.6883,13.6883,13.6883,13.6883,13.6883,13.6883,13.6883,13.6883,13.6883,13.6883,13.6883,13.6883,13.6883,13.6883,13.6883,13.6883,13.6883,13.7329,13.7552,13.7626,13.8135,13.8358,13.8358,13.8358,13.8358,13.8294,13.7775,13.7626,13.7552,13.7032,13.6883,13.6883,13.6883,13.6883,13.7106,13.8814,13.9334,13.9854,14.2676,14.3865,14.4459,14.5647,14.639,14.6761,14.6761,14.6761,14.6761,14.6761,14.6761,14.6613,14.6093,14.5053,14.4088,14.3642,14.2676,14.1859,14.1859,14.2825,14.3568,14.3568,14.4533,14.4905,14.3716,14.2602,14.1637,14.0894,14.0374,13.978,13.9111,13.9706,14.0597,14.1785,14.2305,14.3345,14.4905,14.6093,14.6761,14.6761,14.6761,14.6761,14.6761,14.6761,14.6761,14.6761,14.6761,14.6761,9.8862,10.2703,10.7392,11.2299,11.2353,11.285,11.8942,12.0253,12.0971,12.4199,12.3785,12.3266,12.4586,12.3776,12.3312,12.457,12.7506,12.9667,12.9667,13.2462,13.4529,13.4529,13.5854,13.6883,13.6883,13.6883,13.6883,13.6883,13.6883,13.6883,13.6883,13.6883,13.6883,13.6883,13.6883,13.6883,13.6883,13.6883,13.6883,13.6883,13.6883,13.6883,13.6883,13.8581,13.9324,13.9462,14.1161,14.1831,14.1831,14.1831,14.1841,14.1702,13.9993,13.9334,13.9111,13.7477,13.6883,13.6883,13.6883,13.6883,13.7106,13.8814,13.9334,13.9706,14.1414,14.2974,14.4236,14.4236,14.5425,14.6761,14.6761,14.6761,14.6761,14.6761,14.6761,14.6316,14.4608,14.4236,14.3791,14.2231,14.1934,14.1859,14.1859,14.1934,14.1934,14.1934,14.1934,14.1934,14.1934,14.1859,14.2454,14.4013,14.2825,14.2528,14.4013,14.2751,14.1859,14.1859,14.3345,14.4979,14.6613,14.6761,14.6761,14.6761,14.6761,14.6761,14.6761,14.6761,14.6761,14.6761,14.6761,14.6761,9.7057,10.1281,10.5806,10.9358,11.061,11.2134,11.6099,11.7924,11.9109,12.0299,12.1798,12.2954,12.3381,12.4751,12.558,12.4867,12.6515,12.8309,12.9519,13.1487,13.3182,13.4381,13.5854,13.6883,13.6883,13.6883,13.6883,13.6883,13.6883,13.6883,13.6883,13.6883,13.6883,13.6883,13.6883,13.6883,13.6883,13.6883,13.6883,13.6883,13.8061,13.8581,13.8655,14.0354,14.1108,14.1125,14.1645,14.1868,14.1868,14.1934,14.1934,14.1859,14.134,14.1117,14.1042,14.0523,14.03,14.03,14.03,14.03,14.0374,14.0894,14.1117,14.1414,14.2974,14.3865,14.4236,14.4236,14.5425,14.6761,14.6761,14.6761,14.6761,14.6761,14.6761,14.6613,14.6093,14.5053,14.4088,14.3568,14.2602,14.1859,14.1859,14.2825,14.3493,14.3493,14.4459,14.483,14.3642,14.3493,14.3271,14.2676,14.2157,14.2082,14.2602,14.3196,14.3493,14.3493,14.5053,14.6167,14.6687,14.6761,14.6761,14.6761,14.6761,14.6761,14.6761,14.6761,14.6761,14.6761,14.6761,14.6761,9.5167,9.9265,10.3363,10.7006,10.775,10.8677,11.2945,11.4798,11.5953,11.7332,11.9578,12.1429,12.2046,12.3955,12.5114,12.3992,12.5238,12.6797,12.8457,13.0077,13.1697,13.3416,13.4964,13.6215,13.6809,13.6883,13.6883,13.6883,13.6883,13.6883,13.6883,13.6883,13.6883,13.6883,13.6883,13.6883,13.6883,13.6883,13.718,13.7775,13.8878,13.9696,14.0374,14.2074,14.2751,14.284,14.3433,14.373,14.373,14.3724,14.3724,14.3724,14.3716,14.3345,14.2751,14.2082,14.1859,14.1859,14.1859,14.1859,14.1859,14.1859,14.1859,14.2082,14.3048,14.3791,14.4236,14.4236,14.5425,14.6613,14.5944,14.6242,14.6761,14.6761,14.6761,14.6539,14.5944,14.4979,14.4088,14.3493,14.2528,14.1859,14.1859,14.2676,14.3345,14.3345,14.4236,14.4533,14.3493,14.3345,14.2974,14.2008,14.2454,14.3048,14.3642,14.4608,14.5202,14.5202,14.6167,14.6761,14.6761,14.6761,14.6761,14.6761,14.6761,14.6761,14.6761,14.6761,14.6761,14.6761,14.6761,14.6761,9.3421,9.6836,10.0168,10.516,10.4462,10.4034,10.9898,11.1357,11.2328,11.5107,11.7268,11.9072,12.0354,12.1849,12.2821,12.2672,12.377,12.5238,12.6782,12.8431,13.0077,13.1647,13.3405,13.5101,13.6735,13.6883,13.6883,13.6883,13.6883,13.6883,13.6883,13.6883,13.6883,13.6883,13.6883,13.6883,13.6883,13.6883,13.77,13.9324,13.9473,14.0448,14.2104,14.3656,14.4392,14.454,14.6093,14.6761,14.6761,14.6761,14.6761,14.6761,14.6761,14.5796,14.4236,14.2825,14.2231,14.2231,14.2231,14.2231,14.2231,14.2231,14.2231,14.2231,14.2231,14.3271,14.4385,14.431,14.5425,14.639,14.483,14.5573,14.6761,14.6761,14.6761,14.6316,14.4756,14.4385,14.4013,14.2528,14.2231,14.2231,14.2231,14.2231,14.2231,14.2231,14.2231,14.2231,14.2231,14.2231,14.2231,14.2231,14.3568,14.5053,14.6613,14.6761,14.6761,14.6761,14.6761,14.6761,14.6761,14.6761,14.6761,14.6761,14.6761,14.6761,14.6761,14.6761,14.6761,14.6761,14.6761,14.6761,9.2049,9.4477,9.708,10.1916,10.5193,10.7597,10.8965,11.1388,11.3167,11.2864,11.6167,11.8921,11.7934,12.0871,12.3976,12.5673,12.4537,12.3785,12.5164,12.6691,12.8321,12.9976,13.2736,13.5112,13.6735,13.6883,13.6883,13.6883,13.6883,13.6883,13.6883,13.6883,13.6883,13.6883,13.6883,13.6883,13.6883,13.6883,13.77,13.9398,14.068,14.2172,14.373,14.5357,14.6167,14.6167,14.6539,14.6761,14.6761,14.6761,14.6761,14.6761,14.6761,14.6539,14.6093,14.5722,14.5573,14.5573,14.5573,14.5573,14.5573,14.5573,14.5573,14.5573,14.5573,14.587,14.587,14.4608,14.5425,14.6613,14.6242,14.6464,14.6761,14.6761,14.6761,14.6613,14.6242,14.6167,14.6019,14.5647,14.5573,14.5573,14.5573,14.5573,14.5573,14.5573,14.5573,14.5573,14.5573,14.5573,14.5573,14.5573,14.5944,14.6316,14.6687,14.6761,14.6761,14.6761,14.6761,14.6761,14.6761,14.6761,14.6761,14.6761,14.6761,14.6761,14.6761,14.6761,14.6761,14.6761,14.6761,14.6761,9.2504,9.526,9.7439,9.9413,10.236,10.4907,10.5624,10.7309,10.9123,11.0632,11.3145,11.5421,11.6635,11.8863,12.1392,12.3942,12.4183,12.4199,12.4686,12.6144,12.7716,12.9441,13.1846,13.4009,13.5632,13.6374,13.6883,13.6883,13.6883,13.6883,13.6883,13.6883,13.6883,13.6883,13.6883,13.6883,13.6883,13.6883,13.8135,14.0503,14.1496,14.3136,14.5357,14.6316,14.6761,14.6761,14.6761,14.6761,14.6761,14.6761,14.6761,14.6761,14.6761,14.6761,14.6761,14.6761,14.6761,14.6761,14.6761,14.6761,14.6761,14.6761,14.6761,14.6761,14.6761,14.6761,14.6539,14.5647,14.6019,14.6761,14.6761,14.6761,14.6761,14.6761,14.6761,14.6761,14.6761,14.6761,14.6761,14.6761,14.6761,14.6761,14.6761,14.6761,14.6761,14.6761,14.6761,14.6761,14.6761,14.6761,14.6761,14.6761,14.6761,14.6761,14.6761,14.6761,14.6761,14.6761,14.6761,14.6761,14.6761,14.6761,14.6761,14.6761,14.6761,14.6761,14.6761,14.6761,14.6761,14.6761,14.6761,14.6761,9.3339,9.6732,9.8834,9.8019,9.8878,10.032,10.1686,10.2445,10.4038,10.8355,10.9636,11.1229,11.5108,11.6332,11.7634,12.0101,12.3059,12.4975,12.4538,12.5858,12.7376,12.907,13.0658,13.224,13.4009,13.5557,13.6512,13.6512,13.6735,13.6883,13.6883,13.6883,13.6883,13.6883,13.6883,13.6883,13.6883,13.6883,13.8433,14.1533,14.1793,14.3433,14.6316,14.6613,14.6761,14.6761,14.6761,14.6761,14.6761,14.6761,14.6761,14.6761,14.6761,14.6761,14.6761,14.6761,14.6761,14.6761,14.6761,14.6761,14.6761,14.6761,14.6761,14.6761,14.6761,14.6761,14.6761,14.6761,14.6761,14.6761,14.6761,14.6761,14.6761,14.6761,14.6761,14.6761,14.6761,14.6761,14.6761,14.6761,14.6761,14.6761,14.6761,14.6761,14.6761,14.6761,14.6761,14.6761,14.6761,14.6761,14.6761,14.6761,14.6761,14.6761,14.6761,14.6761,14.6761,14.6761,14.6761,14.6761,14.6761,14.6761,14.6761,14.6761,14.6761,14.6761,14.6761,14.6761,14.6761,14.6761,14.6761,14.6761,9.2656,9.522,9.8019,9.9174,9.9713,9.9941,10.0244,10.2521,10.4805,10.5556,10.8052,11.0243,11.0926,11.4207,11.7115,11.7851,12.1212,12.3598,12.3198,12.4289,12.5758,12.7302,12.8996,13.0644,13.224,13.3935,13.4826,13.4826,13.6077,13.6883,13.6883,13.6883,13.6883,13.6883,13.6883,13.6883,13.6883,13.6883,13.7775,13.9834,14.1274,14.284,14.4608,14.6093,14.6761,14.6761,14.6761,14.6761,14.6761,14.6761,14.6761,14.6761,14.6761,14.6761,14.6761,14.6761,14.6761,14.6761,14.6761,14.6761,14.6761,14.6761,14.6761,14.6761,14.6761,14.6761,14.6761,14.6761,14.6761,14.6761,14.6761,14.6761,14.6761,14.6761,14.6761,14.6761,14.6761,14.6761,14.6761,14.6761,14.6761,14.6761,14.6761,14.6761,14.6761,14.6761,14.6761,14.6761,14.6761,14.6761,14.6761,14.6761,14.6761,14.6761,14.6761,14.6761,14.6761,14.6761,14.6761,14.6761,14.6761,14.6761,14.6761,14.6761,14.6761,14.6761,14.6761,14.6761,14.6761,14.6761,14.6761,14.6761,9.4704,9.6905,9.8954,9.9713,9.9941,9.9941,9.9941,10.1155,10.2748,10.4577,10.6239,10.7605,10.8516,11.1779,11.4492,11.4651,11.7504,12.0303,12.173,12.3612,12.5387,12.6931,12.8624,12.9962,13.0584,13.3008,13.4494,13.4455,13.5929,13.6883,13.6883,13.6883,13.6883,13.6883,13.6883,13.6883,13.6883,13.6883,13.77,13.9324,14.016,14.1793,14.4236,14.5053,14.587,14.6761,14.6761,14.6761,14.6761,14.6761,14.6761,14.6761,14.6761,14.6761,14.6761,14.6761,14.6761,14.6761,14.6761,14.6761,14.6761,14.6761,14.6761,14.6761,14.6761,14.6761,14.6761,14.6761,14.6761,14.6761,14.6761,14.6761,14.6761,14.6761,14.6761,14.6761,14.6761,14.6761,14.6761,14.6761,14.6761,14.6761,14.6761,14.6761,14.6761,14.6761,14.6761,14.6761,14.6761,14.6761,14.6761,14.6761,14.6761,14.6761,14.6761,14.6761,14.6761,14.6761,14.6761,14.6761,14.6761,14.6761,14.6761,14.6761,14.6761,14.6761,14.6761,14.6761,14.6761,14.6761,14.6761,14.6761,9.7664,0.0,10.1686,10.1686,10.1382,10.1079,0.0,10.0472,10.0624,10.3204,10.3818,10.4274,10.6019,10.8979,11.1475,11.2225,11.4865,11.7879,12.0833,12.2853,12.4645,12.6559,12.7748,12.8624,12.8996,13.1641,13.3515,13.3861,13.5409,13.6512,13.6809,13.6883,13.6883,13.6883,13.6883,13.6883,13.6883,13.6883,13.7477,13.8804,13.9186,14.0671,14.3048,14.3493,14.4608,14.6167,14.6167,14.639,14.6761,14.6761,14.6761,14.6761,14.6761,14.6822,14.6954,14.6755,14.6822,14.6954,14.6755,14.6761,14.6761,14.6761,14.6761,14.6761,14.6761,14.6761,14.6761,14.6761,14.6761,14.6761,14.6761,14.6761,14.6761,14.6761,14.6761,14.6761,14.6761,14.6761,14.6761,14.6761,14.6761,14.6761,14.6761,14.6761,14.6761,14.6761,14.6761,14.6761,14.6761,14.6761,14.6761,14.6761,14.6761,14.6761,14.6761,14.6761,14.6761,14.6761,14.6761,14.6761,14.6761,14.6761,14.6761,14.6761,14.6761,14.6761,14.6761,14.6761,14.6761,14.6761,14.6761,14.6761,0.0,10.4494,10.6922,10.6922,10.5784,10.4645,10.4645,10.2141,0.0,10.0244,10.0244,10.0775,10.2445,10.5564,10.8827,11.1854,11.5193,11.834,12.123,12.1697,12.2661,12.5164,12.5313,12.5684,12.7154,12.8921,13.057,13.2092,13.3787,13.5335,13.6809,13.6883,13.6883,13.6883,13.6883,13.6883,13.6883,13.6883,13.6883,13.7032,13.8666,13.9483,13.978,14.134,14.2899,14.4385,14.4385,14.5276,14.6761,14.6761,14.6761,14.6761,14.6761,14.7008,14.7421,14.6954,14.7008,14.7363,14.6954,14.6761,14.6761,14.6761,14.6761,14.6761,14.6761,14.6761,14.6761,14.6761,14.6761,14.6761,14.6761,14.6761,14.6761,14.6761,14.6761,14.6761,14.6761,14.6761,14.6761,14.6761,14.6761,14.6761,14.6761,14.6761,14.6761,14.6761,14.6761,14.6761,14.6761,14.6761,14.6761,14.6761,14.6761,14.6761,14.6761,14.6761,14.6761,14.6761,14.6761,14.6761,14.6761,14.6761,14.6761,14.6761,14.6761,14.6761,14.6761,14.6761,14.6761,14.6761,14.6761,14.6761,10.3642,10.4923,10.6137,10.7132,10.6137,10.5008,10.4941,10.3128,10.1231,10.0092,9.9941,10.0472,10.2141,10.435,10.6702,10.8971,11.2993,11.653,11.8409,12.0074,12.22,12.5031,12.5926,12.6485,12.7079,12.8624,13.0259,13.1894,13.3553,13.5186,13.6809,13.6883,13.6883,13.6883,13.6883,13.6883,13.6883,13.6883,13.6883,13.6883,13.7477,13.8369,13.9408,14.0003,14.1785,14.4236,14.4236,14.5202,0.0,14.6761,14.6954,14.7196,14.6888,14.7072,14.7479,14.6954,14.6888,14.7083,14.6896,14.6761,14.6761,14.6761,14.6761,14.6761,14.6761,14.6761,14.6761,14.6761,14.6761,14.6761,14.6761,14.6761,14.6761,14.6761,14.6761,14.6761,14.6761,14.6761,14.6761,14.6761,14.6761,14.6761,14.6761,14.6761,14.6761,14.6761,14.6761,14.6761,14.6761,14.6761,14.6761,14.6761,14.6761,14.6761,14.6761,14.6761,14.6761,14.6761,14.6761,14.6761,14.6761,14.6761,14.6761,14.6761,14.6761,14.6761,14.6761,14.6761,14.6761,14.6761,14.6761,14.6761,10.5615,10.6516,10.7578,10.863,10.773,10.6592,10.6525,10.4789,10.29,10.1762,10.1534,10.1914,10.3052,10.4645,10.6315,10.7984,11.193,11.5306,11.6591,11.8828,12.117,12.3514,12.4974,12.5907,12.6352,12.7881,12.9501,13.1121,13.2785,13.4432,13.6003,13.6586,13.6586,13.6066,13.6066,13.6289,13.6883,13.6883,13.6883,13.6883,13.6883,13.7477,13.8591,13.8769,14.0617,14.3669,14.378,14.5169,14.7183,14.7183,14.7405,14.7683,14.7288,14.7405,14.7683,14.7196,14.7072,14.7122,14.6888,14.6822,14.7019,14.6829,14.6761,14.6761,14.6761,14.6888,14.7019,14.7019,14.6888,14.6761,14.6761,14.6761,14.6761,14.6761,14.6761,14.6761,14.6761,14.6761,14.6761,14.6761,14.6761,14.6761,14.6761,14.6761,14.6761,14.6761,14.6761,14.6761,14.6761,14.6761,14.6761,14.6761,14.6761,14.6761,14.6761,14.6761,14.6761,14.6761,14.6761,14.6761,14.6761,14.6761,14.6761,14.6761,14.6761,14.6761,14.6761,14.6761,14.6761,14.6761,14.6761,14.6761,10.7074,10.9881,11.2301,11.2358,11.1154,10.9949,10.9844,10.7284,10.5025,10.4949,10.4949,10.4949,10.5025,10.6391,10.7984,10.9578,11.2689,11.5306,11.6515,11.8127,11.9485,12.025,12.1824,12.334,12.466,12.6204,12.7807,12.9501,13.1121,13.2697,13.4381,13.5929,13.6066,13.4556,13.4481,13.5237,13.6809,13.6809,13.6809,13.6809,13.6883,13.6883,13.6883,13.7393,13.9386,14.2506,14.3013,14.5121,14.8129,14.8129,14.8129,14.8129,14.8129,14.8129,14.8083,14.7683,14.7766,14.7989,14.7134,14.7072,14.7421,14.6954,14.6829,14.6829,14.6829,14.7134,14.7536,14.7536,14.7134,14.6761,14.6761,14.6761,14.6761,14.6761,14.6761,14.6761,14.6761,14.6761,14.6761,14.6761,14.6761,14.6761,14.6761,14.6761,14.6761,14.6761,14.6761,14.6761,14.6761,14.6761,14.6761,14.6761,14.6761,14.6761,14.6761,14.6761,14.6761,14.6761,14.6761,14.6761,14.6761,14.6761,14.6761,14.6761,14.6761,14.6761,14.6761,14.6761,14.6761,14.6761,14.6687,14.6687,10.8999,10.9822,11.0884,11.206,11.1087,10.9898,10.9833,10.827,10.6391,10.5252,10.4949,10.5328,10.6543,10.715,10.8355,11.1133,11.3246,11.5409,11.803,11.8376,11.9747,12.3401,12.1972,12.2169,12.6055,12.5832,12.6634,12.9426,13.0095,13.1002,13.265,13.3157,13.3203,13.2757,13.2711,13.2947,13.3405,13.4655,13.5346,13.5602,13.6796,13.7538,13.787,13.8012,13.9185,14.1287,14.1424,14.3392,14.6324,14.6324,14.7251,14.8661,14.8262,14.8347,14.8623,14.8083,14.7989,14.8083,14.7794,14.7794,14.7919,14.7479,14.7462,14.7766,14.7766,14.7629,14.7536,14.7536,14.7134,14.6761,14.6761,14.6761,14.6761,14.6761,14.6761,14.6761,14.6761,14.6761,14.6761,14.6761,14.6761,14.6761,14.6761,14.6761,14.6761,14.6761,14.6761,14.6761,14.6761,14.6761,14.6761,14.6761,14.6761,14.6761,14.6761,14.6761,14.6761,14.6761,14.6761,14.6761,14.6761,14.6761,14.6761,14.6761,14.6761,14.6761,14.6761,14.6761,14.6761,14.6687,14.5499,14.4979,10.9658,10.9798,11.0101,11.1122,11.0619,10.981,10.9822,10.9171,10.8212,10.7132,10.6914,10.7301,10.8279,10.8953,11.0212,11.276,11.4283,11.6035,11.8355,11.8269,11.9316,12.2697,12.1081,12.1411,12.5784,12.5355,12.5891,12.8475,12.9278,12.9739,13.005,13.0036,13.0435,13.1258,13.1295,13.1649,13.2521,13.3566,13.4525,13.5424,13.6398,13.7412,13.8203,13.8368,13.9425,14.1007,14.1158,14.2738,14.5228,14.5228,14.6349,14.8201,14.7825,14.8243,14.8841,14.8584,14.8429,14.8389,14.8218,14.8262,14.8347,14.7919,14.8249,14.8698,14.847,14.8293,14.8017,14.7818,14.7479,14.7008,14.6829,14.6761,14.6761,14.6761,14.6761,14.6761,14.6761,14.6761,14.6761,14.6761,14.6761,14.6761,14.6761,14.6761,14.6761,14.6761,14.6761,14.6761,14.6761,14.6761,14.6761,14.6761,14.6761,14.6761,14.6761,14.6761,14.6761,14.6761,14.6761,14.6761,14.6761,14.6761,14.6761,14.6761,14.6761,14.639,14.5722,14.5722,14.5425,14.4756,14.3791,14.3271,10.9431,10.981,10.9822,10.9834,10.9861,10.9822,10.9798,10.9909,11.0015,11.0071,11.0167,11.0252,11.0309,11.1589,11.3045,11.4393,11.5691,11.7011,11.7941,11.8061,11.8456,11.9625,11.9633,12.0915,12.4463,12.465,12.528,12.7005,12.855,12.8773,12.7228,12.7138,12.8092,13.0013,13.0088,13.0955,13.2899,13.3049,13.3917,13.5463,13.5763,13.6707,13.8102,13.8774,13.9917,14.1353,14.1705,14.2858,14.4372,14.4394,14.5379,14.6872,14.697,14.7659,14.8756,14.8756,14.8832,14.8874,14.8429,14.8584,14.8916,14.8347,14.8882,14.9452,14.8745,14.8539,14.8509,14.7886,14.7518,14.7139,14.6665,14.6613,14.6761,14.6761,14.6761,14.6761,14.6761,14.6761,14.6761,14.6761,14.6761,14.6761,14.6761,14.6761,14.6761,14.6761,14.6761,14.6761,14.6761,14.6761,14.6761,14.6761,14.6761,14.6761,14.6761,14.6761,14.6761,14.6761,14.6761,14.6761,14.6761,14.6761,14.6687,14.6539,14.6539,14.5647,14.4013,14.4013,14.3271,14.1859,14.1711,14.1637,10.9734,10.9798,10.9785,10.9789,10.9804,10.9834,10.9834,10.9861,11.0201,11.1513,11.1827,11.2282,11.3591,11.4102,11.4828,11.6504,11.6684,11.7123,11.8663,11.8418,11.8535,12.0001,11.8885,11.9707,12.4314,12.3553,12.4034,12.6931,12.7451,12.7525,12.7154,12.7457,12.7994,12.8867,12.8867,12.9059,12.9556,13.0719,13.1743,13.2554,13.5119,13.6714,13.7468,13.8829,13.9685,13.9988,14.0152,14.1157,14.263,14.2712,14.3716,14.5193,14.5308,14.6293,14.7673,14.7554,14.8387,14.95,14.94,14.94,14.94,14.8916,14.8874,14.8608,14.6221,14.5929,14.6004,14.467,14.4893,14.5421,14.4954,14.5796,14.6761,14.6761,14.6761,14.6761,14.6761,14.6761,14.6761,14.6761,14.6761,14.6761,14.6761,14.6761,14.6761,14.6761,14.6761,14.6761,14.6761,14.6761,14.6761,14.6761,14.6761,14.6761,14.6761,14.6761,14.6761,14.6761,14.6761,14.6761,14.6761,14.6761,14.6093,14.483,14.4889,14.4136,14.2574,14.2701,14.2478,14.1979,14.0715,13.9982,10.9861,10.9847,10.9834,10.9849,10.9804,11.0075,11.0833,11.1023,11.1513,11.3182,11.3561,11.3864,11.472,11.5522,11.6215,11.697,11.7502,11.81,11.8813,11.8349,11.8269,11.9135,11.8164,11.8741,12.2047,12.2308,12.3291,12.5817,12.692,12.7489,12.7746,12.7958,12.8308,12.8764,12.8799,12.8867,12.9026,12.9856,13.0776,13.1894,13.361,13.4991,13.6042,13.771,13.8468,13.8468,13.9395,14.0229,14.0969,14.1022,14.2008,14.3507,14.36,14.4678,14.6119,14.6084,14.6615,14.7373,14.7239,14.7845,14.8376,14.7256,14.6928,14.665,14.4859,14.4633,14.4664,14.3285,14.3391,14.3817,14.3244,14.3791,14.4385,14.4385,14.4979,14.5573,14.5573,14.6167,14.6539,14.5722,14.6167,14.6761,14.6761,14.6761,14.6761,14.6761,14.6761,14.6761,14.6761,14.6761,14.6761,14.6761,14.6761,14.6761,14.6761,14.6761,14.6761,14.6761,14.6829,14.6524,14.5707,14.5772,14.5019,14.3382,14.3371,14.2614,14.0976,14.1037,14.0664,13.9859,13.8965,13.8458,10.9847,10.9819,10.9804,10.9849,10.9804,11.024,11.1605,11.2109,11.2823,11.4547,11.5154,11.5382,11.5685,11.6774,11.7593,11.7406,11.841,11.9163,11.8819,11.8428,11.8186,11.8186,11.7813,11.8262,11.9774,12.1486,12.3123,12.489,12.655,12.7794,12.8504,12.8619,12.8833,12.9056,12.9114,12.9323,12.9678,12.9697,13.0398,13.1798,13.2101,13.2969,13.4366,13.6034,13.6792,13.6868,13.8309,13.9067,13.937,13.9386,14.022,14.1494,14.1737,14.2723,14.4012,14.4239,14.4543,14.483,14.4701,14.5629,14.6498,14.392,14.36,14.4076,14.3169,14.3267,14.3499,14.2187,14.2169,14.2366,14.1659,14.1711,14.1859,14.1859,14.2899,14.3865,14.3865,14.4905,14.5573,14.4459,14.535,14.639,14.6687,14.6761,14.6761,14.6761,14.6761,14.6761,14.6761,14.6761,14.6761,14.6761,14.6464,14.639,14.6755,14.6309,14.6086,14.645,14.6219,14.5466,14.4126,14.4315,14.3557,14.1917,14.1917,14.1022,13.9441,13.9441,13.877,13.7503,13.7503,13.7428,10.9798,10.9834,10.9804,10.9849,10.9849,10.9849,11.0076,11.1335,11.2804,11.4499,11.6053,11.7516,11.8978,11.9315,11.9414,11.9324,11.9546,11.9622,11.9602,11.9243,11.8974,11.8974,11.865,11.9029,12.0567,12.2333,12.3985,12.5671,12.6359,12.7217,12.8428,12.9085,12.9348,12.9056,12.9373,12.9582,12.9658,12.9785,12.9953,13.018,13.1621,13.2455,13.2773,13.429,13.5048,13.5048,13.5381,13.6291,13.7551,13.7697,13.7849,13.8215,13.9682,14.0376,14.0756,14.216,14.3511,14.4801,14.4754,14.4982,14.4147,13.8005,13.8828,14.1601,13.8904,13.9882,14.1518,13.9652,14.0059,14.0853,14.0113,14.0875,14.1859,14.1859,14.2082,14.2231,14.2231,14.2379,14.2899,14.4013,14.4385,14.5053,14.6464,14.6761,14.6761,14.6761,14.6761,14.6761,14.6761,14.6761,14.6761,14.6761,14.5425,14.5194,14.6814,14.4285,14.3382,14.4986,14.3719,14.2825,14.2601,14.2601,14.1842,14.0128,14.032,13.9557,13.7971,13.8007,13.7932,13.7598,13.7598,13.756,10.9798,10.9847,10.9804,10.9849,10.9849,11.0092,11.1017,11.1804,11.3121,11.5738,11.6875,11.7949,11.9641,11.982,11.9778,11.9778,11.9731,11.9755,11.9755,11.9416,11.9163,11.9163,11.8819,11.8879,11.9556,12.106,12.2714,12.4443,12.51,12.6122,12.7678,12.8057,12.8577,12.9373,12.954,12.9621,12.9676,12.9801,12.9831,12.9845,13.0603,13.092,13.1008,13.2677,13.3436,13.3436,13.4446,13.5281,13.5952,13.5975,13.5975,13.6116,13.6821,13.7124,13.72,13.7872,13.8619,13.9226,13.9263,13.9263,13.8746,13.5788,13.6215,13.7594,13.6005,13.6964,13.842,13.7158,13.7908,13.8921,13.8472,13.8891,13.9364,13.9302,13.9971,14.0703,14.0641,14.0577,14.1098,14.2733,14.303,14.3253,14.3997,14.4889,14.5484,14.5484,14.616,14.616,14.4498,14.4201,14.4201,14.4201,14.3605,14.352,14.4253,14.3061,14.254,14.3333,14.2797,14.1961,14.1141,14.1182,14.036,13.8718,13.8829,13.8455,13.7708,13.7762,13.7762,13.7708,13.7708,13.7708,10.981,10.9861,10.9819,10.9804,10.9804,11.0137,11.1411,11.2046,11.3071,11.5598,11.6799,11.7785,11.9099,11.9579,11.9763,11.9748,11.9715,11.9755,11.9755,11.9462,11.9268,11.9268,11.9003,11.8851,11.8851,12.0358,12.179,12.3071,12.3651,12.4754,12.6401,12.6496,12.7254,12.8996,12.8996,12.9243,12.9676,12.9801,12.9845,12.9883,12.9883,12.9818,12.9915,13.1129,13.1736,13.1812,13.3102,13.3861,13.4241,13.4241,13.4241,13.4316,13.4696,13.462,13.4316,13.4772,13.4924,13.4772,13.3915,13.3612,13.3633,13.3633,13.3839,13.4106,13.3751,13.4793,13.5883,13.5277,13.5865,13.6648,13.6796,13.6832,13.6923,13.7192,13.8221,13.91,13.8979,13.9053,13.9351,14.0691,14.1212,14.151,14.151,14.285,14.3892,14.3892,14.488,14.4806,14.2601,14.229,14.229,14.229,14.1917,14.1842,14.235,14.1604,14.1306,14.1812,14.148,14.079,13.9595,13.9257,13.8488,13.7217,13.6843,13.6544,13.6544,13.6544,13.6544,13.6544,13.6544,13.6544,10.9833,10.981,10.9785,10.9785,10.9785,10.9861,10.9971,11.1212,11.2376,11.2528,11.5131,11.743,11.7506,11.8771,11.9717,11.9748,11.9715,11.9755,11.9755,11.9755,11.9661,11.9661,11.9736,11.9641,11.9641,12.1156,12.2216,12.2292,12.2387,12.3088,12.4678,12.4754,12.5512,12.7178,12.7254,12.803,12.96,12.9801,12.9858,12.9839,12.9839,12.9839,12.9839,12.9915,12.9991,12.9991,13.0067,13.0978,13.2495,13.2495,13.2495,13.2647,13.4316,13.3937,13.2723,13.4316,13.4924,13.4468,13.1205,13.0067,13.0067,13.0067,13.1044,13.2159,13.2374,13.3456,13.4559,13.41,13.402,13.4115,13.5025,13.5098,13.5432,13.7072,13.7445,13.7519,13.7519,13.7519,13.7594,13.7668,13.8861,13.9904,13.9904,14.126,14.2378,14.2378,14.2452,14.2452,14.2364,14.229,14.229,14.229,14.0873,14.0635,14.2318,13.9688,13.8624,14.0358,13.8937,13.804,13.7965,13.6544,13.5721,13.5572,13.4002,13.3254,13.3254,13.3254,13.3254,13.3254,13.3254,13.3254,10.7633,10.8164,10.8229,10.8205,10.9039,10.9785,10.9847,11.0302,11.106,11.2148,11.3299,11.4828,11.7027,11.7861,11.8607,11.9612,11.9731,11.9715,11.9755,11.9755,11.9755,11.9755,11.9755,11.9755,11.9755,12.0285,12.0664,12.0664,12.0664,12.1346,12.3012,12.3088,12.3845,12.5436,12.5512,12.6364,12.816,12.8177,12.8755,12.9818,12.9829,12.9839,12.9839,12.9839,12.9839,12.9839,12.9839,13.0219,13.075,13.075,13.075,13.0826,13.1433,13.1281,13.0826,13.1433,13.166,13.1509,13.0295,12.9839,12.9839,12.9839,13.0058,13.0398,13.0641,13.1571,13.2522,13.2333,13.2863,13.3507,13.3654,13.3748,13.3716,13.4333,13.4537,13.4591,13.4482,13.4427,13.4781,13.5751,13.631,13.7055,13.8157,13.8885,13.9649,14.0768,14.0062,13.9446,13.9446,13.9446,13.9446,13.9446,13.8848,13.8774,13.9426,13.7538,13.6566,13.7142,13.5647,13.4675,13.4675,13.4151,13.3852,13.3852,13.3254,13.2955,13.2955,13.2955,13.2955,13.2955,13.2955,13.2955,10.4543,10.5681,10.6364,10.5813,10.6951,10.8305,10.8824,10.8964,10.9482,11.1175,11.1933,11.3058,11.5257,11.6648,11.7773,11.8746,11.9352,11.9731,11.9755,11.9755,11.9755,11.9755,11.9755,11.9755,11.9755,11.9755,11.9755,11.9755,11.9755,12.0209,12.1346,12.1421,12.2179,12.3769,12.3845,12.4697,12.64,12.6417,12.7056,12.8189,12.8756,12.8994,12.908,12.9612,12.9839,12.9839,12.9839,12.9839,12.9839,12.9839,12.9839,12.9839,12.9839,12.9839,12.9839,12.9839,12.9839,12.9839,12.9839,12.9839,12.9839,12.9839,12.9679,12.947,12.9664,13.0091,13.0536,13.0408,13.1027,13.1763,13.2057,13.2132,13.2231,13.2702,13.2851,13.2903,13.2798,13.2798,13.3097,13.4143,13.4313,13.4631,13.5861,13.6533,13.728,13.84,13.8136,13.7441,13.632,13.617,13.617,13.617,13.617,13.617,13.617,13.5273,13.46,13.46,13.3628,13.2955,13.2955,13.2431,13.2132,13.2132,13.1609,13.131,13.131,13.0786,13.0487,13.0487,12.9889,12.9665,10.0699,10.2217,10.4342,10.2672,10.3583,10.5244,10.6819,10.7113,10.7644,10.9313,11.1035,11.2224,11.23,11.503,11.7291,11.7197,11.8578,11.9656,11.9773,11.9755,11.9755,11.9755,11.9755,11.9679,11.9603,11.9603,11.9603,11.9603,11.9603,11.9679,11.9679,11.9679,12.0512,12.2103,12.2179,12.2936,12.4527,12.4657,12.4782,12.4812,12.6445,12.7314,12.7487,12.9004,12.9687,12.9687,12.9763,12.9763,12.9763,12.9839,12.9839,12.9839,12.9839,12.9839,12.9839,12.9763,12.9763,12.9763,12.9763,12.9839,12.9839,12.9839,12.9679,12.945,12.945,12.9197,12.8844,12.8544,12.8504,12.8758,13.0036,13.0337,13.0786,13.2431,13.2805,13.2805,13.2805,13.2805,13.2805,13.288,13.288,13.288,13.2955,13.4301,13.5422,13.5422,13.6694,13.6544,13.3403,13.2955,13.2955,13.2955,13.2955,13.2955,13.2955,13.2955,13.288,13.288,13.288,13.2805,13.2805,13.1235,13.0337,13.0337,12.8842,12.8019,12.8019,12.63,12.5477,12.5477,12.3832,12.3084,9.8043,9.8802,9.9409,9.8878,10.1003,10.3279,10.3651,10.3794,10.423,10.5975,10.7558,10.9063,11.0329,11.2325,11.4524,11.6988,11.7746,11.8414,11.958,11.9731,11.9715,11.9755,11.9755,11.877,11.6346,11.6119,11.6061,11.6094,11.7231,11.7929,11.802,11.9096,11.993,12.0385,12.0461,12.1219,12.2887,12.2977,12.3598,12.4776,12.5243,12.5569,12.5741,12.6121,12.6349,12.6349,12.7639,12.817,12.8246,12.9384,12.9839,12.9839,12.9839,12.9839,12.9536,12.7183,12.7107,12.817,12.817,12.8929,12.9839,12.9839,12.9679,12.945,12.945,12.9197,12.8844,12.8544,12.8504,12.8533,12.8688,12.8767,12.8842,12.9291,12.944,12.944,12.944,12.944,12.9739,13.0936,13.116,13.1534,13.273,13.3329,13.3702,13.3702,13.4002,13.4002,13.3104,13.2955,13.2955,13.2955,13.2955,13.2955,13.2955,13.1833,13.116,13.116,13.0038,12.944,12.944,12.8991,12.8767,12.8767,12.7122,12.63,12.63,12.458,12.3757,12.3757,12.3308,12.3084,9.4022,9.4325,9.4325,9.4325,9.5767,9.774,9.9865,10.0312,10.0978,10.3414,10.5226,10.6799,10.8457,11.0125,11.2173,11.4865,11.5864,11.6912,11.8459,11.808,11.7913,11.8578,11.7517,11.6136,11.4831,11.468,11.4697,11.467,11.5579,11.6201,11.6319,11.7229,11.8063,11.8745,11.8745,11.9579,12.1172,12.1248,12.1716,12.274,12.3498,12.39,12.392,12.4679,12.4983,12.5058,12.6045,12.65,12.65,12.7411,12.779,12.779,12.779,12.779,12.7563,12.5666,12.559,12.65,12.65,12.7031,12.779,12.779,12.7747,12.7587,12.7424,12.7609,12.7832,12.749,12.7857,12.8319,12.8117,12.8094,12.8094,12.8094,12.8094,12.8094,12.8094,12.8094,12.8393,12.9291,12.944,12.9739,13.0786,13.1459,13.1684,13.101,13.0936,13.0936,13.0936,13.0936,13.0936,13.0936,13.0936,13.0936,13.0936,13.0038,12.944,12.944,12.8618,12.7795,12.7047,12.7047,12.6748,12.6,12.5028,12.4505,12.4505,12.286,12.2037,12.2037,12.1364,12.099,8.8406,8.8634,8.8861,8.8861,8.9165,9.0607,0.0,9.6146,9.7209,10.0396,10.2504,10.4306,10.5899,10.7698,10.9633,11.1729,11.3348,11.4941,11.6731,11.5503,11.4821,11.5958,11.3533,11.2305,11.3712,11.4015,11.4183,11.4139,11.4291,11.4457,11.4575,11.4802,11.5561,11.709,11.709,11.7773,11.9214,11.9214,11.9226,11.9402,12.1082,12.1927,12.1947,12.3617,12.4451,12.4451,12.4451,12.4527,12.4679,12.4907,12.4983,12.4983,12.4983,12.4755,12.4451,12.4451,12.4527,12.4679,12.4679,12.4831,12.4983,12.4983,12.4983,12.4886,12.4505,12.5264,12.6172,12.5797,12.6594,12.7496,12.7496,12.7496,12.7571,12.7795,12.7795,12.787,12.8019,12.8094,12.8094,12.8094,12.8094,12.8094,12.8094,12.9216,12.959,12.8019,12.7945,12.8094,12.8094,12.8094,12.8094,12.8094,12.8094,12.8094,12.8094,12.8094,12.8019,12.7795,12.7795,12.7047,12.5327,12.5253,12.458,12.3084,12.286,12.2785,12.2832,12.1261,12.0438,12.0409,11.8942,11.8149,0.0,0.0,0.0,0.0,0.0,0.0,0.0,8.8406,9.0,9.1973,9.478,9.7345,9.8996,10.1793,10.5271,10.9633,11.0543,11.1845,11.4865,11.3879,11.1908,10.9482,10.8648,10.842,10.871,10.9971,11.0804,11.0771,11.2032,11.2804,11.2867,11.4157,11.5002,11.5402,11.5402,11.5554,11.5782,11.5858,11.5858,11.5867,11.7612,11.8381,11.8456,12.0126,12.0961,12.0961,12.0961,12.172,12.3085,12.4451,12.4983,12.4983,12.4983,12.3313,12.0961,12.0961,12.1795,12.2934,12.2934,12.3844,12.4983,12.4983,12.4983,12.4886,12.4505,12.4432,12.4466,12.4179,12.4044,12.4056,12.4056,12.4056,12.4355,12.5776,12.6075,12.6449,12.7795,12.8094,12.8094,12.8094,12.8094,12.8094,12.8094,12.8319,12.7945,12.63,12.7197,12.8094,12.8094,12.8094,12.8094,12.8094,12.8094,12.8094,12.8094,12.8094,12.7496,12.615,12.6075,12.5327,12.3608,12.3533,12.3383,12.3084,12.1813,12.1247,12.1471,11.9599,11.8775,11.8992,11.8401,11.8149,0.0,0.0,0.0,0.0,0.0,0.0,0.0,0.0,0.0,0.0,0.0,9.2193,9.5524,0.0,10.1262,10.5423,10.6777,10.8205,11.0708,10.9646,10.7978,10.6333,10.6105,10.6094,10.6006,10.6815,10.7662,10.8532,10.933,11.0253,11.1154,11.1902,11.2737,11.36,11.36,11.4055,11.489,11.489,11.489,11.489,11.5725,11.618,11.618,11.7925,11.8684,11.8684,11.9595,12.0429,12.1264,12.2099,12.2478,12.2251,12.0581,11.8912,11.747,11.8381,11.9215,12.005,12.0885,12.1795,12.2478,12.2478,12.2478,12.2393,12.2247,12.2478,12.273,12.2576,12.2784,12.3084,12.3084,12.3084,12.3308,12.4131,12.4281,12.458,12.5402,12.5552,12.5552,12.5552,12.5552,12.5552,12.5552,12.5552,12.5253,12.443,12.5028,12.5552,12.5552,12.5552,12.5926,12.6748,12.6823,12.6823,12.6823,12.6823,12.615,12.443,12.4281,12.3608,12.1962,12.1888,12.1514,12.0616,11.9942,11.9741,11.9857,11.8915,11.8464,11.8578,11.6774,11.5897,0.0,0.0,0.0,0.0,0.0,0.0,0.0,0.0,0.0,0.0,0.0,0.0,0.0,0.0,0.0,10.0817,10.2768,10.4577,10.6549,10.4805,10.3375,10.3462,10.4079,10.4306,10.3895,10.4414,10.5487,10.7189,10.7004,10.7622,10.9418,10.9399,11.0006,11.1399,11.1703,11.2537,11.3903,11.3979,11.3979,11.3979,11.4207,0.0,11.4435,11.618,11.6939,11.7015,11.8381,11.8988,11.8988,11.8988,11.8988,11.8684,11.5952,11.489,11.5042,11.6408,11.6939,11.7091,11.8456,11.9215,11.9443,11.9443,11.9671,11.9974,11.9974,12.0437,0.0,12.1105,12.1548,12.2112,12.213,12.2159,12.2187,12.2561,12.2635,12.271,12.3009,12.3084,12.3084,12.3084,12.3084,12.3084,12.3084,12.2785,12.2635,12.2635,12.286,12.3084,12.3084,12.3084,12.3608,12.4954,12.5103,12.5103,12.5103,12.5402,12.4879,12.3159,12.3084,12.2233,12.0379,12.0304,11.9524,11.7887,11.8054,11.8042,11.7807,11.774,11.7706,11.7631,11.4662,11.2983,0.0,0.0,0.0,0.0,0.0,0.0,0.0,0.0,0.0,0.0,0.0,0.0,0.0,0.0,0.0,0.0,9.9366,10.1565,10.4751,10.1186,9.8237,9.8237,10.0911,10.2141,10.0616,10.3178,10.5585,10.7189,10.5867,10.5791,10.7492,10.7568,0.0,0.0,0.0,11.0337,11.0564,11.0564,11.0564,11.0564,11.2006,11.2613,11.2689,11.4359,11.5193,11.5193,11.5345,11.5421,11.5421,11.5421,11.5421,11.5421,11.5042,11.489,11.489,11.5118,11.5193,11.5193,11.5421,0.0,0.0,11.7698,11.8684,11.9974,11.9974,11.9621,11.9292,11.9656,11.9303,11.8762,11.9029,11.8903,11.9121,12.0616,12.099,12.1364,12.2785,12.3084,12.3084,12.3084,12.3084,12.3084,12.3084,12.1888,12.099,12.099,12.2187,12.3084,12.3084,12.3084,12.3159,12.3308,12.3383,0.0,12.3383,12.4729,12.4879,12.3159,12.3084,12.1771,11.8955,11.8805,11.8198,11.6861,11.6815,11.6195,11.4984,11.4759,11.4626,11.4579,11.2664,11.0908,0.0,0.0,0.0,0.0,0.0,0.0,0.0,0.0,0.0,0.0,0.0,0.0,0.0,0.0,0.0,0.0,9.3846,9.6037,9.7496,9.7572,9.7421,9.7421,9.9477,10.0699,10.0016,10.1223,10.2732,10.4325,10.3851,10.4144,10.5842,10.5909,10.5985,10.6011,10.6694,10.7074,10.7074,10.806,10.8516,10.8591,10.9974,11.0808,11.102,11.2552,11.3235,11.3448,11.4435,11.489,11.489,11.489,11.489,11.4501,0.0,0.0,0.0,0.0,11.0337,11.231,11.4207,11.5345,11.6104,11.7091,11.7925,11.8684,11.9671,11.947,11.8964,11.9166,11.8719,11.8194,11.8336,11.8208,11.8373,11.9046,11.9196,11.942,12.0093,12.0243,12.0243,12.0243,12.0243,0.0,12.0243,11.9644,11.9196,11.9196,11.9794,12.0243,12.0243,12.0243,12.0616,12.1589,12.1663,12.1663,12.1663,12.2336,0.0,0.0,0.0,11.966,11.8453,11.7527,0.0,0.0,0.0,11.5115,11.4511,11.4359,0.0,0.0,10.5467,10.4155,0.0,0.0,0.0,0.0,0.0,0.0,0.0,0.0,0.0,0.0,0.0,0.0,0.0,0.0,0.0,0.0,8.8847,9.0887,9.0455,9.2883,9.4704,9.4704,9.6905,9.8195,9.7285,9.8423,9.9941,10.161,10.1745,10.2276,10.3507,10.3566,10.3566,10.3583,10.4038,10.4494,10.4949,10.6137,10.6734,10.6734,10.7576,10.8166,10.842,10.9378,10.9924,11.0177,11.139,11.1921,11.1921,11.1921,11.1921,11.1529,10.6937,10.5143,10.5237,10.5878,10.7662,11.0101,11.2564,11.3713,11.4319,11.5564,11.6332,11.6939,11.8153,11.814,11.7756,11.7781,11.7322,11.7053,11.7502,11.7565,11.7625,11.8074,11.8149,11.8149,11.8149,11.8149,11.8149,11.8149,11.7775,11.7625,11.8074,11.8149,11.8149,11.8149,11.8149,11.8149,11.8149,11.8149,11.8672,11.9869,12.0018,12.0018,12.0018,12.0392,11.9943,11.8298,11.8597,11.8448,11.7551,11.6664,11.5504,11.4153,11.3944,11.323,0.0,0.0,0.0,0.0,0.0,0.0,0.0,0.0,0.0,0.0,0.0,0.0,0.0,0.0,0.0,0.0,0.0,0.0,0.0,0.0,0.0,0.0,0.0,0.0,8.5447,8.6661,8.7799,8.7799,9.2049,9.3794,9.0607,9.4629,9.8195,9.9865,10.0016,10.0016,10.0092,10.0092,10.0092,10.0092,10.1686,10.3279,10.4949,10.4768,10.4697,10.4697,10.4442,10.4333,10.4333,10.4409,10.4409,10.4409,10.4485,10.4485,10.4485,10.4485,10.4485,10.4636,10.6123,10.6652,10.6803,10.8389,10.8993,10.9093,10.9477,11.0682,11.2062,11.2433,11.36,11.4966,11.5042,11.4878,11.4662,11.4604,11.4255,11.4257,11.5836,11.6019,11.613,11.7775,11.8149,11.8149,11.8149,11.8149,11.8149,11.8149,11.6878,11.6279,11.7924,11.8149,11.8149,11.8149,11.8149,0.0,11.8149,11.8149,11.8224,11.8224,11.8224,11.8224,11.8224,11.9719,11.9943,11.8298,11.9719,11.9121,11.5905,11.631,11.5814,11.4179,11.3017,11.0033,10.5244,0.0,0.0,0.0,0.0,0.0,0.0,0.0,0.0,0.0,0.0,0.0,0.0,0.0,0.0,0.0,0.0,0.0,0.0,0.0,0.0,0.0,0.0,0.0,0.0,8.2335,8.4536,8.5674,8.8254,9.0,9.0,9.2504,9.4401,9.5008,9.5995,9.7057,9.8195,9.8271,9.8171,9.8097,9.8703,9.8589,9.7893,10.0018,10.1114,10.1114,10.3055,10.3983,10.4159,10.4059,10.4059,10.4159,10.4159,10.4159,10.4159,10.4159,10.1393,9.7433,10.0426,10.0859,10.0133,10.1798,10.3229,10.4159,10.4249,10.5404,10.7013,10.8228,10.9022,10.9704,11.0764,11.0977,11.0977,11.2033,11.2071,11.2151,11.3874,11.424,11.426,11.4859,11.4933,11.4933,11.4933,11.4933,11.5307,11.6354,11.426,11.3288,11.6055,11.5681,11.5681,11.785,11.7251,11.6952,11.8074,11.8149,11.8149,11.8149,11.8149,11.8149,11.8149,11.8672,11.8747,11.8224,11.7625,11.6878,11.5681,11.304,11.1888,11.2442,10.8965,10.6473,10.4949,0.0,0.0,0.0,0.0,0.0,0.0,0.0,0.0,0.0,0.0,0.0,0.0,0.0,0.0,0.0,0.0,0.0,0.0,0.0,0.0,0.0,0.0,0.0,0.0,0.0,0.0,8.3807,8.4869,0.0,8.7192,8.8254,8.9165,8.9772,9.0758,9.2034,9.3667,9.3743,9.4242,9.5379,9.5319,9.5269,9.5215,9.7241,9.8302,9.8278,10.0156,10.0802,10.0407,10.0169,10.02,10.0407,10.0407,10.0407,10.0482,10.1688,9.9179,9.4729,9.7057,9.6952,9.5786,9.7447,9.8755,9.9836,10.0332,10.1291,10.2527,10.3583,10.4036,10.4281,10.5338,10.5596,10.5755,10.7214,10.7504,10.7955,11.0115,11.0671,11.0821,11.1419,11.2017,11.2466,11.2466,11.2466,11.2391,11.2241,11.0521,10.9923,11.254,11.3213,11.3812,11.5307,11.5606,11.6055,11.7102,11.7251,11.7551,11.8149,11.8149,11.8149,11.8149,11.7625,11.7251,11.7251,11.5756,11.4304,11.32,11.047,10.8742,10.818,10.4151,10.2075,0.0,0.0,0.0,0.0,0.0,0.0,0.0,0.0,0.0,0.0,0.0,0.0,0.0,0.0,0.0,0.0,0.0,0.0,0.0,0.0,0.0,0.0,0.0,0.0,0.0,0.0,0.0,8.1793,8.1806,0.0,0.0,0.0,0.0,8.446,8.4612,8.5333,8.6743,8.6881,8.8396,9.1715,9.1643,9.3136,9.6546,9.6292,9.6171,9.6171,9.5969,9.5117,9.3622,9.3622,9.3696,9.3771,9.3771,9.3771,9.3996,9.6874,9.7277,9.6066,9.5886,9.5081,9.3979,9.5298,9.5735,9.5974,9.7507,9.8245,9.8457,9.8532,9.8755,9.8894,9.884,9.884,0.0,0.0,10.0908,10.1597,10.4732,10.5586,10.596,10.753,10.9175,11.0447,11.0447,11.0447,10.9475,10.6184,10.5511,10.6035,10.7829,0.0,11.2391,11.097,11.3438,11.5382,11.5382,11.5457,11.613,11.7775,11.7924,11.7924,11.7924,11.6504,11.5532,11.5532,11.3961,11.1736,10.8735,10.863,10.6472,10.1998,9.8738,0.0,0.0,0.0,0.0,0.0,0.0,0.0,0.0,0.0,0.0,0.0,0.0,0.0,0.0,0.0,0.0,0.0,0.0,0.0,0.0,0.0,0.0,0.0,0.0,0.0,0.0,7.3222,7.4462,7.8007,7.7477,7.6852,0.0,0.0,0.0,0.0,0.0,0.0,8.3521,8.3588,8.496,8.7977,8.7995,8.8879,9.0747,9.1914,9.2489,9.2489,9.3583,9.4594,9.5416,9.5416,9.6089,9.7211,9.7211,9.7211,9.6949,9.2963,9.1198,9.0907,9.0992,9.0788,9.0328,8.9482,8.9157,8.9334,9.0793,9.1363,9.1602,9.2909,9.3342,9.3225,9.2116,0.0,0.0,0.0,0.0,9.6234,9.9567,10.0426,10.0875,10.2445,10.4091,10.5287,10.5287,10.5287,10.4315,10.1099,9.9454,10.0277,10.5586,10.6184,0.0,11.0297,11.1494,11.2017,11.2017,11.3139,11.4111,11.4559,11.4559,11.4559,11.4559,11.4186,11.3961,11.3961,11.1194,10.9217,10.8441,10.4069,10.1115,9.9898,0.0,0.0,0.0,0.0,0.0,0.0,0.0,0.0,0.0,0.0,0.0,0.0,0.0,0.0,0.0,0.0,0.0,0.0,0.0,0.0,0.0,0.0,0.0,0.0,0.0,0.0,0.0,6.9956,7.1521,7.3524,7.2391,7.2094,0.0,0.0,0.0,0.0,0.0,0.0,0.0,0.0,0.0,8.3552,8.4219,8.4906,8.5721,8.728,8.8402,8.9151,9.0625,9.1827,9.2799,9.2799,9.3323,9.422,9.422,9.3877,9.3005,8.9336,8.7527,8.7007,0.0,0.0,0.0,0.0,8.3593,8.3709,8.4462,8.4667,8.4968,8.6649,0.0,0.0,0.0,0.0,0.0,0.0,0.0,9.1977,9.4594,9.579,9.6538,9.7435,9.8931,10.0202,10.0202,9.7884,9.5267,9.3472,9.3547,9.5342,9.9753,10.1548,0.0,0.0,0.0,10.8876,10.9624,11.0521,11.1643,11.3139,11.3363,11.3363,11.3363,11.2615,11.1867,11.1194,10.8652,10.6344,10.431,10.0236,9.7102,0.0,0.0,0.0,0.0,0.0,0.0,0.0,0.0,0.0,0.0,0.0,0.0,0.0,0.0,0.0,0.0,0.0,0.0,0.0,0.0,0.0,0.0,0.0,0.0,0.0,0.0,0.0,0.0,0.0,6.975,6.8821,0.0,0.0,0.0,0.0,0.0,0.0,0.0,0.0,0.0,0.0,0.0,0.0,0.0,8.0913,8.0967,8.2729,8.4388,8.5891,8.7085,8.7739,8.7771,8.7771,8.7963,8.8338,8.7673,0.0,8.6069,8.547,0.0,0.0,0.0,0.0,0.0,0.0,0.0,0.0,0.0,0.0,0.0,0.0,0.0,0.0,0.0,0.0,0.0,0.0,0.0,0.0,0.0,0.0,9.2126,9.1977,9.3472,9.4818,9.3921,8.921,8.5172,8.5172,8.7714,9.0406,0.0,0.0,0.0,0.0,0.0,0.0,10.6558,10.7231,10.8802,11.2017,11.2391,11.2391,11.2391,11.097,10.94,10.7755,10.596,10.312,9.8931,9.692,0.0,0.0,0.0,0.0,0.0,0.0,0.0,0.0,0.0,0.0,0.0,0.0,0.0,0.0,0.0,0.0,0.0,0.0,0.0,0.0,0.0,0.0,0.0,0.0,0.0,0.0,0.0,0.0,0.0,0.0,0.0,0.0,0.0,0.0,0.0,0.0,0.0,0.0,0.0,0.0,0.0,0.0,0.0,0.0,0.0,0.0,0.0,0.0,0.0,0.0,8.2712,8.2836,8.3007,8.3007,8.4442,8.6643,8.2318,8.1959,8.409,8.0088,0.0,0.0,0.0,0.0,0.0,0.0,0.0,0.0,0.0,0.0,0.0,0.0,0.0,0.0,0.0,0.0,0.0,0.0,0.0,0.0,0.0,0.0,8.5097,8.3751,8.6742,8.8387,8.2928,0.0,0.0,0.0,0.0,0.0,0.0,0.0,0.0,0.0,0.0,0.0,9.8482,10.1698,10.5063,10.7007,10.7231,10.7231,10.7231,10.6932,10.6035,10.439,10.1473,9.8856,0.0,0.0,0.0,0.0,0.0,0.0,0.0,0.0,0.0,0.0,0.0,0.0,0.0,0.0,0.0,0.0,0.0,0.0,0.0,0.0,0.0,0.0,0.0,0.0,0.0,0.0,0.0,0.0,0.0,0.0,0.0,0.0,0.0,0.0,0.0,0.0,0.0,0.0,0.0,0.0,0.0,0.0,0.0,0.0,0.0,0.0,0.0,0.0,0.0,0.0,0.0,0.0,0.0,0.0,0.0,0.0,0.0,0.0,7.7963,7.4872,0.0,0.0,0.0,0.0,0.0,0.0,0.0,0.0,0.0,0.0,0.0,0.0,0.0,0.0,0.0,0.0,0.0,0.0,0.0,0.0,0.0,0.0,0.0,0.0,0.0,0.0,0.0,0.0,0.0,0.0,0.0,0.0,0.0,0.0,0.0,0.0,0.0,0.0,0.0,0.0,9.6089,9.9604,10.2745,10.4464,10.4614,10.4614,10.4614,10.4614,10.3567,10.1025,9.9454,0.0,0.0,0.0,0.0,0.0,0.0,0.0,0.0,0.0,0.0,0.0,0.0,0.0,0.0,0.0,0.0,0.0,0.0,0.0,0.0,0.0,0.0,0.0,0.0,0.0,0.0,0.0,0.0,0.0,0.0,0.0,0.0,0.0,0.0,0.0,0.0,0.0,0.0,0.0,0.0,0.0,0.0,0.0,0.0,0.0,0.0,0.0,0.0,0.0,0.0,0.0,0.0,0.0,0.0,0.0,0.0,0.0,0.0,0.0,7.3329,6.878,0.0,0.0,0.0,0.0,0.0,0.0,0.0,0.0,0.0,0.0,0.0,0.0,0.0,0.0,0.0,0.0,0.0,0.0,0.0,0.0,0.0,0.0,0.0,0.0,0.0,0.0,0.0,0.0,0.0,0.0,0.0,0.0,0.0,0.0,0.0,0.0,0.0,0.0,0.0,0.0,9.3771,9.7361,10.0651,10.267,10.2894,10.2894,10.2894,10.2595,10.1099,9.8183,9.6987,0.0,0.0,0.0,0.0,0.0,0.0,0.0,0.0,0.0,0.0,0.0,0.0,0.0,0.0,0.0,0.0,0.0,0.0,0.0,0.0,0.0,0.0,0.0,0.0,0.0,0.0,0.0,0.0,0.0,0.0,0.0,0.0,0.0,0.0,0.0,0.0,0.0,0.0,0.0,0.0,0.0,0.0,0.0,0.0,0.0,0.0,0.0,0.0,0.0,0.0,0.0,0.0,0.0,0.0,0.0,0.0,0.0,0.0,0.0,0.0,0.0,0.0,0.0,0.0,0.0,0.0,0.0,0.0,0.0,0.0,0.0,0.0,0.0,0.0,0.0,0.0,0.0,0.0,0.0,0.0,0.0,0.0,0.0,0.0,0.0,0.0,0.0,0.0,0.0,0.0,0.0,0.0,0.0,0.0,0.0,0.0,0.0,0.0,0.0,0.0,0.0,8.7191,9.2575,9.766,10.08,10.1099,10.1099,10.1099,9.9828,9.8183,9.6388,0.0,0.0,0.0,0.0,0.0,0.0,0.0,0.0,0.0,0.0,0.0,0.0,0.0,0.0,0.0,0.0,0.0,0.0,0.0,0.0,0.0,0.0,0.0,0.0,0.0,0.0,0.0,0.0,0.0,0.0,0.0,0.0,0.0,0.0,0.0,0.0,0.0,0.0,0.0,0.0,0.0,0.0,0.0,0.0,0.0,0.0,0.0,0.0,0.0,0.0,0.0,0.0,0.0,0.0,0.0,0.0,0.0,0.0,0.0,0.0,0.0,0.0,0.0,0.0,0.0,0.0,0.0,0.0,0.0,0.0,0.0,0.0,0.0,0.0,0.0,0.0,0.0,0.0,0.0,0.0,0.0,0.0,0.0,0.0,0.0,0.0,0.0,0.0,0.0,0.0,0.0,0.0,0.0,0.0,0.0,0.0,0.0,0.0,0.0,0.0,0.0,0.0,8.4798,9.0481,9.5416,9.7734,9.7061,9.6837,9.7884,9.6463,9.3996,9.0257,0.0,0.0,0.0,0.0,0.0,0.0,0.0,0.0,0.0,0.0,0.0,0.0,0.0,0.0,0.0,0.0,0.0,0.0,0.0,0.0,0.0,0.0,0.0,0.0,0.0,0.0,0.0,0.0,0.0,0.0,0.0,0.0,0.0,0.0,0.0,0.0,0.0,0.0,0.0,0.0,0.0,0.0,0.0,0.0,0.0,0.0,0.0,0.0,0.0,0.0,0.0,0.0,0.0,0.0,0.0,0.0,0.0,0.0,0.0,0.0,0.0,0.0,0.0,0.0,0.0,0.0,0.0,0.0,0.0,0.0,0.0,0.0,0.0,0.0,0.0,0.0,0.0,0.0,0.0,0.0,0.0,0.0,0.0,0.0,0.0,0.0,0.0,0.0,0.0,0.0,0.0,0.0,0.0,0.0,0.0,0.0,0.0,0.0,0.0,0.0,0.0,0.0,8.3078,8.8761,9.3472,9.5117,9.422,9.3996,9.5192,9.3771,9.093,8.6368,0.0,0.0,0.0,0.0,0.0,0.0,0.0,0.0,0.0,0.0,0.0,0.0,0.0,0.0,0.0,0.0,0.0,0.0,0.0,0.0,0.0,0.0,0.0,0.0,0.0,0.0,0.0,0.0,0.0,0.0,0.0,0.0,0.0,0.0,0.0,0.0,0.0,0.0,0.0,0.0,0.0,0.0,0.0,0.0,0.0,0.0,0.0,0.0,0.0,0.0,0.0,0.0,0.0,0.0,0.0,0.0,0.0,0.0,0.0,0.0,0.0,0.0,0.0,0.0,0.0,0.0,0.0,0.0,0.0,0.0,0.0,0.0,0.0,0.0,0.0,0.0,0.0,0.0,0.0,0.0,0.0,0.0,0.0,0.0,0.0,0.0,0.0,0.0,0.0,0.0,0.0,0.0,0.0,0.0,0.0,0.0,0.0,0.0,0.0,0.0,0.0,0.0,8.1283,8.7116,9.1827,9.3397,9.3547,9.3472,9.3547,9.2126,8.9733,0.0,0.0,0.0,0.0,0.0,0.0,0.0,0.0,0.0,0.0,0.0,0.0,0.0,0.0,0.0,0.0,0.0,0.0,0.0,0.0,0.0,0.0,0.0,0.0,0.0,0.0,0.0,0.0,0.0,0.0,0.0,0.0,0.0,0.0,0.0,0.0,0.0,0.0,0.0,0.0,0.0,0.0,0.0,0.0,0.0,0.0,0.0,0.0,0.0,0.0,0.0,0.0,0.0,0.0,0.0,0.0,0.0,0.0,0.0,0.0,0.0,0.0,0.0,0.0,0.0,0.0,0.0,0.0,0.0,0.0,0.0,0.0,0.0,0.0,0.0,0.0,0.0,0.0,0.0,0.0,0.0,0.0,0.0,0.0,0.0,0.0,0.0,0.0,0.0,0.0,0.0,0.0,0.0,0.0,0.0,0.0,0.0,0.0,0.0,0.0,0.0,0.0,0.0,7.9264,8.3377,8.7639,9.1528,9.0855,9.0631,9.1827,8.9359,8.5845,8.1358,0.0,0.0,0.0,0.0,0.0,0.0,0.0,0.0,0.0,0.0,0.0,0.0,0.0,0.0,0.0,0.0,0.0,0.0,0.0,0.0,0.0,0.0,0.0,0.0,0.0,0.0,0.0,0.0,0.0,0.0,0.0,0.0,0.0,0.0,0.0,0.0,0.0,0.0,0.0,0.0,0.0,0.0,0.0,0.0,0.0,0.0,0.0,0.0,0.0,0.0,0.0,0.0,0.0,0.0,0.0,0.0,0.0,0.0,0.0,0.0,0.0,0.0,0.0,0.0,0.0,0.0,0.0,0.0,0.0,0.0,0.0,0.0,0.0,0.0,0.0,0.0,0.0,0.0,0.0,0.0,0.0,0.0,0.0,0.0,0.0,0.0,0.0,0.0,0.0,0.0,0.0,0.0,0.0,0.0,0.0,0.0,0.0,0.0,0.0,0.0,0.0,0.0,0.0,8.1807,8.5845,8.8911,8.8911,8.8836,8.921,8.734,8.3751,7.8217,0.0,0.0,0.0,0.0,0.0,0.0,0.0,0.0,0.0,0.0,0.0,0.0,0.0,0.0,0.0,0.0,0.0,0.0,0.0,0.0,0.0,0.0,0.0,0.0,0.0,0.0,0.0,0.0,0.0,0.0,0.0,0.0,0.0,0.0,0.0,0.0,0.0,0.0,0.0,0.0,0.0,0.0,0.0,0.0,0.0,0.0,0.0,0.0,0.0,0.0,0.0,0.0,0.0,0.0,0.0,0.0,0.0,0.0,0.0,0.0,0.0,0.0,0.0,0.0,0.0,0.0,0.0,0.0,0.0,0.0,0.0,0.0,0.0,0.0,0.0,0.0,0.0,0.0,0.0,0.0,0.0,0.0,0.0,0.0,0.0,0.0,0.0,0.0,0.0,0.0,0.0,0.0,0.0,0.0,0.0,0.0,0.0,0.0,0.0,0.0,0.0,0.0,0.0,8.1882,8.5695,8.592,8.734,8.7639,8.6069,8.5845,8.3078,7.6797,7.6273,0.0,0.0,0.0,0.0,0.0,0.0,0.0,0.0,0.0,0.0,0.0,0.0,0.0,0.0,0.0,0.0,0.0,0.0,0.0,0.0,0.0,0.0,0.0,0.0,0.0,0.0,0.0,0.0,0.0,0.0,0.0,0.0,0.0,0.0,0.0,0.0,0.0,0.0,0.0,0.0,0.0,0.0,0.0,0.0,0.0,0.0,0.0,0.0,0.0,0.0,0.0,0.0,0.0,0.0,0.0,0.0,0.0,0.0,0.0,0.0,0.0,0.0,0.0,0.0,0.0,0.0,0.0,0.0,0.0,0.0,0.0,0.0,0.0,0.0,0.0,0.0,0.0,0.0,0.0,0.0,0.0,0.0,0.0,0.0,0.0,0.0,0.0,0.0,0.0,0.0,0.0,0.0,0.0,0.0,0.0,0.0,0.0,0.0,0.0,0.0,0.0,0.0,7.9533,8.1433,8.405,8.4723,8.4798,8.4349,8.3153,8.0685,7.6647,7.5152,0.0,0.0,0.0,0.0,0.0,0.0,0.0,0.0,0.0,0.0,0.0,0.0,0.0,0.0,0.0,0.0,0.0,0.0,0.0,0.0,0.0,0.0,0.0,0.0,0.0,0.0,0.0,0.0,0.0,0.0,0.0,0.0,0.0,0.0,0.0,0.0,0.0,0.0,0.0,0.0,0.0,0.0,0.0,0.0,0.0,0.0,0.0,0.0,0.0,0.0,0.0,0.0,0.0,0.0,0.0,0.0,0.0,0.0,0.0,0.0,0.0,0.0,0.0,0.0,0.0,0.0,0.0,0.0,0.0,0.0,0.0,0.0,0.0,0.0,0.0,0.0,0.0,0.0,0.0,0.0,0.0,0.0,0.0,0.0,0.0,0.0,0.0,0.0,0.0,0.0,0.0,0.0,0.0,0.0,0.0,0.0,0.0,0.0,0.0,0.0,0.0,0.0,7.6019,7.8068,8.2181,8.3302,8.3452,8.2704,8.1807,7.9563,7.5525,7.4404,0.0,0.0,0.0,0.0,0.0,0.0,0.0,0.0,0.0,0.0,0.0,0.0,0.0,0.0,0.0,0.0,0.0,0.0,0.0,0.0,0.0,0.0,0.0,0.0,0.0,0.0,0.0,0.0,0.0,0.0,0.0,0.0,0.0,0.0,0.0,0.0,0.0,0.0,0.0,0.0,0.0,0.0,0.0,0.0,0.0,0.0,0.0,0.0,0.0,0.0,0.0,0.0,0.0,0.0,0.0,0.0,0.0,0.0,0.0,0.0,0.0,0.0,0.0,0.0,0.0,0.0,0.0,0.0,0.0,0.0,0.0,0.0,0.0,0.0,0.0,0.0,0.0,0.0,0.0,0.0,0.0,0.0,0.0,0.0,0.0,0.0,0.0,0.0,0.0,0.0,0.0,0.0,0.0,0.0,0.0,0.0,0.0,0.0,0.0,0.0,0.0,0.0,0.0,7.5766,8.0056,8.1999,8.2373,8.0953,8.0878,7.886,7.4179,0.0,0.0,0.0,0.0,0.0,0.0,0.0,0.0,0.0,0.0,0.0,0.0,0.0,0.0,0.0,0.0,0.0,0.0,0.0,0.0,0.0,0.0,0.0,0.0,0.0,0.0,0.0,0.0,0.0,0.0,0.0,0.0,0.0,0.0,0.0,0.0,0.0,0.0,0.0,0.0,0.0,0.0,0.0,0.0,0.0,0.0,0.0,0.0,0.0,0.0,0.0,0.0,0.0,0.0,0.0,0.0,0.0,0.0,0.0,0.0,0.0,0.0,0.0,0.0,0.0,0.0,0.0,0.0,0.0,0.0,0.0,0.0,0.0,0.0,0.0,0.0,0.0,0.0,0.0,0.0,0.0,0.0,0.0,0.0,0.0,0.0,0.0,0.0,0.0,0.0,0.0,0.0,0.0,0.0,0.0,0.0,0.0,0.0,0.0,0.0,0.0,0.0,0.0,0.0,7.6027,7.69,7.8403,7.9298,7.9139,7.9096,7.7633,7.4105,0.0,0.0,0.0,0.0,0.0,0.0,0.0,0.0,0.0,0.0,0.0,0.0,0.0,0.0]}],[{"header":{"parameterUnit":"kt","parameterCategory":2,"dx":1,"dy":1,"la1":29.285339999999998,"la2":30.599998999999997,"lo1":-89.70041500000002,"lo2":-87.6738589999976,"nx":112,"ny":82,"refTime":"2022-09-26T12:00:00:Z","depth":0,"parameterNumber":2,"parameterNumberName":"V-component_of_WINDS"},"data":[-2.7972,-2.5765,-2.3744,-2.3184,-2.2481,-2.1771,-2.1237,-2.0464,-2.0029,-1.9996,-1.97,-1.9173,-1.9007,-1.8666,-1.8078,-1.7592,-1.7206,-1.6864,0.0,-1.6627,-1.7006,-1.8113,-1.9655,-2.1895,-2.4797,-2.5906,-2.668,-2.7501,-2.799,-2.8038,-2.7281,-2.7265,-2.7109,-2.7027,-2.6953,-2.7125,-2.6967,-2.8117,-2.8772,-2.9209,-2.9235,-2.9095,-2.9095,-3.1531,-3.1182,-2.9298,-2.9123,-3.1709,-3.6469,-4.4524,-4.7808,-4.7837,-4.7785,-4.7733,-4.7707,-4.7733,-4.8384,-4.9607,-4.9526,-4.9499,-4.9499,-5.0775,-5.1115,-5.0803,-5.0463,-5.0435,-5.0858,-5.204,-5.2524,-5.3038,-5.4375,-5.5125,-5.5381,-5.5751,-5.6007,-5.6149,-5.6149,-5.6149,-5.6149,-5.6149,-5.6149,-5.6149,-5.6149,-5.6149,-5.6149,-5.6149,-5.6149,-5.6149,-5.6149,-5.6149,-5.6149,-5.6149,-5.6149,-5.6149,-5.6149,-5.6149,-5.6149,-5.6149,-5.6149,-5.6149,-5.6149,-5.6149,-5.6149,-5.6149,-5.6149,-5.6554,-5.7048,-5.661,-5.8022,-6.0683,-6.062,-6.1676,-2.5054,-2.3002,-2.1226,-2.2661,-2.2001,-2.1077,-2.0358,-1.9703,-1.907,-1.9171,-1.8881,-1.8473,-1.7774,-1.7734,-1.7536,-1.6772,-1.7099,-1.7193,0.0,-1.7099,-1.7835,-1.9179,-2.1037,-2.3252,-2.6001,-2.6986,-2.7528,-2.799,-2.7927,-2.7609,-2.6983,-2.714,-2.7031,-2.6922,-2.714,-2.7375,-2.7609,-2.8676,-2.9257,-2.9075,-2.9282,-2.9095,-2.9095,-2.9095,-2.9095,-2.908,-2.9282,-2.9123,-3.0172,-4.2625,-4.7802,-4.7756,-4.7756,-4.7941,-4.7811,-4.7915,-4.7941,-4.7915,-4.7733,-4.7681,-4.7993,-4.8982,-4.9294,-4.9294,-4.9294,-4.9741,-5.0271,-5.1256,-5.225,-5.3042,-5.4445,-5.511,-5.5666,-5.6064,-5.6149,-5.6149,-5.6149,-5.6149,-5.6149,-5.6149,-5.6149,-5.6149,-5.6149,-5.6149,-5.6149,-5.6149,-5.6149,-5.6149,-5.6149,-5.6149,-5.6149,-5.6149,-5.6149,-5.6149,-5.6149,-5.6149,-5.6149,-5.6149,-5.6149,-5.6149,-5.6149,-5.6149,-5.6149,-5.6149,-5.6149,-5.5978,-5.558,-5.5381,-5.6017,-5.7849,-5.8268,-5.9016,-2.082,-2.0623,-2.1804,-2.5757,-2.2763,-1.9121,-1.912,-1.9005,-1.8934,-1.8367,-1.8473,-1.842,-1.7563,-1.7629,-1.7444,-1.6323,-1.749,0.0,0.0,-1.7558,-1.8902,-2.0622,-2.2887,-2.4911,-2.6475,-2.8065,-2.9253,-2.9237,-2.7734,-2.7005,-2.6983,-2.6937,-2.6922,-2.6967,-2.6998,-2.7625,-2.9193,-2.9209,-2.9075,-2.9095,-2.9095,-2.9095,-2.9095,-2.9095,-2.9095,-2.9095,-2.9095,-2.9298,-3.0075,-4.2129,-4.7332,-4.7119,-4.775,-4.7545,-4.7314,-4.7307,-4.7435,-4.7725,-4.7731,-4.7915,-4.7889,-4.7889,-4.7889,-4.7889,-4.7915,-4.8883,-4.9939,-4.9966,-5.1974,-5.4072,-5.4072,-5.512,-5.6149,-5.6149,-5.6149,-5.6149,-5.6149,-5.6149,-5.6149,-5.6149,-5.6149,-5.6149,-5.6149,-5.6149,-5.6149,-5.6149,-5.6149,-5.6149,-5.6149,-5.6149,-5.6149,-5.6149,-5.6149,-5.6149,-5.6149,-5.6149,-5.6149,-5.6149,-5.6149,-5.6149,-5.6149,-5.6149,-5.6149,-5.6149,-5.6149,-5.6149,-5.6121,-5.558,-5.558,-5.6121,-5.6149,-5.6149,-1.8541,-1.8993,-1.9818,-2.1002,-2.0238,-1.8942,-1.9158,-1.9066,-1.8987,-1.8631,-1.8618,0.0,0.0,0.0,-1.8234,-1.8351,0.0,-1.9455,-1.898,-2.0635,-2.2109,-2.3287,-2.5047,-2.6806,-2.8162,-2.8787,-2.8852,-2.8307,-2.7406,-2.706,-2.6967,-2.6874,-2.6983,-2.7021,-2.8164,-2.8708,-2.9209,-2.9139,-2.9298,-2.9095,-2.9095,-2.9095,-2.9095,-2.9095,-2.9095,-2.9095,-2.9095,-2.9298,-2.9451,-3.2894,-3.4279,-3.5262,-4.4181,-4.2195,-3.4234,-3.4309,-3.9995,-4.7766,-4.769,-4.7802,-4.7886,-4.7967,-4.7889,-4.7967,-4.8382,-4.8907,-4.9514,-5.095,-5.1728,-5.2679,-5.4298,-5.5154,-5.557,-5.6149,-5.6149,-5.6149,-5.6149,-5.6149,-5.6149,-5.6149,-5.6149,-5.6149,-5.6149,-5.6149,-5.6149,-5.6149,-5.6149,-5.6149,-5.6149,-5.6149,-5.6149,-5.6149,-5.6149,-5.6149,-5.6149,-5.6149,-5.6149,-5.6149,-5.6149,-5.6149,-5.6149,-5.6149,-5.6149,-5.6149,-5.6149,-5.595,-5.5523,-5.5779,-5.5779,-5.5523,-5.595,-5.6149,-1.738,-1.7758,-1.8531,-1.8876,-1.9102,-1.9038,-1.9035,-1.9362,-1.9484,-1.8736,0.0,0.0,0.0,0.0,0.0,0.0,-2.037,-2.1004,-2.0258,-2.2283,-2.4096,-2.5261,-2.6656,-2.7879,-2.9023,-2.8581,-2.8214,-2.758,-2.7106,-2.7106,-2.6983,-2.769,-2.7927,-2.7969,-2.8788,-2.9274,-2.9107,-2.9298,-2.9095,-2.9095,-2.9095,-2.9095,-2.9095,-2.9095,-2.9095,-2.9095,-2.9095,-2.9032,-2.925,-2.925,-2.9139,-2.9911,-3.7184,-3.5629,-2.9075,-2.9011,-3.3634,-3.994,-3.9832,-3.9995,-4.0804,-4.6098,-4.7725,-4.7588,-4.7139,-4.8057,-4.99,-5.088,-5.1551,-5.2424,-5.3966,-5.4658,-5.5266,-5.5846,-5.6149,-5.6149,-5.6149,-5.6149,-5.6149,-5.6149,-5.6149,-5.6149,-5.6149,-5.6149,-5.6149,-5.6149,-5.6149,-5.6149,-5.6149,-5.6149,-5.6149,-5.6149,-5.6149,-5.6149,-5.6149,-5.6149,-5.6149,-5.6149,-5.6149,-5.6149,-5.6149,-5.6149,-5.6149,-5.6149,-5.6149,-5.5978,-5.5637,-5.5978,-5.5978,-5.5666,-5.6007,-5.6149,-1.7228,-1.709,-1.7431,-1.8584,-1.8912,-1.8928,-1.8995,0.0,-2.0092,-1.943,0.0,-2.0562,-1.9582,0.0,0.0,-1.9662,-2.1528,-2.2428,-2.1386,-2.3405,-2.5606,-2.7075,-2.7738,-2.8294,-2.9126,-2.7848,-2.699,-2.6983,-2.6975,-2.7051,-2.739,-2.8549,-2.9193,-2.9241,-2.9257,-2.9107,-2.908,-2.9095,-2.9095,-2.9095,-2.9095,-2.9095,-2.9095,-2.9095,-2.9095,-2.9095,-2.9095,-2.9095,-2.9095,-2.9095,-2.9298,-2.9187,-2.9032,-2.9095,-2.908,-2.9235,-2.9171,-2.9155,-2.9274,-2.9241,-3.1104,-4.2153,-4.591,-4.6154,-4.4306,-4.6283,-4.9526,-4.9906,-5.0901,-5.1905,-5.3104,-5.4048,-5.4962,-5.5874,-5.6149,-5.6149,-5.6149,-5.6149,-5.6149,-5.6149,-5.6149,-5.6149,-5.5542,-5.5542,-5.5846,-5.6149,-5.6149,-5.6149,-5.6149,-5.6149,-5.6149,-5.6149,-5.6149,-5.6149,-5.6149,-5.6149,-5.6149,-5.6149,-5.6149,-5.6149,-5.6149,-5.6149,-5.6149,-5.6149,-5.6149,-5.6149,-5.6149,-5.6149,-5.6149,-5.6149,-5.6149,-5.6149,-1.6166,-1.5916,-1.6062,-1.7444,-1.7617,-1.7846,0.0,0.0,0.0,-2.1839,-2.2544,-2.2602,-2.2291,-2.2377,-2.2761,-2.339,-2.4291,-2.4725,-2.4605,-2.6844,-2.8262,-2.877,-2.8839,-2.8951,-2.9188,-2.7785,-2.7029,-2.6967,-2.6975,-2.7555,-2.8692,-2.9064,-2.9257,-2.9282,-2.9298,-2.9032,-2.9095,-2.9095,-2.9095,-2.9095,-2.9095,-2.9095,-2.9095,-2.9095,-2.9095,-2.9095,-2.9095,-2.9095,-2.9095,-2.9095,-2.9064,-2.9048,-2.908,-2.9095,-2.908,-2.9048,-2.9048,-2.9032,-2.9298,-2.908,-2.9506,-3.2019,-3.5308,-3.809,-3.817,-4.0101,-4.3113,-4.6322,-4.7154,-4.8156,-5.1905,-5.2825,-5.3464,-5.499,-5.5266,-5.5266,-5.6178,-5.6149,-5.6149,-5.6149,-5.6149,-5.521,-5.1774,-5.18,-5.3077,-5.5846,-5.6149,-5.6149,-5.6149,-5.6149,-5.6149,-5.6149,-5.6149,-5.6149,-5.6149,-5.6149,-5.6149,-5.6149,-5.6149,-5.6149,-5.6149,-5.6149,-5.6149,-5.6149,-5.6149,-5.6149,-5.6149,-5.6149,-5.6149,-5.6149,-5.6149,-5.6149,-1.5956,-1.5522,-1.5879,-1.6897,-1.7801,0.0,0.0,-2.001,-2.14,-2.2797,-2.3435,-2.3442,-2.3603,-2.3631,-2.3666,-2.454,-2.572,-2.6906,-2.725,-2.8469,-2.908,-2.9303,-2.8385,-2.814,-2.8085,-2.7462,-2.7097,-2.6929,-2.7828,-2.8401,-2.9193,-2.9059,-2.9219,-2.908,-2.9095,-2.9095,-2.9095,-2.9095,-2.9095,-2.9095,-2.9095,-2.9095,-2.9095,-2.9095,-2.9095,-2.9095,-2.9095,-2.9095,-2.9095,-2.9095,-2.9095,-2.9095,-2.9095,-2.919,-2.9047,-2.9047,-2.9156,-2.9297,-2.9297,-2.9055,-2.9422,-3.0064,-3.1533,-3.3998,-3.6502,-3.7757,-3.9086,-4.2754,-4.3756,-4.4381,-4.6892,-4.7512,-4.7797,-4.9008,-4.9317,-4.9625,-4.9907,-5.024,-5.0547,-4.9907,-4.9907,-4.9292,-4.7106,-4.713,-4.8058,-4.9599,-4.9907,-4.9907,-4.9907,-5.1774,-5.3023,-5.3023,-5.4906,-5.6149,-5.6149,-5.6149,-5.6149,-5.6149,-5.6149,-5.6149,-5.6149,-5.6149,-5.6007,-5.5722,-5.5722,-5.5865,-5.6149,-5.6149,-5.6149,-5.6149,-5.6149,-5.6149,-1.5894,-1.5684,-1.6217,-1.7378,-1.8341,0.0,-2.0313,-2.2131,-2.3844,-2.3617,-2.4171,-2.462,-2.4694,-2.4616,-2.505,-2.5683,-2.7214,-2.8581,-2.9129,-2.89,-2.8788,-2.8806,-2.7802,-2.7234,-2.7493,-2.7419,-2.7495,-2.757,-2.8432,-2.9225,-2.929,-2.925,-2.9095,-2.9095,-2.9095,-2.9095,-2.9095,-2.9095,-2.9095,-2.9095,-2.9095,-2.9095,-2.9095,-2.9095,-2.9095,-2.9095,-2.9095,-2.9095,-2.9095,-2.9095,-2.9174,-2.9285,-2.9285,-2.9156,-2.9101,-2.9406,-2.9594,-2.9518,-2.9518,-2.9549,-2.9611,-3.0901,-3.1142,-3.1732,-3.5525,-3.6022,-3.5889,-3.842,-3.968,-4.0603,-4.1858,-4.2171,-4.2484,-4.3378,-4.3378,-4.3378,-4.369,-4.4336,-4.4024,-4.1816,-4.1503,-4.1816,-4.2441,-4.2754,-4.3066,-4.369,-4.369,-4.369,-4.369,-4.6797,-4.8984,-4.8984,-5.2718,-5.5238,-5.5238,-5.5846,-5.6149,-5.6149,-5.6149,-5.6149,-5.6149,-5.6149,-5.5922,-5.5466,-5.5438,-5.5694,-5.6149,-5.6149,-5.6149,-5.6149,-5.6149,-5.6149,-1.5795,-1.6254,-1.7391,-1.857,-1.8876,0.0,-2.5052,-2.6405,-2.6492,-2.5811,-2.6113,-2.6843,-2.7469,-2.7594,-2.7765,-2.8432,-2.8788,-2.9112,-2.9193,-2.7988,-2.7355,-2.734,-2.7076,-2.7572,-2.8774,-2.9063,-2.8887,-2.882,-2.9177,-2.9027,-2.9016,-2.9064,-2.9095,-2.9095,-2.9095,-2.9095,-2.9095,-2.9095,-2.9095,-2.9095,-2.9095,-2.9095,-2.9095,-2.9095,-2.9095,-2.9095,-2.9095,-2.9095,-2.9095,-2.9095,-2.914,-2.9086,-2.9086,-2.9102,-2.9148,-3.0431,-3.0788,-3.082,-3.082,-3.0997,-3.0925,-3.0941,-3.1164,-3.1132,-3.1771,-3.1803,-3.1819,-3.2139,-3.432,-3.7453,-4.0603,-4.1252,-4.1545,-4.2484,-4.2484,-4.2775,-4.369,-4.369,-4.1503,-3.4019,-3.3718,-3.5626,-3.7769,-3.8696,-4.0248,-4.3378,-4.369,-4.369,-4.369,-4.4647,-4.5603,-4.5603,-4.9342,-5.1826,-5.1826,-5.4298,-5.6149,-5.6149,-5.6149,-5.6149,-5.6149,-5.6149,-5.6121,-5.6064,-5.6064,-5.6092,-5.6149,-5.6149,-5.6149,-5.6149,-5.6149,-5.6149,-1.6627,-1.6845,-1.7536,-1.8843,0.0,0.0,-2.2718,-2.5187,-2.6948,-2.6781,-2.758,-2.8262,-2.8612,-2.8527,-2.8653,-2.9209,-2.859,-2.7972,-2.7972,-2.7988,-2.8219,-2.8322,-2.6649,-2.5801,-2.6284,-2.7972,-2.9059,-2.9187,-2.9187,-2.925,-2.908,-2.9095,-2.9095,-2.9095,-2.9095,-2.9095,-2.9095,-2.9095,-2.9095,-2.9095,-2.9095,-2.9095,-2.9095,-2.9301,-2.9094,-2.9094,-2.9297,-2.9085,-2.9085,-3.0032,-3.0401,-3.0191,-3.0399,-3.0169,-3.051,-3.103,-3.1239,-3.1101,-3.1101,-3.118,-3.0974,-3.0974,-3.1069,-3.1195,-3.1195,-3.1195,-3.1195,-3.1195,-3.2139,-3.3382,-3.4973,-3.5273,-3.5273,-3.559,-3.5907,-3.5907,-3.6206,-3.6821,-3.5889,-3.1819,-3.1835,-3.2458,-3.37,-3.4019,-3.4638,-3.6206,-3.6523,-3.6523,-3.6523,-3.8715,-4.0897,-4.121,-4.4958,-4.8391,-5.0906,-5.2439,-5.3993,-5.6149,-5.6149,-5.6149,-5.6149,-5.6149,-5.5836,-5.5097,-5.5779,-5.5808,-5.5097,-5.5808,-5.6149,-5.6149,-5.6149,-5.6149,-1.6884,0.0,0.0,0.0,0.0,0.0,-2.2043,-2.4812,-2.7082,-2.7496,-2.8323,-2.9047,-2.9307,-2.9257,-2.9059,-2.8622,-2.7988,-2.7663,-2.7663,-2.859,-2.9145,-2.9291,-2.7061,-2.5678,-2.5678,-2.7733,-2.9111,-2.9095,-2.9095,-2.9095,-2.9095,-2.9095,-2.9095,-2.9095,-2.9095,-2.9095,-2.9095,-2.9095,-2.9095,-2.9095,-2.9095,-2.9095,-2.9095,-2.9047,-2.9219,-2.9648,-2.9594,-2.975,-2.9828,-3.0804,-3.0983,-3.1078,-3.0707,-3.0804,-3.1179,-3.1191,-3.1148,-3.1053,-3.1164,-3.1195,-3.1195,-3.1195,-3.1195,-3.1195,-3.1195,-3.1195,-3.1195,-3.1195,-3.1195,-3.1195,-3.1195,-3.1195,-3.1195,-3.1195,-3.1195,-3.1195,-3.1195,-3.1499,-3.1819,-3.1195,-3.1195,-3.1195,-3.1195,-3.1195,-3.1195,-3.1195,-3.1195,-3.1195,-3.1195,-3.4019,-3.6206,-3.6821,-4.0917,-4.467,-4.7797,-4.9958,-5.2133,-5.4602,-5.5542,-5.6149,-5.6149,-5.6149,-5.5666,-5.4613,-5.5637,-5.5637,-5.4585,-5.5637,-5.6149,-5.6149,-5.6149,-5.6149,0.0,0.0,0.0,-1.8774,-1.9923,-2.1697,-2.5937,-2.6791,-2.7512,-2.8787,-2.9237,-2.9253,-2.927,-2.9286,-2.879,-2.7309,-2.8281,-2.9193,-2.9193,-2.9209,-2.9043,-2.9095,-2.9143,-2.9143,-2.9143,-2.9159,-2.9143,-2.9095,-2.9095,-2.9095,-2.9095,-2.9095,-2.9095,-2.9095,-2.9095,-2.9095,-2.9095,-2.9095,-2.9095,-2.9095,-2.9095,-2.9095,-2.9095,-2.9095,-2.9918,-3.0897,-3.0913,-3.1111,-3.113,-3.113,-3.113,-3.1114,-2.9828,-2.9844,-3.1179,-3.1191,-3.1005,-3.1053,-3.1069,-3.1195,-3.1195,-3.1195,-3.1195,-3.1195,-3.1195,-3.1195,-3.1195,-3.1195,-3.1195,-3.1195,-3.1195,-3.1195,-3.1195,-3.1195,-3.1195,-3.1195,-3.1195,-3.1195,-3.1195,-3.1195,-3.1195,-3.1195,-3.1195,-3.1195,-3.1195,-3.1195,-3.1195,-3.1195,-3.1195,-3.1819,-3.2761,-3.2761,-3.7175,-4.031,-4.031,-4.6844,-5.1213,-5.1213,-5.4298,-5.6149,-5.6149,-5.6149,-5.5865,-5.5267,-5.5836,-5.5865,-5.5267,-5.5865,-5.6149,-5.6149,-5.6149,-5.6149,-1.6723,-1.7583,-1.8518,-1.9031,-2.2092,-2.5231,-2.6743,-2.7624,-2.8673,-2.8917,-2.8357,-2.7828,-2.7756,-2.8517,-2.9079,-2.8527,-2.89,-2.9274,-2.9203,-2.9235,-2.9266,-2.9095,-2.9111,-2.9111,-2.9111,-2.9111,-2.9111,-2.9095,-2.9095,-2.9095,-2.9095,-2.9095,-2.9095,-2.9095,-2.9095,-2.9095,-2.9095,-2.9095,-2.9095,-2.9095,-2.9095,-2.9095,-2.9095,-2.9031,-2.9506,-2.9952,-3.0837,-3.0691,-2.9844,-2.9844,-2.9703,-2.9822,-2.9426,-2.9379,-2.9853,-2.9875,-3.0,-3.0374,-3.039,-3.0515,-3.0864,-3.1116,-3.1195,-3.1195,-3.1195,-3.1195,-3.1195,-3.1195,-3.1195,-3.1195,-3.1195,-3.1195,-3.1195,-3.1195,-3.1195,-3.1195,-3.1195,-3.1195,-3.1195,-3.1195,-3.1195,-3.1195,-3.1195,-3.1195,-3.1195,-3.1195,-3.1195,-3.1195,-3.1195,-3.1499,-3.1819,-3.2458,-3.4036,-3.6225,-3.968,-4.2193,-4.4981,-4.7797,-5.0906,-5.2745,-5.2745,-5.4906,-5.5865,-5.5296,-5.5865,-5.35,-4.829,-5.35,-5.4934,-5.2745,-5.5238,-5.5874,-1.7207,-1.9132,-2.1196,-2.1896,-2.4351,-2.726,-2.7711,-2.8559,-2.8933,-2.85,-2.7672,-2.6886,-2.6992,-2.8227,-2.9275,-2.9027,-2.9075,-2.9155,-2.9064,-2.9095,-2.9095,-2.9095,-2.9095,-2.9095,-2.9095,-2.9095,-2.9095,-2.9095,-2.9095,-2.9095,-2.9095,-2.9095,-2.9095,-2.9095,-2.9095,-2.9095,-2.9095,-2.9095,-2.9095,-2.9095,-2.9095,-2.9095,-2.9095,-2.9015,-2.9187,-2.9312,-3.0048,-2.979,-2.9147,-2.9147,-2.9008,-2.914,-2.9055,-2.9008,-2.9156,-2.9515,-2.9656,-3.0027,-3.0172,-3.0328,-3.0706,-3.1069,-3.1195,-3.1195,-3.1195,-3.1195,-3.1195,-3.1195,-3.1195,-3.1195,-3.1195,-3.1195,-3.1195,-3.1195,-3.1195,-3.1195,-3.1195,-3.1195,-3.1195,-3.1195,-3.1195,-3.1195,-3.1195,-3.1195,-3.1195,-3.1195,-3.1195,-3.1195,-3.1195,-3.1195,-3.1195,-3.1819,-3.2139,-3.3718,-3.7175,-3.8735,-4.0917,-4.3734,-4.7154,-4.9033,-4.9342,-5.1494,-5.237,-5.1595,-5.328,-5.1049,-4.4678,-5.0111,-5.18,-5.088,-5.2106,-5.2771,-1.7267,-2.1081,-2.5193,-2.6604,-2.6948,-2.7372,-2.8911,-2.9007,-2.8549,-2.7344,-2.6929,-2.7036,-2.7044,-2.8148,-2.9306,-2.9016,-2.908,-2.9095,-2.9095,-2.9095,-2.9095,-2.9095,-2.9095,-2.9095,-2.9095,-2.9095,-2.9095,-2.9095,-2.9095,-2.9095,-2.9095,-2.9095,-2.9095,-2.9095,-2.9095,-2.9095,-2.9095,-2.9095,-2.9095,-2.9095,-2.9095,-2.9095,-2.9095,-2.9095,-2.9269,-2.9265,-2.9238,-2.9095,-2.9095,-2.9095,-2.9095,-2.9095,-2.9095,-2.9095,-2.9127,-2.9793,-2.992,-2.9695,-3.0374,-3.0611,-3.069,-3.1053,-3.1179,-3.1195,-3.1195,-3.1195,-3.1195,-3.1195,-3.1195,-3.1195,-3.1195,-3.1195,-3.1195,-3.1195,-3.1195,-3.1195,-3.1195,-3.1195,-3.1195,-3.1195,-3.1195,-3.1195,-3.1195,-3.1195,-3.1195,-3.1195,-3.1195,-3.1195,-3.1195,-3.1195,-3.1195,-3.1195,-3.1819,-3.2458,-3.2458,-3.6206,-3.8715,-3.968,-4.2775,-4.4935,-4.589,-4.6177,-4.5708,-4.4722,-4.8461,-4.8097,-4.3899,-4.5348,-4.7464,-4.9599,-4.7154,-4.7488,-1.8324,-2.1603,-2.5215,-2.6587,-2.698,-2.7406,-2.8738,-2.8404,-2.7437,-2.7005,-2.6914,-2.7437,-2.85,-2.8903,-2.9225,-2.9011,-2.9235,-2.9095,-2.9095,-2.9095,-2.9095,-2.9095,-2.9095,-2.9095,-2.9095,-2.9095,-2.9095,-2.9095,-2.9095,-2.9095,-2.9095,-2.9095,-2.9095,-2.9095,-2.9095,-2.9095,-2.9095,-2.9095,-2.9095,-2.9095,-2.9095,-2.9095,-2.9095,-2.9095,-2.9143,-2.9222,-2.9127,-2.9095,-2.9095,-2.9095,-2.9095,-2.9095,-2.9095,-2.9095,-2.9095,-2.949,-2.9238,-2.9285,-2.9727,-3.0058,-3.0343,-3.069,-3.0974,-3.1195,-3.1195,-3.1195,-3.1195,-3.1195,-3.1195,-3.1195,-3.1195,-3.1195,-3.1195,-3.1195,-3.1195,-3.1195,-3.1195,-3.1195,-3.1195,-3.1195,-3.1195,-3.1195,-3.1195,-3.1195,-3.1195,-3.1195,-3.1195,-3.1195,-3.1195,-3.1195,-3.1195,-3.1195,-3.1195,-3.1819,-3.2458,-3.3382,-3.4337,-3.5309,-3.8753,-4.1017,-4.1017,-4.3457,-4.4678,-4.4999,-4.2562,-4.0047,-3.6883,-4.258,-4.467,-4.34,-4.467,-4.5292,-1.7952,-2.2037,-2.6019,-2.6826,-2.748,-2.7863,-2.8194,-2.758,-2.7013,-2.6914,-2.739,-2.7959,-2.8294,-2.8338,-2.8297,-2.9193,-2.9187,-2.9095,-2.9095,-2.9095,-2.9095,-2.9095,-2.9095,-2.9095,-2.9095,-2.9095,-2.9095,-2.9095,-2.9095,-2.9095,-2.9095,-2.9095,-2.9095,-2.9095,-2.9095,-2.9095,-2.9095,-2.9095,-2.9095,-2.9095,-2.9095,-2.9095,-2.9095,-2.9095,-2.9095,-2.9095,-2.9095,-2.9095,-2.9095,-2.9095,-2.9095,-2.9095,-2.9095,-2.9095,-2.9095,-2.9095,-2.9095,-2.9143,-2.9506,-2.9853,-3.0216,-3.0548,-3.0895,-3.1195,-3.1195,-3.1195,-3.1195,-3.1195,-3.1195,-3.1195,-3.1195,-3.1195,-3.1195,-3.1195,-3.1195,-3.1195,-3.1195,-3.1195,-3.1195,-3.1195,-3.1195,-3.1195,-3.1195,-3.1195,-3.1195,-3.1195,-3.1195,-3.1195,-3.1195,-3.1195,-3.1195,-3.1195,-3.1195,-3.1195,-3.1819,-3.1819,-3.2139,-3.3097,-3.5076,-3.6428,-3.6864,-3.8467,-3.947,-3.9588,-3.7079,-3.5161,-3.3798,-3.8872,-4.0624,-3.966,-4.0624,-4.1252,-1.79,-2.2413,-2.6723,-2.7018,-2.7957,-2.8596,-2.7432,-2.7,-2.6921,-2.6967,-2.8114,-2.8477,-2.7323,-2.7037,-2.7556,-2.882,-2.9107,-2.9048,-2.908,-2.9095,-2.9095,-2.9095,-2.9095,-2.9095,-2.9095,-2.9095,-2.9095,-2.9095,-2.9095,-2.9095,-2.9095,-2.9095,-2.9095,-2.9095,-2.9095,-2.9095,-2.9095,-2.9095,-2.9095,-2.9095,-2.9095,-2.9095,-2.9095,-2.9095,-2.9095,-2.9095,-2.9095,-2.9095,-2.9095,-2.9095,-2.9095,-2.9095,-2.9095,-2.9095,-2.9095,-2.9095,-2.9095,-2.9143,-2.9443,-2.9822,-3.0201,-3.05,-3.0864,-3.1195,-3.1195,-3.1195,-3.1195,-3.1195,-3.1195,-3.1195,-3.1195,-3.1195,-3.1195,-3.1195,-3.1195,-3.1195,-3.1195,-3.1195,-3.1195,-3.1195,-3.1195,-3.1195,-3.1195,-3.1195,-3.1195,-3.1195,-3.1195,-3.1195,-3.1195,-3.1195,-3.1195,-3.1195,-3.1195,-3.1195,-3.1195,-3.1195,-3.1499,-3.2139,-3.2409,-3.2529,-3.3103,-3.3051,-3.2587,-3.2316,-3.2367,-3.257,-3.2925,-3.4849,-3.6261,-3.7156,-3.6261,-3.6895,-2.237,-2.444,-2.5449,-2.6703,-2.7248,-2.7464,-2.7125,-2.6984,-2.6906,-2.6905,-2.7312,-2.7233,-2.6998,-2.7091,-2.7531,-2.8998,-2.9064,-2.9091,-2.9048,-2.9095,-2.9095,-2.9095,-2.9095,-2.9095,-2.9095,-2.9095,-2.9095,-2.9095,-2.9095,-2.9095,-2.9095,-2.9095,-2.9095,-2.9095,-2.9095,-2.9095,-2.9095,-2.9095,-2.9095,-2.9095,-2.9095,-2.9095,-2.9095,-2.9095,-2.9095,-2.9095,-2.9095,-2.9095,-2.9095,-2.9095,-2.9095,-2.9095,-2.9095,-2.9095,-2.9095,-2.9095,-2.9095,-2.9095,-2.9159,-2.9616,-3.0169,-3.0232,-3.0674,-3.1195,-3.1195,-3.1195,-3.1195,-3.1195,-3.1195,-3.1195,-3.1195,-3.1195,-3.1195,-3.1195,-3.1195,-3.1195,-3.1195,-3.1195,-3.1195,-3.1195,-3.1195,-3.1195,-3.1195,-3.1195,-3.1195,-3.1195,-3.1195,-3.1195,-3.1195,-3.1195,-3.1195,-3.1195,-3.1195,-3.1195,-3.1195,-3.1195,-3.1195,-3.1195,-3.1862,-3.185,-3.1782,-3.15,-3.116,-3.0463,-3.075,-3.1683,-3.2678,-3.3063,-3.3735,-3.4372,-3.4389,-3.4372,-2.393,-2.4816,-2.5187,-2.6571,-2.7034,-2.7059,-2.6953,-2.7138,-2.7027,-2.7075,-2.7043,-2.7075,-2.6953,-2.7125,-2.7312,-2.8054,-2.8549,-2.9257,-2.9123,-2.9282,-2.9095,-2.9095,-2.9095,-2.9095,-2.9095,-2.9095,-2.9095,-2.9095,-2.9095,-2.9095,-2.9095,-2.9095,-2.9095,-2.9095,-2.9095,-2.9095,-2.9095,-2.9095,-2.9095,-2.9095,-2.9095,-2.9095,-2.9095,-2.9095,-2.9095,-2.9095,-2.9095,-2.9095,-2.9095,-2.9095,-2.9095,-2.9095,-2.9095,-2.9095,-2.9095,-2.9095,-2.9095,-2.9095,-2.9095,-2.9443,-2.9916,-3.0106,-3.05,-3.0943,-3.1132,-3.1195,-3.1195,-3.1195,-3.1195,-3.1195,-3.1195,-3.1195,-3.1195,-3.1195,-3.1195,-3.1195,-3.1195,-3.1195,-3.1195,-3.1195,-3.1195,-3.1195,-3.1195,-3.1195,-3.1195,-3.1195,-3.1195,-3.1195,-3.1195,-3.1195,-3.1116,-3.0927,-3.0911,-3.0848,-3.0674,-3.0658,-3.0737,-3.0911,-3.0909,-3.0949,-3.0772,-3.0788,-3.0869,-3.1046,-3.1207,-3.1781,-3.2458,-3.3097,-3.2794,-3.2475,-3.3433,-3.3433,-2.3293,-2.3531,-2.4141,-2.6411,-2.7045,-2.7081,-2.7113,-2.4339,-2.2942,-2.6209,-2.7113,-2.6933,-2.7012,-2.6906,-2.7094,-2.6952,-2.8069,-2.8804,-2.9193,-2.9187,-2.9095,-2.9095,-2.9095,-2.9095,-2.9095,-2.9095,-2.9095,-2.9095,-2.9095,-2.9095,-2.9095,-2.9095,-2.9095,-2.9095,-2.9095,-2.9095,-2.9095,-2.9095,-2.9095,-2.9095,-2.9095,-2.9095,-2.9095,-2.9095,-2.9095,-2.9095,-2.9095,-2.9095,-2.9095,-2.9095,-2.9095,-2.9095,-2.9095,-2.9095,-2.9095,-2.9095,-2.9095,-2.9095,-2.9095,-2.9316,-2.968,-3.0043,-3.039,-3.0721,-3.1085,-3.1195,-3.1195,-3.1195,-3.1195,-3.1195,-3.1195,-3.1195,-3.1195,-3.1195,-3.1195,-3.1195,-3.1195,-3.1195,-3.1195,-3.1195,-3.1195,-3.1195,-3.1195,-3.1195,-3.1195,-3.1195,-3.1195,-3.1195,-3.1195,-3.1195,-3.1085,-3.08,-3.0706,-3.0548,-3.0295,-3.0201,-3.0279,-3.0532,-3.0374,-3.0232,-3.0169,-3.0485,-3.0973,-3.1618,-3.1699,-3.1862,-3.2139,-3.2778,-3.2475,-3.1195,-3.2794,-3.2794,-1.8981,-1.952,-2.0914,-2.5859,-2.7133,-2.6948,-2.7029,-1.6219,-1.028,-2.4105,-2.7049,-2.6954,-2.6964,-2.7081,-2.7113,-2.7156,-2.7261,-2.7617,-2.8852,-2.9187,-2.9095,-2.9095,-2.9095,-2.9095,-2.9095,-2.9095,-2.9095,-2.9095,-2.9095,-2.9095,-2.9095,-2.9095,-2.9095,-2.9095,-2.9095,-2.9095,-2.9095,-2.9095,-2.9095,-2.9095,-2.9095,-2.9095,-2.9095,-2.9095,-2.9095,-2.9095,-2.9095,-2.9095,-2.9095,-2.9095,-2.9095,-2.9095,-2.9095,-2.9095,-2.9095,-2.9095,-2.9095,-2.9095,-2.9095,-2.9316,-2.968,-3.0043,-3.039,-3.0721,-3.1085,-3.1195,-3.1195,-3.1195,-3.1195,-3.1195,-3.1195,-3.1195,-3.1195,-3.1195,-3.1195,-3.1195,-3.1195,-3.1195,-3.1195,-3.1195,-3.1195,-3.1195,-3.1195,-3.1195,-3.1195,-3.1195,-3.1195,-3.1195,-3.1195,-3.1195,-3.1179,-3.1148,-3.0848,-3.0643,-3.0611,-3.0343,-3.0169,-3.0201,-3.0469,-3.0485,-3.0169,-3.0485,-3.0658,-3.0658,-3.0974,-3.1164,-3.1195,-3.1195,-3.1195,-3.1195,-3.2139,-3.2458,-1.9999,-2.2568,-2.3046,-2.5104,-2.6248,-2.685,-2.6049,-2.1838,-1.9713,-2.5812,-2.7129,-2.6854,-2.5889,-2.6484,-2.7129,-2.6933,-2.7094,-2.7578,-2.8839,-2.9177,-2.9171,-2.9064,-2.9095,-2.9095,-2.9095,-2.9095,-2.9095,-2.9095,-2.9095,-2.9095,-2.9095,-2.9095,-2.9095,-2.9095,-2.9095,-2.9095,-2.9095,-2.9095,-2.9095,-2.9095,-2.9095,-2.9095,-2.9095,-2.9095,-2.9095,-2.9095,-2.9095,-2.9095,-2.9095,-2.9095,-2.9095,-2.9095,-2.9095,-2.9095,-2.9095,-2.9095,-2.9095,-2.9095,-2.9095,-2.919,-2.9364,-2.9711,-2.9916,-3.0137,-3.0706,-3.0879,-3.0911,-3.1132,-3.1195,-3.1195,-3.1195,-3.1195,-3.1195,-3.1195,-3.1195,-3.1195,-3.1195,-3.1021,-3.0879,-3.0879,-3.0706,-3.0564,-3.0564,-3.0737,-3.0879,-3.0879,-3.1053,-3.1116,-3.0895,-3.069,-3.0485,-3.0264,-3.0122,-2.9948,-2.9727,-2.979,-2.9932,-3.0153,-3.0279,-3.039,-3.0453,-3.08,-3.0974,-3.0974,-3.1116,-3.1195,-3.1195,-3.1195,-3.1195,-3.1195,-3.1499,-3.1499,-1.5835,-2.079,-2.3488,-2.4569,-2.4707,-2.4603,-2.3866,-2.5034,-2.664,-2.7002,-2.7018,-2.6775,-2.5705,-2.607,-2.6422,-2.6842,-2.74,-2.7943,-2.9073,-2.921,-2.929,-2.9219,-2.9032,-2.9095,-2.9095,-2.9095,-2.9095,-2.9095,-2.9095,-2.9095,-2.9095,-2.9095,-2.9095,-2.9095,-2.9095,-2.9095,-2.9095,-2.9095,-2.9095,-2.9095,-2.9095,-2.9095,-2.9095,-2.919,-2.9238,-2.9253,-2.9047,-2.9094,-2.9094,-2.9094,-2.9094,-2.9395,-2.9285,-2.9253,-2.9238,-2.9127,-2.9095,-2.9095,-2.9095,-2.9095,-2.9143,-2.9506,-2.9616,-2.9727,-3.0327,-3.0579,-3.0706,-3.0958,-3.1116,-3.1195,-3.1195,-3.1195,-3.1195,-3.1195,-3.1195,-3.1164,-3.1053,-3.0832,-3.0627,-3.0532,-3.0327,-3.0153,-3.0153,-3.0358,-3.0516,-3.0516,-3.0721,-3.08,-3.0548,-3.0311,-3.0106,-2.9948,-2.9837,-2.9711,-2.9569,-2.9695,-2.9885,-3.0137,-3.0248,-3.0469,-3.08,-3.1053,-3.1195,-3.1195,-3.1195,-3.1195,-3.1195,-3.1195,-3.1195,-3.1195,-3.1195,-3.1195,-0.3884,-1.1475,-2.0146,-2.387,-2.2094,-1.9391,-2.0705,-2.2831,-2.5437,-2.6683,-2.7159,-2.7045,-2.705,-2.5746,-2.5368,-2.6762,-2.8267,-2.9043,-2.9043,-2.9063,-2.9209,-2.9209,-2.9187,-2.9095,-2.9095,-2.9095,-2.9095,-2.9095,-2.9095,-2.9095,-2.9095,-2.9095,-2.9095,-2.9095,-2.9095,-2.9095,-2.9095,-2.9095,-2.9095,-2.9095,-2.9095,-2.9095,-2.9095,-2.914,-2.9297,-2.9008,-2.904,-2.9178,-2.9178,-2.9178,-2.9503,-2.9797,-2.9437,-2.9616,-2.9569,-2.9222,-2.9095,-2.9095,-2.9095,-2.9095,-2.9143,-2.9506,-2.9616,-2.9695,-3.0058,-3.039,-3.0658,-3.0658,-3.0911,-3.1195,-3.1195,-3.1195,-3.1195,-3.1195,-3.1195,-3.11,-3.0737,-3.0658,-3.0564,-3.0232,-3.0169,-3.0153,-3.0153,-3.0169,-3.0169,-3.0169,-3.0169,-3.0169,-3.0169,-3.0153,-3.0279,-3.0611,-3.0358,-3.0295,-3.0611,-3.0343,-3.0153,-3.0153,-3.0469,-3.0816,-3.1164,-3.1195,-3.1195,-3.1195,-3.1195,-3.1195,-3.1195,-3.1195,-3.1195,-3.1195,-3.1195,-3.1195,-0.3389,-0.5751,-0.8559,-0.9808,-0.9434,-1.0304,-1.7869,-2.0793,-2.3152,-2.6394,-2.7002,-2.4457,-1.5696,-2.0038,-2.5264,-2.6826,-2.7469,-2.8152,-2.901,-2.8549,-2.8612,-2.9177,-2.9187,-2.9095,-2.9095,-2.9095,-2.9095,-2.9095,-2.9095,-2.9095,-2.9095,-2.9095,-2.9095,-2.9095,-2.9095,-2.9095,-2.9095,-2.9095,-2.9095,-2.9095,-2.9031,-2.914,-2.9156,-2.9194,-2.9672,-3.0319,-3.0431,-3.0479,-3.0479,-3.0169,-3.0169,-3.0153,-3.0043,-2.9995,-2.998,-2.9869,-2.9822,-2.9822,-2.9822,-2.9822,-2.9837,-2.9948,-2.9995,-3.0058,-3.039,-3.0579,-3.0658,-3.0658,-3.0911,-3.1195,-3.1195,-3.1195,-3.1195,-3.1195,-3.1195,-3.1164,-3.1053,-3.0832,-3.0627,-3.0516,-3.0311,-3.0153,-3.0153,-3.0358,-3.05,-3.05,-3.0706,-3.0785,-3.0532,-3.05,-3.0453,-3.0327,-3.0216,-3.0201,-3.0311,-3.0437,-3.05,-3.05,-3.0832,-3.1069,-3.1179,-3.1195,-3.1195,-3.1195,-3.1195,-3.1195,-3.1195,-3.1195,-3.1195,-3.1195,-3.1195,-3.1195,-0.3115,-0.325,-0.3384,-0.3503,-0.5647,-0.9747,-1.7889,-2.1018,-2.3065,-2.5744,-2.1893,-1.5986,-0.8267,-1.7145,-2.6024,-2.6921,-2.6906,-2.7241,-2.8184,-2.8242,-2.8294,-2.8967,-2.8995,-2.8953,-2.908,-2.9095,-2.9095,-2.9095,-2.9095,-2.9095,-2.9095,-2.9095,-2.9095,-2.9095,-2.9095,-2.9095,-2.9095,-2.9095,-2.9159,-2.9285,-2.9203,-2.9375,-2.9837,-2.9875,-3.0343,-3.1014,-3.1142,-3.1207,-3.1207,-3.0877,-3.0877,-3.0877,-3.0548,-3.0469,-3.0343,-3.0201,-3.0153,-3.0153,-3.0153,-3.0153,-3.0153,-3.0153,-3.0153,-3.0201,-3.0406,-3.0564,-3.0658,-3.0658,-3.0911,-3.1164,-3.1021,-3.1085,-3.1195,-3.1195,-3.1195,-3.1148,-3.1021,-3.0816,-3.0627,-3.05,-3.0295,-3.0153,-3.0153,-3.0327,-3.0469,-3.0469,-3.0658,-3.0721,-3.05,-3.0469,-3.039,-3.0185,-3.0279,-3.0406,-3.0532,-3.0737,-3.0864,-3.0864,-3.1069,-3.1195,-3.1195,-3.1195,-3.1195,-3.1195,-3.1195,-3.1195,-3.1195,-3.1195,-3.1195,-3.1195,-3.1195,-3.1195,-0.3058,-0.317,-0.3498,-0.4132,-0.9139,-1.4853,-1.8637,-2.1646,-2.3364,-2.3419,-1.3102,-0.3898,-0.4203,-1.6854,-2.6948,-2.6915,-2.6873,-2.6906,-2.6948,-2.7592,-2.8242,-2.8884,-2.866,-2.8717,-2.9064,-2.9095,-2.9095,-2.9095,-2.9095,-2.9095,-2.9095,-2.9095,-2.9095,-2.9095,-2.9095,-2.9095,-2.9095,-2.9095,-2.9269,-2.9297,-2.9328,-2.9853,-3.1179,-3.1191,-3.1021,-3.1053,-3.1053,-3.1195,-3.1195,-3.1195,-3.1195,-3.1195,-3.1195,-3.099,-3.0658,-3.0358,-3.0232,-3.0232,-3.0232,-3.0232,-3.0232,-3.0232,-3.0232,-3.0232,-3.0232,-3.0453,-3.069,-3.0674,-3.0911,-3.1116,-3.0785,-3.0943,-3.1195,-3.1195,-3.1195,-3.11,-3.0769,-3.069,-3.0611,-3.0295,-3.0232,-3.0232,-3.0232,-3.0232,-3.0232,-3.0232,-3.0232,-3.0232,-3.0232,-3.0232,-3.0232,-3.0232,-3.0516,-3.0832,-3.1164,-3.1195,-3.1195,-3.1195,-3.1195,-3.1195,-3.1195,-3.1195,-3.1195,-3.1195,-3.1195,-3.1195,-3.1195,-3.1195,-3.1195,-3.1195,-3.1195,-3.1195,-0.3214,-0.3299,-0.4663,-1.0262,-1.1056,-0.9887,-0.8097,-0.8278,-0.8906,-0.8883,-0.6088,-0.3893,-0.3861,-1.6718,-2.6635,-2.5569,-2.6187,-2.7159,-2.689,-2.8087,-2.8448,-2.7627,-2.8517,-2.9027,-2.9064,-2.9095,-2.9095,-2.9095,-2.9095,-2.9095,-2.9095,-2.9095,-2.9095,-2.9095,-2.9095,-2.9095,-2.9095,-2.9095,-2.9269,-2.9312,-3.0223,-3.0869,-3.1207,-3.1228,-3.1069,-3.1069,-3.1148,-3.1195,-3.1195,-3.1195,-3.1195,-3.1195,-3.1195,-3.1148,-3.1053,-3.0974,-3.0943,-3.0943,-3.0943,-3.0943,-3.0943,-3.0943,-3.0943,-3.0943,-3.0943,-3.1006,-3.1006,-3.0737,-3.0911,-3.1164,-3.1085,-3.1132,-3.1195,-3.1195,-3.1195,-3.1164,-3.1085,-3.1069,-3.1037,-3.0958,-3.0943,-3.0943,-3.0943,-3.0943,-3.0943,-3.0943,-3.0943,-3.0943,-3.0943,-3.0943,-3.0943,-3.0943,-3.1021,-3.11,-3.1179,-3.1195,-3.1195,-3.1195,-3.1195,-3.1195,-3.1195,-3.1195,-3.1195,-3.1195,-3.1195,-3.1195,-3.1195,-3.1195,-3.1195,-3.1195,-3.1195,-3.1195,-0.323,-0.4576,-0.6386,-0.8479,-0.7831,-0.6187,-0.3919,-0.3513,-0.3811,-0.4105,-0.3951,-0.4031,-0.4073,-1.0922,-1.8413,-2.4935,-2.6396,-2.6683,-2.6219,-2.7389,-2.8022,-2.7219,-2.8325,-2.9096,-2.9139,-2.9298,-2.9095,-2.9095,-2.9095,-2.9095,-2.9095,-2.9095,-2.9095,-2.9095,-2.9095,-2.9095,-2.9095,-2.9095,-2.9047,-2.9225,-3.0399,-3.1078,-3.1228,-3.11,-3.1195,-3.1195,-3.1195,-3.1195,-3.1195,-3.1195,-3.1195,-3.1195,-3.1195,-3.1195,-3.1195,-3.1195,-3.1195,-3.1195,-3.1195,-3.1195,-3.1195,-3.1195,-3.1195,-3.1195,-3.1195,-3.1195,-3.1148,-3.0958,-3.1037,-3.1195,-3.1195,-3.1195,-3.1195,-3.1195,-3.1195,-3.1195,-3.1195,-3.1195,-3.1195,-3.1195,-3.1195,-3.1195,-3.1195,-3.1195,-3.1195,-3.1195,-3.1195,-3.1195,-3.1195,-3.1195,-3.1195,-3.1195,-3.1195,-3.1195,-3.1195,-3.1195,-3.1195,-3.1195,-3.1195,-3.1195,-3.1195,-3.1195,-3.1195,-3.1195,-3.1195,-3.1195,-3.1195,-3.1195,-3.1195,-3.1195,-3.1195,-3.1195,-0.3259,-0.5493,-0.7128,-0.4065,-0.3453,-0.3503,-0.3551,-0.3577,-0.3633,-0.4021,-0.4308,-0.437,-0.4271,-0.4062,-0.8226,-2.1989,-2.392,-2.401,-2.5055,-2.6178,-2.7075,-2.714,-2.807,-2.9014,-2.9096,-2.9123,-2.9016,-2.9016,-2.9064,-2.9095,-2.9095,-2.9095,-2.9095,-2.9095,-2.9095,-2.9095,-2.9095,-2.9095,-2.9109,-2.9117,-3.0463,-3.1142,-3.11,-3.1164,-3.1195,-3.1195,-3.1195,-3.1195,-3.1195,-3.1195,-3.1195,-3.1195,-3.1195,-3.1195,-3.1195,-3.1195,-3.1195,-3.1195,-3.1195,-3.1195,-3.1195,-3.1195,-3.1195,-3.1195,-3.1195,-3.1195,-3.1195,-3.1195,-3.1195,-3.1195,-3.1195,-3.1195,-3.1195,-3.1195,-3.1195,-3.1195,-3.1195,-3.1195,-3.1195,-3.1195,-3.1195,-3.1195,-3.1195,-3.1195,-3.1195,-3.1195,-3.1195,-3.1195,-3.1195,-3.1195,-3.1195,-3.1195,-3.1195,-3.1195,-3.1195,-3.1195,-3.1195,-3.1195,-3.1195,-3.1195,-3.1195,-3.1195,-3.1195,-3.1195,-3.1195,-3.1195,-3.1195,-3.1195,-3.1195,-3.1195,-3.1195,-3.1195,-0.3236,-0.3741,-0.4065,-0.368,-0.3482,-0.349,-0.3501,-0.358,-0.3431,-0.3686,-0.4009,-0.4331,-0.4358,-0.3988,-0.5369,-1.0311,-0.9274,-1.2446,-2.4785,-2.6986,-2.7018,-2.7059,-2.7125,-2.7769,-2.9014,-2.908,-2.9274,-2.9274,-2.9235,-2.9095,-2.9095,-2.9095,-2.9095,-2.9095,-2.9095,-2.9095,-2.9095,-2.9095,-2.9285,-2.9085,-3.0351,-3.1014,-3.0737,-3.1053,-3.1195,-3.1195,-3.1195,-3.1195,-3.1195,-3.1195,-3.1195,-3.1195,-3.1195,-3.1195,-3.1195,-3.1195,-3.1195,-3.1195,-3.1195,-3.1195,-3.1195,-3.1195,-3.1195,-3.1195,-3.1195,-3.1195,-3.1195,-3.1195,-3.1195,-3.1195,-3.1195,-3.1195,-3.1195,-3.1195,-3.1195,-3.1195,-3.1195,-3.1195,-3.1195,-3.1195,-3.1195,-3.1195,-3.1195,-3.1195,-3.1195,-3.1195,-3.1195,-3.1195,-3.1195,-3.1195,-3.1195,-3.1195,-3.1195,-3.1195,-3.1195,-3.1195,-3.1195,-3.1195,-3.1195,-3.1195,-3.1195,-3.1195,-3.1195,-3.1195,-3.1195,-3.1195,-3.1195,-3.1195,-3.1195,-3.1195,-3.1195,-3.1195,-0.3307,-0.3384,-0.3456,-0.3482,-0.349,-0.349,-0.349,-0.3532,-0.3588,-0.3424,-0.371,-0.3758,-0.3789,-0.3903,-0.4498,-0.6009,-0.6672,-0.9204,-1.6026,-2.2631,-2.6938,-2.698,-2.7047,-2.7328,-2.8054,-2.7969,-2.8281,-2.9193,-2.9203,-2.9095,-2.9095,-2.9095,-2.9095,-2.9095,-2.9095,-2.9095,-2.9095,-2.9095,-2.9269,-2.9297,-3.0112,-3.0463,-3.0658,-3.0832,-3.1006,-3.1195,-3.1195,-3.1195,-3.1195,-3.1195,-3.1195,-3.1195,-3.1195,-3.1195,-3.1195,-3.1195,-3.1195,-3.1195,-3.1195,-3.1195,-3.1195,-3.1195,-3.1195,-3.1195,-3.1195,-3.1195,-3.1195,-3.1195,-3.1195,-3.1195,-3.1195,-3.1195,-3.1195,-3.1195,-3.1195,-3.1195,-3.1195,-3.1195,-3.1195,-3.1195,-3.1195,-3.1195,-3.1195,-3.1195,-3.1195,-3.1195,-3.1195,-3.1195,-3.1195,-3.1195,-3.1195,-3.1195,-3.1195,-3.1195,-3.1195,-3.1195,-3.1195,-3.1195,-3.1195,-3.1195,-3.1195,-3.1195,-3.1195,-3.1195,-3.1195,-3.1195,-3.1195,-3.1195,-3.1195,-3.1195,-3.1195,-3.1195,-0.3411,0.0,-0.3551,-0.3551,-0.354,-0.353,0.0,-0.3509,-0.3514,-0.3604,-0.3399,-0.3414,-0.3471,-0.3568,-0.3893,-0.4164,-0.6271,-0.7985,-0.8185,-1.8909,-2.6778,-2.6901,-2.7154,-2.7047,-2.7125,-2.7082,-2.7771,-2.9064,-2.9091,-2.9016,-2.908,-2.9095,-2.9095,-2.9095,-2.9095,-2.9095,-2.9095,-2.9095,-2.9222,-2.9187,-2.9585,-2.9901,-3.0406,-3.05,-3.0737,-3.1069,-3.1069,-3.1116,-3.1195,-3.1195,-3.1195,-3.1195,-3.1195,-3.0539,-2.9898,-3.0859,-3.0539,-2.9898,-3.0859,-3.1195,-3.1195,-3.1195,-3.1195,-3.1195,-3.1195,-3.1195,-3.1195,-3.1195,-3.1195,-3.1195,-3.1195,-3.1195,-3.1195,-3.1195,-3.1195,-3.1195,-3.1195,-3.1195,-3.1195,-3.1195,-3.1195,-3.1195,-3.1195,-3.1195,-3.1195,-3.1195,-3.1195,-3.1195,-3.1195,-3.1195,-3.1195,-3.1195,-3.1195,-3.1195,-3.1195,-3.1195,-3.1195,-3.1195,-3.1195,-3.1195,-3.1195,-3.1195,-3.1195,-3.1195,-3.1195,-3.1195,-3.1195,-3.1195,-3.1195,-3.1195,-3.1195,-3.1195,0.0,-0.3649,-0.3734,-0.3734,-0.3694,-0.3654,-0.3654,-0.3567,0.0,-0.3501,-0.3501,-0.3519,-0.3577,-0.3456,-0.3563,-0.3906,-0.4023,-0.5167,-0.7946,-1.7916,-2.5514,-2.689,-2.6922,-2.7002,-2.7027,-2.7109,-2.7754,-2.8982,-2.9048,-2.9075,-2.908,-2.9095,-2.9095,-2.9095,-2.9095,-2.9095,-2.9095,-2.9095,-2.9095,-2.9127,-2.9474,-2.9648,-2.9711,-3.0043,-3.0374,-3.069,-3.069,-3.0879,-3.1195,-3.1195,-3.1195,-3.1195,-3.1195,-2.9242,-2.6658,-2.9898,-2.9242,-2.698,-2.9898,-3.1195,-3.1195,-3.1195,-3.1195,-3.1195,-3.1195,-3.1195,-3.1195,-3.1195,-3.1195,-3.1195,-3.1195,-3.1195,-3.1195,-3.1195,-3.1195,-3.1195,-3.1195,-3.1195,-3.1195,-3.1195,-3.1195,-3.1195,-3.1195,-3.1195,-3.1195,-3.1195,-3.1195,-3.1195,-3.1195,-3.1195,-3.1195,-3.1195,-3.1195,-3.1195,-3.1195,-3.1195,-3.1195,-3.1195,-3.1195,-3.1195,-3.1195,-3.1195,-3.1195,-3.1195,-3.1195,-3.1195,-3.1195,-3.1195,-3.1195,-3.1195,-3.1195,-3.1195,-0.4072,-0.4352,-0.4402,-0.4209,-0.4402,-0.4126,-0.3894,-0.3601,-0.3535,-0.3495,-0.349,-0.3509,-0.3567,-0.3416,-0.3493,-0.3805,-0.3946,-0.4833,-0.802,-1.1826,-1.4734,-1.5352,-2.2204,-2.6885,-2.7012,-2.7047,-2.739,-2.7734,-2.8692,-2.9043,-2.908,-2.9095,-2.9095,-2.9095,-2.9095,-2.9095,-2.9095,-2.9095,-2.9095,-2.9095,-2.9222,-2.9411,-2.9632,-2.9758,-3.0137,-3.0658,-3.0658,-3.0864,0.0,-3.1195,-2.9898,-2.8279,-3.0219,-2.8921,-2.6336,-2.9898,-3.0219,-2.9257,-3.0554,-3.1195,-3.1195,-3.1195,-3.1195,-3.1195,-3.1195,-3.1195,-3.1195,-3.1195,-3.1195,-3.1195,-3.1195,-3.1195,-3.1195,-3.1195,-3.1195,-3.1195,-3.1195,-3.1195,-3.1195,-3.1195,-3.1195,-3.1195,-3.1195,-3.1195,-3.1195,-3.1195,-3.1195,-3.1195,-3.1195,-3.1195,-3.1195,-3.1195,-3.1195,-3.1195,-3.1195,-3.1195,-3.1195,-3.1195,-3.1195,-3.1195,-3.1195,-3.1195,-3.1195,-3.1195,-3.1195,-3.1195,-3.1195,-3.1195,-3.1195,-3.1195,-3.1195,-3.1195,-0.415,-0.4418,-0.4462,-0.4743,-0.4468,-0.4421,-0.4185,-0.3888,-0.3593,-0.3554,-0.3546,-0.3559,-0.3599,-0.3654,-0.3713,-0.3771,-0.3909,-0.5034,-0.7897,-0.857,-0.9802,-1.3254,-2.1474,-2.7049,-2.7145,-2.689,-2.6936,-2.6975,-2.7922,-2.8574,-2.9219,-2.9032,-2.9032,-2.8922,-2.8922,-2.8969,-2.9095,-2.9095,-2.9095,-2.9095,-2.9095,-2.9222,-2.9459,-2.8233,-2.8289,-2.8903,-2.7948,-2.7561,-2.7944,-2.7944,-2.6323,-2.4714,-2.6966,-2.6323,-2.4714,-2.8279,-2.8921,-2.8265,-3.0219,-3.0539,-2.9577,-3.0875,-3.1195,-3.1195,-3.1195,-3.0219,-2.9577,-2.9577,-3.0219,-3.1195,-3.1195,-3.1195,-3.1195,-3.1195,-3.1195,-3.1195,-3.1195,-3.1195,-3.1195,-3.1195,-3.1195,-3.1195,-3.1195,-3.1195,-3.1195,-3.1195,-3.1195,-3.1195,-3.1195,-3.1195,-3.1195,-3.1195,-3.1195,-3.1195,-3.1195,-3.1195,-3.1195,-3.1195,-3.1195,-3.1195,-3.1195,-3.1195,-3.1195,-3.1195,-3.1195,-3.1195,-3.1195,-3.1195,-3.1195,-3.1195,-3.1195,-3.1195,-0.3739,-0.3837,-0.4167,-0.466,-0.4367,-0.408,-0.4796,-0.4215,-0.3668,-0.3665,-0.3665,-0.3665,-0.3668,-0.3715,-0.3771,-0.3827,-0.3935,-0.5034,-0.7892,-0.8778,-1.3086,-2.3647,-2.6172,-2.7062,-2.7066,-2.7113,-2.6875,-2.6936,-2.6975,-2.7601,-2.9177,-2.9203,-2.8922,-2.7988,-2.7972,-2.8437,-2.908,-2.908,-2.908,-2.908,-2.9095,-2.9095,-2.9095,-2.5774,-2.4577,-2.4807,-2.1693,-2.0395,-2.0818,-2.0818,-2.0818,-2.0818,-2.0818,-2.0818,-2.1141,-2.4714,-2.3734,-2.1787,-2.86,-2.8921,-2.6658,-2.9898,-3.0875,-3.0875,-3.0875,-2.86,-2.6015,-2.6015,-2.86,-3.1195,-3.1195,-3.1195,-3.1195,-3.1195,-3.1195,-3.1195,-3.1195,-3.1195,-3.1195,-3.1195,-3.1195,-3.1195,-3.1195,-3.1195,-3.1195,-3.1195,-3.1195,-3.1195,-3.1195,-3.1195,-3.1195,-3.1195,-3.1195,-3.1195,-3.1195,-3.1195,-3.1195,-3.1195,-3.1195,-3.1195,-3.1195,-3.1195,-3.1195,-3.1195,-3.1195,-3.1195,-3.1195,-3.1195,-3.1195,-3.1195,-3.1179,-3.1179,-0.4997,-0.5275,-0.5326,-0.6118,-0.5822,-0.5279,-0.5036,-0.4254,-0.3715,-0.3675,-0.3665,-0.3678,-0.3721,-0.3742,-0.4021,-0.4852,-0.5192,-0.6048,-0.7995,-1.5322,-2.1384,-2.4546,-2.6204,-2.7084,-2.7081,-2.7034,-2.6917,-2.6921,-2.706,-2.7547,-2.8196,-2.8,-2.7403,-2.7311,-2.7906,-2.8259,-2.866,-2.8622,-2.7536,-2.5438,-2.5662,-2.4561,-2.2145,-2.1242,-2.1112,-2.1431,-2.0505,-2.0152,-2.0565,-2.0565,-1.9386,-1.7266,-1.9848,-1.9201,-1.7591,-2.1141,-2.1787,-2.1141,-2.3078,-2.3078,-2.2767,-2.6336,-2.6001,-2.3734,-2.3734,-2.5036,-2.6015,-2.6015,-2.86,-3.1195,-3.1195,-3.1195,-3.1195,-3.1195,-3.1195,-3.1195,-3.1195,-3.1195,-3.1195,-3.1195,-3.1195,-3.1195,-3.1195,-3.1195,-3.1195,-3.1195,-3.1195,-3.1195,-3.1195,-3.1195,-3.1195,-3.1195,-3.1195,-3.1195,-3.1195,-3.1195,-3.1195,-3.1195,-3.1195,-3.1195,-3.1195,-3.1195,-3.1195,-3.1195,-3.1195,-3.1195,-3.1195,-3.1195,-3.1195,-3.1179,-3.0927,-3.0816,-0.5507,-0.5754,-0.577,-0.6553,-0.6039,-0.5515,-0.5275,-0.4528,-0.3779,-0.4209,-0.3967,-0.3747,-0.4018,-0.4281,-0.5053,-0.7144,-0.8242,-1.0152,-1.427,-2.0588,-2.4818,-2.4963,-2.6013,-2.6639,-2.6163,-2.6359,-2.6759,-2.7015,-2.689,-2.7281,-2.7643,-2.7344,-2.6537,-2.5514,-2.6116,-2.5888,-2.4561,-2.4755,-2.372,-2.2055,-2.2214,-2.115,-1.9423,-1.8216,-1.7737,-1.7938,-1.6707,-1.6263,-1.6547,-1.6547,-1.5382,-1.3618,-1.5863,-1.6235,-1.5644,-1.7915,-1.8554,-1.8877,-2.0172,-1.9848,-1.9201,-2.2767,-2.0505,-1.6942,-1.823,-2.0182,-2.2121,-2.3412,-2.6336,-2.9242,-3.0875,-3.1195,-3.1195,-3.1195,-3.1195,-3.1195,-3.1195,-3.1195,-3.1195,-3.1195,-3.1195,-3.1195,-3.1195,-3.1195,-3.1195,-3.1195,-3.1195,-3.1195,-3.1195,-3.1195,-3.1195,-3.1195,-3.1195,-3.1195,-3.1195,-3.1195,-3.1195,-3.1195,-3.1195,-3.1195,-3.1195,-3.1195,-3.1195,-3.1195,-3.1195,-3.1116,-3.0974,-3.0974,-3.0911,-3.0769,-3.0564,-3.0453,-0.5496,-0.5515,-0.5275,-0.6477,-0.5998,-0.5275,-0.5754,-0.5039,-0.4323,-0.4806,-0.4328,-0.4091,-0.4575,-0.4872,-0.6172,-0.9757,-1.1395,-1.4626,-2.2392,-2.3752,-2.41,-2.4066,-2.5156,-2.5701,-2.504,-2.5644,-2.6344,-2.6996,-2.7031,-2.7078,-2.7043,-2.6734,-2.5479,-2.2633,-2.2646,-2.1621,-1.8973,-1.8995,-1.8821,-1.8737,-1.8778,-1.8605,-1.8488,-1.5505,-1.4089,-1.4233,-1.1152,-0.999,-1.0096,-0.9781,-0.9847,-1.027,-0.9955,-1.1945,-1.4979,-1.4979,-1.4987,-1.5319,-1.8554,-1.7915,-1.5652,-1.9201,-1.5977,-1.1434,-1.4322,-1.5612,-1.6592,-1.9798,-2.3365,-2.6939,-3.0173,-3.1164,-3.1195,-3.1195,-3.1195,-3.1195,-3.1195,-3.1195,-3.1195,-3.1195,-3.1195,-3.1195,-3.1195,-3.1195,-3.1195,-3.1195,-3.1195,-3.1195,-3.1195,-3.1195,-3.1195,-3.1195,-3.1195,-3.1195,-3.1195,-3.1195,-3.1195,-3.1195,-3.1195,-3.1195,-3.1195,-3.1195,-3.1179,-3.1148,-3.1148,-3.0958,-3.0611,-3.0611,-3.0453,-3.0153,-3.0122,-3.0106,-0.5511,-0.5754,-0.5994,-0.7196,-0.6956,-0.6477,-0.6477,-0.5998,-0.5293,-0.4869,-0.4638,-0.4657,-0.4215,-0.4732,-0.5516,-0.6871,-0.7648,-0.8961,-1.1426,-1.559,-1.8509,-1.847,-2.2302,-2.5172,-2.501,-2.5699,-2.6364,-2.698,-2.709,-2.7106,-2.7027,-2.4775,-2.2281,-1.9259,-1.9259,-1.9,-1.8208,-1.8662,-1.7344,-1.5103,-1.5395,-1.4068,-1.1725,-1.0926,-1.0687,-1.071,-0.9493,-0.9252,-0.9974,-0.8729,-0.8475,-0.9198,-0.8569,-0.8627,-0.9679,-1.0318,-1.0376,-1.0782,-1.2086,-1.2086,-1.2086,-1.5652,-1.5319,-1.3328,-1.1829,-1.5016,-1.9546,-2.0332,-2.2949,-2.6624,-2.9821,-3.099,-3.1195,-3.1195,-3.1195,-3.1195,-3.1195,-3.1195,-3.1195,-3.1195,-3.1195,-3.1195,-3.1195,-3.1195,-3.1195,-3.1195,-3.1195,-3.1195,-3.1195,-3.1195,-3.1195,-3.1195,-3.1195,-3.1195,-3.1195,-3.1195,-3.1195,-3.1195,-3.1195,-3.1195,-3.1195,-3.1195,-3.1053,-3.0785,-3.0137,-2.9652,-2.9331,-2.8709,-2.8664,-2.9209,-2.8949,-2.9116,-0.5998,-0.6238,-0.6477,-0.7441,-0.6956,-0.6251,-0.6294,-0.5576,-0.4869,-0.4942,-0.4958,-0.4971,-0.4507,-0.5296,-0.6599,-0.7923,-0.899,-1.0073,-1.2226,-1.6107,-1.8732,-1.8603,-2.2434,-2.4969,-2.5108,-2.5719,-2.6206,-2.6743,-2.5534,-2.4205,-2.2812,-2.1126,-1.889,-1.6096,-1.5815,-1.5252,-1.3846,-1.3935,-1.3168,-1.096,-1.1396,-1.0328,-0.8321,-0.8423,-0.8469,-0.8469,-0.8221,-0.827,-0.8622,-0.7699,-0.7753,-0.8149,-0.784,-0.7582,-0.7658,-0.8295,-0.8325,-0.8368,-0.9328,-0.9366,-0.94,-1.1266,-1.1564,-1.122,-1.1719,-1.4245,-1.7442,-2.1414,-2.3674,-2.5682,-2.9469,-3.0564,-3.069,-3.069,-3.0816,-3.0943,-3.0943,-3.1069,-3.1148,-3.0974,-3.1069,-3.1195,-3.1195,-3.1195,-3.1195,-3.1195,-3.1195,-3.1195,-3.1195,-3.1195,-3.1195,-3.1195,-3.1195,-3.1195,-3.1195,-3.1195,-3.1195,-3.1195,-3.0875,-3.0477,-3.0307,-2.9989,-2.9504,-2.9171,-2.8844,-2.8368,-2.8042,-2.7734,-2.7661,-2.782,-2.7642,-2.7855,-0.6238,-0.6717,-0.6956,-0.7441,-0.6956,-0.6019,-0.6093,-0.514,-0.4433,-0.5001,-0.5028,-0.5038,-0.5051,-0.612,-0.7707,-0.924,-1.088,-1.2525,-1.4852,-1.7699,-1.9248,-1.9248,-2.1835,-2.3524,-2.4096,-2.4441,-2.477,-2.4842,-2.2599,-2.0241,-1.806,-1.7219,-1.5534,-1.3564,-1.3001,-1.1599,-0.9068,-0.8785,-0.8547,-0.8061,-0.808,-0.7551,-0.7042,-0.7129,-0.7169,-0.7173,-0.7248,-0.7288,-0.7304,-0.7,-0.7042,-0.7415,-0.7118,-0.7168,-0.7232,-0.7244,-0.7259,-0.759,-0.8533,-0.8269,-0.7678,-0.7543,-0.784,-0.8812,-1.1896,-1.2534,-1.4133,-2.1567,-2.3154,-2.3824,-2.8499,-3.0122,-3.0153,-3.0153,-3.0374,-3.0579,-3.0579,-3.08,-3.0943,-3.0706,-3.0895,-3.1116,-3.1179,-3.1195,-3.1195,-3.1195,-3.1195,-3.1195,-3.1195,-3.1195,-3.1195,-3.1195,-3.1132,-3.1116,-3.0859,-3.0765,-3.0719,-3.0462,-3.0081,-2.9595,-2.9323,-2.8379,-2.7905,-2.7586,-2.7586,-2.7412,-2.6789,-2.6789,-2.666,-2.6417,-2.6417,-2.6402,-0.5754,-0.6477,-0.6956,-0.7441,-0.7441,-0.7441,-0.7456,-0.681,-0.6405,-0.6001,-0.5321,-0.4874,-0.4415,-0.547,-0.6519,-0.6776,-0.8097,-0.9152,-0.9413,-1.1744,-1.3555,-1.3555,-1.6148,-1.7789,-1.8288,-1.8283,-1.853,-1.9062,-1.6355,-1.562,-1.8049,-1.3283,-1.1317,-1.3564,-1.1034,-0.9345,-0.8214,-0.737,-0.7095,-0.7107,-0.7186,-0.7231,-0.6958,-0.7038,-0.7078,-0.7078,-0.6503,-0.6547,-0.7209,-0.5711,-0.5717,-0.6035,-0.5488,-0.5209,-0.5223,-0.6207,-0.658,-0.6639,-0.7586,-0.7598,-0.7554,-0.7233,-0.8795,-1.0523,-0.88,-1.0088,-1.3315,-1.7147,-1.875,-2.0737,-2.6918,-2.9302,-3.0153,-3.0153,-3.0201,-3.0232,-3.0232,-3.0264,-3.0374,-3.0611,-3.069,-3.0832,-3.1132,-3.1195,-3.1195,-3.1195,-3.1195,-3.1195,-3.1195,-3.1195,-3.1195,-3.1195,-3.0911,-3.0531,-3.0203,-2.9683,-2.9171,-2.8511,-2.8262,-2.8086,-2.8042,-2.8042,-2.7571,-2.7238,-2.6641,-2.618,-2.5571,-2.4956,-2.4942,-2.5502,-2.5502,-2.6117,-0.5754,-0.6238,-0.6956,-0.7441,-0.7441,-0.7216,-0.7033,-0.6593,-0.6176,-0.5559,-0.5614,-0.5408,-0.4962,-0.6017,-0.6802,-0.6802,-0.7585,-0.8374,-0.8374,-1.071,-1.2525,-1.2525,-1.4852,-1.6707,-1.6802,-1.7014,-1.7246,-1.7489,-1.3425,-1.1589,-1.2857,-1.0359,-0.9555,-1.1034,-0.9911,-0.878,-0.7931,-0.7087,-0.652,-0.6237,-0.6273,-0.6002,-0.572,-0.5793,-0.5826,-0.5826,-0.5282,-0.5315,-0.5639,-0.5045,-0.5045,-0.5348,-0.4778,-0.4788,-0.4791,-0.5116,-0.5446,-0.547,-0.6385,-0.6385,-0.6058,-0.5929,-0.6543,-0.7813,-0.8914,-1.1381,-1.4548,-1.8666,-2.0918,-2.3247,-2.6603,-2.7627,-2.8354,-2.8658,-2.8796,-2.8626,-2.8933,-2.924,-2.9348,-2.9689,-2.975,-2.9797,-2.9951,-3.0137,-3.0261,-3.0261,-3.0734,-3.0734,-2.9398,-2.9338,-2.9338,-2.9338,-2.9217,-2.8874,-2.8694,-2.8457,-2.8353,-2.7861,-2.7434,-2.6952,-2.6796,-2.6166,-2.6014,-2.571,-2.5104,-2.5037,-2.4902,-2.4601,-2.4601,-2.4902,-2.4902,-2.4902,-0.5515,-0.5998,-0.6717,-0.6956,-0.6956,-0.6495,-0.6814,-0.6362,-0.5678,-0.53,-0.561,-0.5658,-0.52,-0.6267,-0.7063,-0.7324,-0.7847,-0.8374,-0.8374,-1.0189,-1.1484,-1.1484,-1.3296,-1.4593,-1.4593,-1.4778,-1.4954,-1.5111,-1.109,-0.8724,-0.9116,-0.8845,-0.8898,-0.902,-0.902,-0.8754,-0.7931,-0.7087,-0.6237,-0.5387,-0.5387,-0.5101,-0.4537,-0.4579,-0.46,-0.4603,-0.4648,-0.4675,-0.4688,-0.4688,-0.4688,-0.469,-0.4704,-0.4701,-0.469,-0.4706,-0.4712,-0.4706,-0.5262,-0.525,-0.4667,-0.4667,-0.5259,-0.6148,-0.8473,-1.0904,-1.3982,-1.841,-2.1215,-2.348,-2.5662,-2.6288,-2.6615,-2.7601,-2.7494,-2.7353,-2.796,-2.7975,-2.8035,-2.8304,-2.8409,-2.8469,-2.8469,-2.8739,-2.8948,-2.8948,-2.9805,-2.979,-2.8042,-2.7658,-2.7658,-2.7658,-2.7586,-2.7571,-2.7348,-2.7205,-2.7147,-2.6924,-2.6222,-2.5776,-2.5558,-2.4868,-2.4419,-2.4195,-2.4129,-2.4076,-2.4076,-2.4076,-2.4076,-2.4076,-2.4076,-2.4076,-0.5036,-0.5515,-0.5994,-0.5994,-0.5994,-0.5998,-0.6726,-0.6315,-0.5889,-0.5897,-0.553,-0.5127,-0.513,-0.5705,-0.6536,-0.7324,-0.7847,-0.8374,-0.8374,-0.8374,-0.863,-0.863,-0.8635,-0.8891,-0.8891,-0.9003,-0.9082,-0.9088,-0.8826,-0.8607,-0.8718,-0.8724,-0.8777,-0.8893,-0.8898,-0.8672,-0.7927,-0.7087,-0.5954,-0.4534,-0.4534,-0.4534,-0.4534,-0.4537,-0.4539,-0.4539,-0.4542,-0.4574,-0.4627,-0.4627,-0.4627,-0.4632,-0.469,-0.4677,-0.4635,-0.469,-0.4712,-0.4696,-0.4582,-0.4542,-0.4542,-0.4542,-0.6581,-0.8373,-0.578,-0.6994,-0.9999,-1.3503,-1.4974,-1.7359,-2.3505,-2.5649,-2.6325,-2.6644,-2.6717,-2.6731,-2.6731,-2.6731,-2.6746,-2.676,-2.6992,-2.7195,-2.7195,-2.7778,-2.7998,-2.7998,-2.8013,-2.8013,-2.7673,-2.7658,-2.7658,-2.7658,-2.7383,-2.7018,-2.6698,-2.589,-2.538,-2.4749,-2.4498,-2.434,-2.4327,-2.4076,-2.3931,-2.3905,-2.3628,-2.3496,-2.3496,-2.3496,-2.3496,-2.3496,-2.3496,-2.3496,-0.4935,-0.4959,-0.5199,-0.5671,-0.5715,-0.5994,-0.6238,-0.6263,-0.6306,-0.5877,-0.569,-0.5516,-0.5621,-0.5661,-0.5956,-0.7054,-0.7585,-0.7847,-0.8374,-0.8374,-0.8374,-0.8374,-0.8374,-0.8374,-0.8374,-0.8411,-0.8438,-0.8438,-0.8438,-0.8485,-0.8602,-0.8607,-0.866,-0.8771,-0.8777,-0.8559,-0.7839,-0.7559,-0.6748,-0.5101,-0.4817,-0.4534,-0.4534,-0.4534,-0.4534,-0.4534,-0.4534,-0.4547,-0.4566,-0.4566,-0.4566,-0.4569,-0.459,-0.4584,-0.4569,-0.459,-0.4598,-0.4592,-0.455,-0.4534,-0.4534,-0.4534,-0.6532,-0.8547,-0.5418,-0.8047,-1.2469,-1.3617,-1.5725,-1.8466,-2.2966,-2.4186,-2.4783,-2.52,-2.4935,-2.4641,-2.5228,-2.5522,-2.5284,-2.5466,-2.6187,-2.6331,-2.623,-2.6054,-2.6513,-2.6726,-2.5959,-2.553,-2.553,-2.553,-2.553,-2.553,-2.5421,-2.5407,-2.5212,-2.4561,-2.4388,-2.4182,-2.3918,-2.3747,-2.3747,-2.3654,-2.3602,-2.3602,-2.3496,-2.3444,-2.3444,-2.3444,-2.3444,-2.3444,-2.3444,-2.3444,-0.4336,-0.4383,-0.4411,-0.4851,-0.4903,-0.5202,-0.5465,-0.5711,-0.5977,-0.5583,-0.5621,-0.5925,-0.604,-0.5603,-0.5915,-0.7523,-0.7561,-0.7585,-0.8374,-0.8374,-0.8374,-0.8374,-0.8374,-0.8374,-0.8374,-0.8374,-0.8374,-0.8374,-0.8374,-0.8406,-0.8485,-0.8491,-0.8544,-0.8655,-0.866,-0.8446,-0.8008,-0.7732,-0.7215,-0.5877,-0.5059,-0.4786,-0.4508,-0.4526,-0.4534,-0.4534,-0.4534,-0.4534,-0.4534,-0.4534,-0.4534,-0.4534,-0.4534,-0.4534,-0.4534,-0.4534,-0.4534,-0.4534,-0.4534,-0.4534,-0.4534,-0.4534,-0.6513,-0.877,-0.6795,-0.9667,-1.4008,-1.5146,-1.6959,-1.9398,-2.2395,-2.3298,-2.3613,-2.3996,-2.4023,-2.3734,-2.4313,-2.4313,-2.4368,-2.4559,-2.4893,-2.5256,-2.4874,-2.4997,-2.5134,-2.5339,-2.4668,-2.4235,-2.4037,-2.401,-2.401,-2.401,-2.401,-2.401,-2.401,-2.3852,-2.3734,-2.3734,-2.3562,-2.3444,-2.3444,-2.3351,-2.3298,-2.3298,-2.3206,-2.3153,-2.3153,-2.3061,-2.3008,-2.3008,-2.2903,-2.2863,-0.3516,-0.3569,-0.3644,-0.3585,-0.3617,-0.3905,-0.443,-0.4677,-0.47,-0.4773,-0.5333,-0.5881,-0.5885,-0.6028,-0.6404,-0.7938,-0.7772,-0.7581,-0.8113,-0.8374,-0.8374,-0.8374,-0.8374,-0.8369,-0.8363,-0.8363,-0.8363,-0.8363,-0.8363,-0.8369,-0.8369,-0.8369,-0.8427,-0.8538,-0.8544,-0.8597,-0.8708,-0.7897,-0.7086,-0.6541,-0.5797,-0.5002,-0.4452,-0.4505,-0.4529,-0.4529,-0.4531,-0.4531,-0.4531,-0.4534,-0.4534,-0.4534,-0.4534,-0.4534,-0.4534,-0.4531,-0.4531,-0.4531,-0.4531,-0.4534,-0.4534,-0.4534,-0.6513,-0.9052,-0.9052,-1.1303,-1.4111,-1.7208,-1.806,-1.8956,-2.2052,-2.2982,-2.3061,-2.3351,-2.3417,-2.3417,-2.3417,-2.3417,-2.3417,-2.343,-2.343,-2.343,-2.3444,-2.3681,-2.3879,-2.3879,-2.4103,-2.4076,-2.3523,-2.3444,-2.3444,-2.3444,-2.3444,-2.3444,-2.3444,-2.3444,-2.343,-2.343,-2.343,-2.3417,-2.3417,-2.314,-2.2982,-2.2982,-2.2718,-2.2573,-2.2573,-2.227,-2.2125,-2.2125,-2.1835,-2.1703,-0.3424,-0.345,-0.3471,-0.3453,-0.3527,-0.3607,-0.3846,-0.4078,-0.4551,-0.4627,-0.4931,-0.5239,-0.5782,-0.5395,-0.5501,-0.6387,-0.6428,-0.6724,-0.7576,-0.7585,-0.7847,-0.8374,-0.8374,-0.8305,-0.8136,-0.812,-0.7861,-0.7355,-0.7427,-0.7213,-0.696,-0.6763,-0.681,-0.6836,-0.684,-0.6883,-0.6978,-0.6714,-0.6478,-0.5721,-0.5468,-0.4934,-0.4391,-0.4404,-0.4412,-0.4412,-0.4457,-0.4476,-0.4478,-0.4518,-0.4534,-0.4534,-0.4534,-0.4534,-0.4523,-0.4441,-0.4439,-0.4476,-0.4476,-0.4502,-0.4534,-0.4534,-0.6513,-0.9052,-0.9052,-1.1303,-1.4111,-1.7208,-1.806,-1.8923,-2.1824,-2.2705,-2.2718,-2.2797,-2.2824,-2.2824,-2.2824,-2.2824,-2.2877,-2.3088,-2.3127,-2.3193,-2.3404,-2.3509,-2.3575,-2.3575,-2.3628,-2.3628,-2.347,-2.3444,-2.3444,-2.3444,-2.3444,-2.3444,-2.3444,-2.3246,-2.3127,-2.3127,-2.2929,-2.2824,-2.2824,-2.2745,-2.2705,-2.2705,-2.2415,-2.227,-2.227,-2.1967,-2.1822,-2.1822,-2.1743,-2.1703,-0.3283,-0.3294,-0.3294,-0.3294,-0.3344,-0.3413,-0.3487,-0.3722,-0.4188,-0.4063,-0.4364,-0.4896,-0.521,-0.529,-0.5388,-0.6271,-0.6072,-0.6383,-0.7245,-0.7222,-0.747,-0.7772,-0.7702,-0.7866,-0.803,-0.8019,-0.7769,-0.7013,-0.7069,-0.6853,-0.6096,-0.6144,-0.6187,-0.6223,-0.6223,-0.6267,-0.635,-0.6354,-0.6113,-0.5359,-0.5392,-0.4868,-0.4327,-0.4354,-0.4364,-0.4367,-0.4402,-0.4417,-0.4417,-0.4449,-0.4463,-0.4463,-0.4463,-0.4463,-0.4455,-0.4388,-0.4386,-0.4417,-0.4417,-0.4436,-0.4463,-0.4463,-0.5578,-0.7245,-0.8631,-1.1164,-1.4282,-1.7067,-1.8823,-2.0324,-2.2014,-2.2586,-2.2586,-2.2586,-2.2586,-2.2586,-2.2586,-2.2586,-2.2639,-2.2797,-2.2824,-2.2877,-2.3061,-2.318,-2.3219,-2.3101,-2.3088,-2.3088,-2.3088,-2.3088,-2.3088,-2.3088,-2.3088,-2.3088,-2.3088,-2.2929,-2.2824,-2.2824,-2.2679,-2.2534,-2.2402,-2.2402,-2.2349,-2.2217,-2.2046,-2.1954,-2.1954,-2.1663,-2.1518,-2.1518,-2.14,-2.1334,-0.3087,-0.3095,-0.3103,-0.3103,-0.3114,-0.3164,0.0,-0.3358,-0.3395,-0.3506,-0.4027,-0.4554,-0.4624,-0.5173,-0.5986,-0.6589,-0.6188,-0.6275,-0.6884,-0.7064,-0.7023,-0.7092,-0.6944,-0.7115,-0.7702,-0.7723,-0.7484,-0.6981,-0.699,-0.675,-0.6005,-0.6017,-0.6056,-0.588,-0.588,-0.5915,-0.5987,-0.5987,-0.5727,-0.5213,-0.5022,-0.4791,-0.4258,-0.4317,-0.4346,-0.4346,-0.4346,-0.4349,-0.4354,-0.4362,-0.4364,-0.4364,-0.4364,-0.4357,-0.4346,-0.4346,-0.4349,-0.4354,-0.4354,-0.4359,-0.4364,-0.4364,-0.4364,-0.4907,-0.7888,-1.0959,-1.4097,-1.712,-2.0051,-2.2481,-2.2481,-2.2481,-2.2494,-2.2534,-2.2534,-2.2547,-2.2573,-2.2586,-2.2586,-2.2586,-2.2586,-2.2586,-2.2586,-2.2784,-2.285,-2.2573,-2.256,-2.2586,-2.2586,-2.2586,-2.2586,-2.2586,-2.2586,-2.2586,-2.2586,-2.2586,-2.2573,-2.2534,-2.2534,-2.2402,-2.2099,-2.2085,-2.1967,-2.1703,-2.1663,-2.165,-2.1382,-2.1109,-2.0966,-2.069,-2.0705,-2.0833,0.0,0.0,0.0,0.0,0.0,0.0,0.0,-0.3087,-0.3143,-0.3212,-0.331,-0.3825,-0.4322,-0.4667,-0.5057,-0.5986,-0.6035,-0.5862,-0.6271,-0.6217,-0.611,-0.5977,-0.5932,-0.5919,-0.6173,-0.6726,-0.6777,-0.6048,-0.6607,-0.6405,-0.5175,-0.5234,-0.5021,-0.4534,-0.4534,-0.454,-0.4549,-0.4552,-0.4552,-0.4299,-0.4364,-0.4134,-0.4137,-0.4195,-0.4224,-0.4224,-0.4224,-0.4251,-0.4298,-0.4346,-0.4364,-0.4364,-0.4364,-0.4306,-0.4224,-0.4224,-0.4253,-0.4293,-0.4293,-0.4325,-0.4364,-0.4364,-0.4364,-0.4907,-0.7888,-1.0886,-1.3631,-1.6624,-1.9647,-2.1874,-2.1874,-2.1874,-2.1927,-2.2178,-2.223,-2.2296,-2.2534,-2.2586,-2.2586,-2.2586,-2.2586,-2.2586,-2.2586,-2.2626,-2.256,-2.227,-2.2428,-2.2586,-2.2586,-2.2586,-2.2586,-2.2586,-2.2586,-2.2586,-2.2586,-2.2586,-2.2481,-2.2244,-2.223,-2.2099,-2.1795,-2.1782,-2.1756,-2.1703,-2.1479,-2.029,-1.7883,-2.0014,-1.9876,-1.7518,-1.9814,-2.0833,0.0,0.0,0.0,0.0,0.0,0.0,0.0,0.0,0.0,0.0,0.0,-0.3421,-0.3753,0.0,-0.4643,-0.5064,-0.5362,-0.5671,-0.5802,-0.5746,-0.5659,-0.5108,-0.5097,-0.5328,-0.5556,-0.6065,-0.5878,-0.5213,-0.5969,-0.5778,-0.4367,-0.4641,-0.4676,-0.3967,-0.3967,-0.3983,-0.4012,-0.4012,-0.4012,-0.4012,-0.4041,-0.4057,-0.4057,-0.4118,-0.4145,-0.4145,-0.4176,-0.4205,-0.4235,-0.4264,-0.4277,-0.4269,-0.4211,-0.4152,-0.4102,-0.4134,-0.4163,-0.4192,-0.4221,-0.4253,-0.4277,-0.4277,-0.4277,-0.4541,-0.6139,-0.9639,-1.3441,-1.4779,-1.835,-2.1703,-2.1703,-2.1703,-2.1743,-2.1888,-2.1914,-2.1967,-2.2112,-2.2138,-2.2138,-2.2138,-2.2138,-2.2138,-2.2138,-2.2138,-2.2085,-2.194,-2.2046,-2.2138,-2.2138,-2.2138,-2.2204,-2.2349,-2.2362,-2.2362,-2.2362,-2.2362,-2.2244,-2.194,-2.1914,-2.1795,-2.1505,-2.1492,-2.1426,-2.1268,-1.9803,-1.8163,-1.6845,-1.8037,-1.7969,-1.6665,-1.7973,-1.9135,0.0,0.0,0.0,0.0,0.0,0.0,0.0,0.0,0.0,0.0,0.0,0.0,0.0,0.0,0.0,-0.4402,-0.4936,-0.5252,-0.5351,-0.5263,-0.4965,-0.4743,-0.4544,-0.4554,-0.5218,-0.5472,-0.5298,-0.468,-0.5374,-0.5169,-0.406,-0.4537,-0.4563,-0.389,-0.3901,-0.393,-0.3978,-0.398,-0.398,-0.398,-0.3988,0.0,-0.3996,-0.4057,-0.4084,-0.4086,-0.4134,-0.4155,-0.4155,-0.4155,-0.4155,-0.4145,-0.4049,-0.4012,-0.4017,-0.4065,-0.4084,-0.4089,-0.4137,-0.4163,-0.4171,-0.4171,-0.4179,-0.419,-0.419,-0.8422,0.0,-1.2195,-1.6812,-2.1532,-2.0986,-2.1265,-2.1545,-2.1611,-2.1624,-2.1637,-2.169,-2.1703,-2.1703,-2.1703,-2.1703,-2.1703,-2.1703,-2.165,-2.1624,-2.1624,-2.1663,-2.1703,-2.1703,-2.1703,-2.1795,-2.2033,-2.2059,-2.2059,-2.2059,-2.2112,-2.2019,-2.1716,-2.1703,-2.1278,-2.0415,-2.0402,-2.0002,-1.9199,-1.7117,-1.554,-1.4987,-1.5501,-1.5758,-1.5748,-1.5605,-1.6633,0.0,0.0,0.0,0.0,0.0,0.0,0.0,0.0,0.0,0.0,0.0,0.0,0.0,0.0,0.0,0.0,-0.4556,-0.4656,-0.4803,-0.4639,-0.4289,-0.4289,-0.3965,-0.3567,-0.3733,-0.4279,-0.4841,-0.468,-0.5317,-0.5313,-0.4693,-0.4697,0.0,0.0,0.0,-0.3853,-0.3861,-0.3861,-0.3861,-0.3861,-0.3911,-0.3933,-0.3935,-0.3993,-0.4023,-0.4023,-0.4028,-0.4031,-0.4031,-0.4031,-0.4031,-0.4031,-0.4017,-0.4012,-0.4012,-0.402,-0.4023,-0.4023,-0.4031,0.0,0.0,-0.411,-0.4145,-0.419,-0.419,-0.8103,-1.2012,-0.968,-1.4649,-2.0407,-1.7789,-1.9098,-2.1004,-2.1268,-2.1334,-2.14,-2.165,-2.1703,-2.1703,-2.1703,-2.1703,-2.1703,-2.1703,-2.1492,-2.1334,-2.1334,-2.1545,-2.1703,-2.1703,-2.1703,-2.1716,-2.1743,-2.1756,0.0,-2.1756,-2.1993,-2.2019,-2.1716,-2.1703,-2.0377,-1.7248,-1.7226,-1.6086,-1.3315,-1.3051,-1.17,-0.9049,-1.1556,-1.2807,-1.2548,-1.2588,-1.3863,0.0,0.0,0.0,0.0,0.0,0.0,0.0,0.0,0.0,0.0,0.0,0.0,0.0,0.0,0.0,0.0,-0.3892,-0.4193,-0.3831,-0.3834,-0.3828,-0.3828,-0.3691,-0.3516,-0.3493,-0.3756,-0.4036,-0.4099,-0.4534,-0.4775,-0.4159,-0.4393,-0.4396,-0.3702,-0.3726,-0.3739,-0.3739,-0.3774,-0.3789,-0.3792,-0.5282,-0.5322,-0.3877,-0.5406,-0.5439,-0.3962,-0.3996,-0.4012,-0.4012,-0.4012,-0.4012,-0.4249,0.0,0.0,0.0,0.0,-0.3853,-0.3922,-0.3988,-0.4028,-0.4054,-0.4089,-0.4118,-0.4145,-0.4179,-0.8092,-1.2241,-1.095,-1.563,-2.0575,-1.9272,-2.0046,-2.0872,-2.0991,-2.1017,-2.1057,-2.1176,-2.1202,-2.1202,-2.1202,-2.1202,0.0,-2.1202,-2.1097,-2.1017,-2.1017,-2.1123,-2.1202,-2.1202,-2.1202,-2.1268,-2.1439,-2.1453,-2.1453,-2.1453,-2.1571,0.0,0.0,0.0,-2.0561,-1.9026,-1.7565,0.0,0.0,0.0,-0.9313,-0.8258,-0.9251,0.0,0.0,-1.062,-1.2789,0.0,0.0,0.0,0.0,0.0,0.0,0.0,0.0,0.0,0.0,0.0,0.0,0.0,0.0,0.0,0.0,-0.3491,-0.377,-0.3159,-0.3244,-0.3307,-0.3307,-0.3384,-0.3429,-0.3397,-0.3437,-0.349,-0.3548,-0.3998,-0.4018,-0.3615,-0.4069,-0.4069,-0.3617,-0.3633,-0.3649,-0.3665,-0.4402,-0.466,-0.466,-0.7287,-0.7564,-0.5919,-0.7648,-0.7446,-0.5774,-0.5838,-0.5866,-0.5866,-0.5866,-0.5866,-0.6089,-0.7712,-0.8275,-0.8051,-0.6476,-0.5878,-0.577,-0.5161,-0.4965,-0.4991,-0.4288,-0.4062,-0.4084,-0.4126,-0.7484,-1.1339,-1.1082,-1.5185,-1.9588,-1.9663,-2.0201,-2.0741,-2.082,-2.0833,-2.0833,-2.0833,-2.0833,-2.0833,-2.0833,-2.0767,-2.0741,-2.082,-2.0833,-2.0833,-2.0833,-2.0833,-2.0833,-2.0833,-2.0833,-2.0925,-2.1136,-2.1162,-2.1162,-2.1162,-2.1228,-2.1149,-2.0859,-2.0912,-2.0886,-2.0727,-1.7175,-1.4438,-1.225,-0.8717,-0.6925,0.0,0.0,0.0,0.0,0.0,0.0,0.0,0.0,0.0,0.0,0.0,0.0,0.0,0.0,0.0,0.0,0.0,0.0,0.0,0.0,0.0,0.0,0.0,0.0,-0.2984,-0.3026,-0.3066,-0.3066,-0.3214,-0.3275,-0.3164,-0.3305,-0.3429,-0.3487,-0.3493,-0.3493,-0.3495,-0.3495,-0.3495,-0.3495,-0.3551,-0.3607,-0.3665,-0.5949,-0.7092,-0.7092,-0.9367,-1.0506,-1.0506,-1.0513,-1.0513,-1.0513,-1.0521,-1.0521,-1.0521,-1.0521,-1.0521,-1.0536,-1.092,-1.0974,-1.099,-1.1153,-1.1215,-1.0985,-0.8376,-0.7497,-0.7345,-0.4663,-0.3967,-0.4015,-0.4017,-0.6021,-0.8269,-0.8014,-1.2009,-1.6312,-1.6537,-1.8376,-2.0477,-2.0767,-2.0833,-2.0833,-2.0833,-2.0833,-2.0833,-2.0833,-2.0609,-2.0503,-2.0793,-2.0833,-2.0833,-2.0833,-2.0833,0.0,-2.0833,-2.0833,-2.0846,-2.0846,-2.0846,-2.0846,-2.0846,-2.111,-2.1149,-2.0859,-2.111,-2.1004,-2.0437,-1.5313,-1.2428,-1.2001,-0.6665,-0.3842,-0.3905,0.0,0.0,0.0,0.0,0.0,0.0,0.0,0.0,0.0,0.0,0.0,0.0,0.0,0.0,0.0,0.0,0.0,0.0,0.0,0.0,0.0,0.0,0.0,0.0,-0.2875,-0.2952,-0.2992,-0.3082,-0.3143,-0.3143,-0.323,-0.3297,-0.3318,-0.3352,-0.3389,-0.3429,-0.3432,-0.4072,-0.557,-0.5605,-0.6246,-0.7489,-0.8531,-0.9069,-0.9069,-1.1742,-1.2307,-1.0718,-1.2316,-1.2316,-1.0718,-1.0718,-1.0718,-1.0718,-1.0718,-1.2225,-1.4344,-1.3221,-1.2831,-1.2517,-1.1373,-1.085,-1.0718,-0.9809,-0.9685,-0.9598,-0.8755,-0.8341,-0.8393,-0.8474,-1.0442,-1.2644,-1.2765,-1.5501,-1.8516,-1.8801,-1.9374,-2.0147,-2.0253,-2.0266,-2.0266,-2.0266,-2.0266,-2.0332,-2.0516,-2.0147,-1.9976,-2.0464,-2.0398,-2.0398,-2.078,-2.0675,-2.0622,-2.082,-2.0833,-2.0833,-2.0833,-2.0833,-2.0833,-2.0833,-2.0925,-2.0938,-2.0846,-2.0741,-2.0609,-2.0398,-1.5133,-1.2007,-1.1818,-0.8097,-0.5347,-0.3665,0.0,0.0,0.0,0.0,0.0,0.0,0.0,0.0,0.0,0.0,0.0,0.0,0.0,0.0,0.0,0.0,0.0,0.0,0.0,0.0,0.0,0.0,0.0,0.0,0.0,0.0,-0.4026,-0.4077,0.0,-0.3045,-0.3082,-0.3114,-0.3135,-0.3169,-0.3616,-0.4499,-0.4503,-0.5145,-0.646,-0.7293,-0.7916,-0.854,-1.0435,-1.12,-1.1415,-1.4076,-1.4391,-1.2773,-1.4524,-1.4305,-1.2773,-1.2773,-1.2773,-1.2783,-1.2936,-1.3939,-1.5428,-1.4289,-1.341,-1.2398,-1.1965,-1.1907,-1.1816,-1.2764,-1.2437,-1.1682,-1.1802,-1.1164,-1.0271,-1.0375,-1.1565,-1.3454,-1.4591,-1.6306,-1.7824,-1.9169,-1.9514,-1.9541,-1.9646,-1.9752,-1.9831,-1.9831,-1.9831,-1.9818,-1.9791,-1.9488,-1.9382,-1.9844,-1.9963,-2.0068,-2.0332,-2.0385,-2.0464,-2.0648,-2.0675,-2.0727,-2.0833,-2.0833,-2.0833,-2.0833,-2.0741,-2.0675,-2.0675,-2.0411,-1.9898,-1.8689,-1.4298,-1.1429,-1.0178,-0.7283,-0.5126,0.0,0.0,0.0,0.0,0.0,0.0,0.0,0.0,0.0,0.0,0.0,0.0,0.0,0.0,0.0,0.0,0.0,0.0,0.0,0.0,0.0,0.0,0.0,0.0,0.0,0.0,0.0,-0.5899,-0.572,0.0,0.0,0.0,0.0,-0.2949,-0.2955,-0.3912,-0.5875,-0.6075,-0.6181,-0.6614,-0.8421,-0.8763,-0.7175,-1.1397,-1.3516,-1.3516,-1.5845,-1.6772,-1.6508,-1.6508,-1.6521,-1.6534,-1.6534,-1.6534,-1.6574,-1.6864,-1.5843,-1.3715,-1.3903,-1.2518,-1.0915,-1.3181,-1.3881,-1.4343,-1.6317,-1.5561,-1.3618,-1.3629,-1.1907,-0.9958,-0.9735,-0.9735,0.0,0.0,-1.4182,-1.4731,-1.7761,-1.8618,-1.8684,-1.896,-1.9251,-1.9475,-1.9475,-1.9475,-1.9303,-1.8723,-1.8604,-1.8697,-1.9013,0.0,-1.9818,-1.9567,-2.0002,-2.0345,-2.0345,-2.0358,-2.0477,-2.0767,-2.0793,-2.0793,-2.0793,-2.0543,-2.0371,-2.0371,-2.0094,-1.8698,-1.5766,-1.3098,-1.0487,-0.758,-0.4959,0.0,0.0,0.0,0.0,0.0,0.0,0.0,0.0,0.0,0.0,0.0,0.0,0.0,0.0,0.0,0.0,0.0,0.0,0.0,0.0,0.0,0.0,0.0,0.0,0.0,0.0,-0.4318,-0.3902,-0.5626,-0.4399,-0.3187,0.0,0.0,0.0,0.0,0.0,0.0,-0.3647,-0.3832,-0.5196,-0.8471,-0.9055,-1.0716,-1.336,-1.4763,-1.5477,-1.5477,-1.6291,-1.6679,-1.6824,-1.6824,-1.6943,-1.7141,-1.7141,-1.7141,-1.6877,-1.4932,-1.3426,-1.2776,-1.1576,-1.0745,-1.0092,-1.0789,-1.0947,-1.1365,-1.3569,-1.3858,-1.3282,-1.3264,-1.2911,-1.2066,-1.0495,0.0,0.0,0.0,0.0,-1.6104,-1.7332,-1.7708,-1.7787,-1.8064,-1.8354,-1.8565,-1.8565,-1.8565,-1.8394,-1.7827,-1.7536,-1.7682,-1.8618,-1.8723,0.0,-1.9448,-1.9659,-1.9752,-1.9752,-1.9949,-2.0121,-2.02,-2.02,-2.02,-2.02,-2.0134,-2.0094,-2.0094,-1.9607,-1.9012,-1.8147,-1.347,-1.0628,-0.9839,0.0,0.0,0.0,0.0,0.0,0.0,0.0,0.0,0.0,0.0,0.0,0.0,0.0,0.0,0.0,0.0,0.0,0.0,0.0,0.0,0.0,0.0,0.0,0.0,0.0,0.0,0.0,-0.5352,-0.5786,-0.6433,-0.538,-0.4094,0.0,0.0,0.0,0.0,0.0,0.0,0.0,0.0,0.0,-0.7677,-0.8666,-1.0049,-1.1476,-1.3434,-1.4595,-1.4719,-1.5572,-1.6192,-1.6363,-1.6363,-1.6455,-1.6614,-1.6614,-1.592,-1.5147,-1.3551,-1.1717,-0.9721,0.0,0.0,0.0,0.0,-0.8049,-0.8429,-1.0558,-1.1335,-1.1375,-1.1408,0.0,0.0,0.0,0.0,0.0,0.0,0.0,-1.6218,-1.6679,-1.689,-1.7022,-1.718,-1.7444,-1.7668,-1.7668,-1.726,-1.6798,-1.6482,-1.6495,-1.6811,-1.7589,-1.7906,0.0,0.0,0.0,-1.9198,-1.933,-1.9488,-1.9686,-1.9949,-1.9989,-1.9989,-1.9989,-1.9857,-1.9725,-1.9607,-1.9158,-1.7796,-1.5589,-1.2307,-0.9564,0.0,0.0,0.0,0.0,0.0,0.0,0.0,0.0,0.0,0.0,0.0,0.0,0.0,0.0,0.0,0.0,0.0,0.0,0.0,0.0,0.0,0.0,0.0,0.0,0.0,0.0,0.0,0.0,0.0,-0.8873,-0.7689,0.0,0.0,0.0,0.0,0.0,0.0,0.0,0.0,0.0,0.0,0.0,0.0,0.0,-0.8148,-0.6728,-1.0341,-1.2236,-1.2454,-1.4183,-1.4879,-1.4688,-1.4688,-1.4917,-1.4981,-1.5262,0.0,-1.2288,-1.1632,0.0,0.0,0.0,0.0,0.0,0.0,0.0,0.0,0.0,0.0,0.0,0.0,0.0,0.0,0.0,0.0,0.0,0.0,0.0,0.0,0.0,0.0,-1.6244,-1.6218,-1.6482,-1.6719,-1.6561,-1.573,-1.5018,-1.5018,-1.5466,-1.5941,0.0,0.0,0.0,0.0,0.0,0.0,-1.8789,-1.8908,-1.9185,-1.9752,-1.9818,-1.9818,-1.9818,-1.9567,-1.929,-1.9,-1.8684,-1.6333,-1.1709,-1.1257,0.0,0.0,0.0,0.0,0.0,0.0,0.0,0.0,0.0,0.0,0.0,0.0,0.0,0.0,0.0,0.0,0.0,0.0,0.0,0.0,0.0,0.0,0.0,0.0,0.0,0.0,0.0,0.0,0.0,0.0,0.0,0.0,0.0,0.0,0.0,0.0,0.0,0.0,0.0,0.0,0.0,0.0,0.0,0.0,0.0,0.0,0.0,0.0,0.0,0.0,-1.1624,-1.1826,-1.056,-1.056,-1.1304,-1.2563,-1.4145,-1.3532,-1.1071,-0.6303,0.0,0.0,0.0,0.0,0.0,0.0,0.0,0.0,0.0,0.0,0.0,0.0,0.0,0.0,0.0,0.0,0.0,0.0,0.0,0.0,0.0,0.0,-1.5005,-1.4768,-1.5295,-1.5585,-1.4623,0.0,0.0,0.0,0.0,0.0,0.0,0.0,0.0,0.0,0.0,0.0,-1.7365,-1.7932,-1.8525,-1.8868,-1.8908,-1.8908,-1.8908,-1.8855,-1.8697,-1.8407,-1.7892,-1.6987,0.0,0.0,0.0,0.0,0.0,0.0,0.0,0.0,0.0,0.0,0.0,0.0,0.0,0.0,0.0,0.0,0.0,0.0,0.0,0.0,0.0,0.0,0.0,0.0,0.0,0.0,0.0,0.0,0.0,0.0,0.0,0.0,0.0,0.0,0.0,0.0,0.0,0.0,0.0,0.0,0.0,0.0,0.0,0.0,0.0,0.0,0.0,0.0,0.0,0.0,0.0,0.0,0.0,0.0,0.0,0.0,0.0,0.0,-1.3922,-1.1691,0.0,0.0,0.0,0.0,0.0,0.0,0.0,0.0,0.0,0.0,0.0,0.0,0.0,0.0,0.0,0.0,0.0,0.0,0.0,0.0,0.0,0.0,0.0,0.0,0.0,0.0,0.0,0.0,0.0,0.0,0.0,0.0,0.0,0.0,0.0,0.0,0.0,0.0,0.0,0.0,-1.6943,-1.7563,-1.8117,-1.842,-1.8446,-1.8446,-1.8446,-1.8446,-1.8262,-1.7813,-1.7536,0.0,0.0,0.0,0.0,0.0,0.0,0.0,0.0,0.0,0.0,0.0,0.0,0.0,0.0,0.0,0.0,0.0,0.0,0.0,0.0,0.0,0.0,0.0,0.0,0.0,0.0,0.0,0.0,0.0,0.0,0.0,0.0,0.0,0.0,0.0,0.0,0.0,0.0,0.0,0.0,0.0,0.0,0.0,0.0,0.0,0.0,0.0,0.0,0.0,0.0,0.0,0.0,0.0,0.0,0.0,0.0,0.0,0.0,0.0,-1.3095,-0.9819,0.0,0.0,0.0,0.0,0.0,0.0,0.0,0.0,0.0,0.0,0.0,0.0,0.0,0.0,0.0,0.0,0.0,0.0,0.0,0.0,0.0,0.0,0.0,0.0,0.0,0.0,0.0,0.0,0.0,0.0,0.0,0.0,0.0,0.0,0.0,0.0,0.0,0.0,0.0,0.0,-1.6534,-1.7167,-1.7747,-1.8103,-1.8143,-1.8143,-1.8143,-1.809,-1.7827,-1.7312,-1.7101,0.0,0.0,0.0,0.0,0.0,0.0,0.0,0.0,0.0,0.0,0.0,0.0,0.0,0.0,0.0,0.0,0.0,0.0,0.0,0.0,0.0,0.0,0.0,0.0,0.0,0.0,0.0,0.0,0.0,0.0,0.0,0.0,0.0,0.0,0.0,0.0,0.0,0.0,0.0,0.0,0.0,0.0,0.0,0.0,0.0,0.0,0.0,0.0,0.0,0.0,0.0,0.0,0.0,0.0,0.0,0.0,0.0,0.0,0.0,0.0,0.0,0.0,0.0,0.0,0.0,0.0,0.0,0.0,0.0,0.0,0.0,0.0,0.0,0.0,0.0,0.0,0.0,0.0,0.0,0.0,0.0,0.0,0.0,0.0,0.0,0.0,0.0,0.0,0.0,0.0,0.0,0.0,0.0,0.0,0.0,0.0,0.0,0.0,0.0,0.0,0.0,-1.5374,-1.6323,-1.722,-1.7774,-1.7827,-1.7827,-1.7827,-1.7602,-1.7312,-1.6996,0.0,0.0,0.0,0.0,0.0,0.0,0.0,0.0,0.0,0.0,0.0,0.0,0.0,0.0,0.0,0.0,0.0,0.0,0.0,0.0,0.0,0.0,0.0,0.0,0.0,0.0,0.0,0.0,0.0,0.0,0.0,0.0,0.0,0.0,0.0,0.0,0.0,0.0,0.0,0.0,0.0,0.0,0.0,0.0,0.0,0.0,0.0,0.0,0.0,0.0,0.0,0.0,0.0,0.0,0.0,0.0,0.0,0.0,0.0,0.0,0.0,0.0,0.0,0.0,0.0,0.0,0.0,0.0,0.0,0.0,0.0,0.0,0.0,0.0,0.0,0.0,0.0,0.0,0.0,0.0,0.0,0.0,0.0,0.0,0.0,0.0,0.0,0.0,0.0,0.0,0.0,0.0,0.0,0.0,0.0,0.0,0.0,0.0,0.0,0.0,0.0,0.0,-1.4952,-1.5954,-1.6824,-1.7233,-1.7115,-1.7075,-1.726,-1.7009,-1.6574,-1.5915,0.0,0.0,0.0,0.0,0.0,0.0,0.0,0.0,0.0,0.0,0.0,0.0,0.0,0.0,0.0,0.0,0.0,0.0,0.0,0.0,0.0,0.0,0.0,0.0,0.0,0.0,0.0,0.0,0.0,0.0,0.0,0.0,0.0,0.0,0.0,0.0,0.0,0.0,0.0,0.0,0.0,0.0,0.0,0.0,0.0,0.0,0.0,0.0,0.0,0.0,0.0,0.0,0.0,0.0,0.0,0.0,0.0,0.0,0.0,0.0,0.0,0.0,0.0,0.0,0.0,0.0,0.0,0.0,0.0,0.0,0.0,0.0,0.0,0.0,0.0,0.0,0.0,0.0,0.0,0.0,0.0,0.0,0.0,0.0,0.0,0.0,0.0,0.0,0.0,0.0,0.0,0.0,0.0,0.0,0.0,0.0,0.0,0.0,0.0,0.0,0.0,0.0,-1.4649,-1.5651,-1.6482,-1.6772,-1.6614,-1.6574,-1.6785,-1.6534,-1.6033,-1.5229,0.0,0.0,0.0,0.0,0.0,0.0,0.0,0.0,0.0,0.0,0.0,0.0,0.0,0.0,0.0,0.0,0.0,0.0,0.0,0.0,0.0,0.0,0.0,0.0,0.0,0.0,0.0,0.0,0.0,0.0,0.0,0.0,0.0,0.0,0.0,0.0,0.0,0.0,0.0,0.0,0.0,0.0,0.0,0.0,0.0,0.0,0.0,0.0,0.0,0.0,0.0,0.0,0.0,0.0,0.0,0.0,0.0,0.0,0.0,0.0,0.0,0.0,0.0,0.0,0.0,0.0,0.0,0.0,0.0,0.0,0.0,0.0,0.0,0.0,0.0,0.0,0.0,0.0,0.0,0.0,0.0,0.0,0.0,0.0,0.0,0.0,0.0,0.0,0.0,0.0,0.0,0.0,0.0,0.0,0.0,0.0,0.0,0.0,0.0,0.0,0.0,0.0,-1.4332,-1.5361,-1.6192,-1.6468,-1.6495,-1.6482,-1.6495,-1.6244,-1.5822,0.0,0.0,0.0,0.0,0.0,0.0,0.0,0.0,0.0,0.0,0.0,0.0,0.0,0.0,0.0,0.0,0.0,0.0,0.0,0.0,0.0,0.0,0.0,0.0,0.0,0.0,0.0,0.0,0.0,0.0,0.0,0.0,0.0,0.0,0.0,0.0,0.0,0.0,0.0,0.0,0.0,0.0,0.0,0.0,0.0,0.0,0.0,0.0,0.0,0.0,0.0,0.0,0.0,0.0,0.0,0.0,0.0,0.0,0.0,0.0,0.0,0.0,0.0,0.0,0.0,0.0,0.0,0.0,0.0,0.0,0.0,0.0,0.0,0.0,0.0,0.0,0.0,0.0,0.0,0.0,0.0,0.0,0.0,0.0,0.0,0.0,0.0,0.0,0.0,0.0,0.0,0.0,0.0,0.0,0.0,0.0,0.0,0.0,0.0,0.0,0.0,0.0,0.0,-1.3976,-1.4702,-1.5453,-1.6139,-1.602,-1.5981,-1.6192,-1.5756,-1.5137,-1.4346,0.0,0.0,0.0,0.0,0.0,0.0,0.0,0.0,0.0,0.0,0.0,0.0,0.0,0.0,0.0,0.0,0.0,0.0,0.0,0.0,0.0,0.0,0.0,0.0,0.0,0.0,0.0,0.0,0.0,0.0,0.0,0.0,0.0,0.0,0.0,0.0,0.0,0.0,0.0,0.0,0.0,0.0,0.0,0.0,0.0,0.0,0.0,0.0,0.0,0.0,0.0,0.0,0.0,0.0,0.0,0.0,0.0,0.0,0.0,0.0,0.0,0.0,0.0,0.0,0.0,0.0,0.0,0.0,0.0,0.0,0.0,0.0,0.0,0.0,0.0,0.0,0.0,0.0,0.0,0.0,0.0,0.0,0.0,0.0,0.0,0.0,0.0,0.0,0.0,0.0,0.0,0.0,0.0,0.0,0.0,0.0,0.0,0.0,0.0,0.0,0.0,0.0,0.0,-1.4425,-1.5137,-1.5677,-1.5677,-1.5664,-1.573,-1.54,-1.4768,-1.3792,0.0,0.0,0.0,0.0,0.0,0.0,0.0,0.0,0.0,0.0,0.0,0.0,0.0,0.0,0.0,0.0,0.0,0.0,0.0,0.0,0.0,0.0,0.0,0.0,0.0,0.0,0.0,0.0,0.0,0.0,0.0,0.0,0.0,0.0,0.0,0.0,0.0,0.0,0.0,0.0,0.0,0.0,0.0,0.0,0.0,0.0,0.0,0.0,0.0,0.0,0.0,0.0,0.0,0.0,0.0,0.0,0.0,0.0,0.0,0.0,0.0,0.0,0.0,0.0,0.0,0.0,0.0,0.0,0.0,0.0,0.0,0.0,0.0,0.0,0.0,0.0,0.0,0.0,0.0,0.0,0.0,0.0,0.0,0.0,0.0,0.0,0.0,0.0,0.0,0.0,0.0,0.0,0.0,0.0,0.0,0.0,0.0,0.0,0.0,0.0,0.0,0.0,0.0,-1.4438,-1.511,-1.515,-1.54,-1.5453,-1.5176,-1.5137,-1.4649,-1.3541,-1.3449,0.0,0.0,0.0,0.0,0.0,0.0,0.0,0.0,0.0,0.0,0.0,0.0,0.0,0.0,0.0,0.0,0.0,0.0,0.0,0.0,0.0,0.0,0.0,0.0,0.0,0.0,0.0,0.0,0.0,0.0,0.0,0.0,0.0,0.0,0.0,0.0,0.0,0.0,0.0,0.0,0.0,0.0,0.0,0.0,0.0,0.0,0.0,0.0,0.0,0.0,0.0,0.0,0.0,0.0,0.0,0.0,0.0,0.0,0.0,0.0,0.0,0.0,0.0,0.0,0.0,0.0,0.0,0.0,0.0,0.0,0.0,0.0,0.0,0.0,0.0,0.0,0.0,0.0,0.0,0.0,0.0,0.0,0.0,0.0,0.0,0.0,0.0,0.0,0.0,0.0,0.0,0.0,0.0,0.0,0.0,0.0,0.0,0.0,0.0,0.0,0.0,0.0,-1.4203,-1.4359,-1.482,-1.4939,-1.4952,-1.4873,-1.4662,-1.4227,-1.3515,-1.3251,0.0,0.0,0.0,0.0,0.0,0.0,0.0,0.0,0.0,0.0,0.0,0.0,0.0,0.0,0.0,0.0,0.0,0.0,0.0,0.0,0.0,0.0,0.0,0.0,0.0,0.0,0.0,0.0,0.0,0.0,0.0,0.0,0.0,0.0,0.0,0.0,0.0,0.0,0.0,0.0,0.0,0.0,0.0,0.0,0.0,0.0,0.0,0.0,0.0,0.0,0.0,0.0,0.0,0.0,0.0,0.0,0.0,0.0,0.0,0.0,0.0,0.0,0.0,0.0,0.0,0.0,0.0,0.0,0.0,0.0,0.0,0.0,0.0,0.0,0.0,0.0,0.0,0.0,0.0,0.0,0.0,0.0,0.0,0.0,0.0,0.0,0.0,0.0,0.0,0.0,0.0,0.0,0.0,0.0,0.0,0.0,0.0,0.0,0.0,0.0,0.0,0.0,-1.3575,-1.3765,-1.4491,-1.4688,-1.4715,-1.4583,-1.4425,-1.4029,-1.3317,-1.3119,0.0,0.0,0.0,0.0,0.0,0.0,0.0,0.0,0.0,0.0,0.0,0.0,0.0,0.0,0.0,0.0,0.0,0.0,0.0,0.0,0.0,0.0,0.0,0.0,0.0,0.0,0.0,0.0,0.0,0.0,0.0,0.0,0.0,0.0,0.0,0.0,0.0,0.0,0.0,0.0,0.0,0.0,0.0,0.0,0.0,0.0,0.0,0.0,0.0,0.0,0.0,0.0,0.0,0.0,0.0,0.0,0.0,0.0,0.0,0.0,0.0,0.0,0.0,0.0,0.0,0.0,0.0,0.0,0.0,0.0,0.0,0.0,0.0,0.0,0.0,0.0,0.0,0.0,0.0,0.0,0.0,0.0,0.0,0.0,0.0,0.0,0.0,0.0,0.0,0.0,0.0,0.0,0.0,0.0,0.0,0.0,0.0,0.0,0.0,0.0,0.0,0.0,0.0,-1.3701,-1.4296,-1.4643,-1.471,-1.4456,-1.4443,-1.4083,-1.308,0.0,0.0,0.0,0.0,0.0,0.0,0.0,0.0,0.0,0.0,0.0,0.0,0.0,0.0,0.0,0.0,0.0,0.0,0.0,0.0,0.0,0.0,0.0,0.0,0.0,0.0,0.0,0.0,0.0,0.0,0.0,0.0,0.0,0.0,0.0,0.0,0.0,0.0,0.0,0.0,0.0,0.0,0.0,0.0,0.0,0.0,0.0,0.0,0.0,0.0,0.0,0.0,0.0,0.0,0.0,0.0,0.0,0.0,0.0,0.0,0.0,0.0,0.0,0.0,0.0,0.0,0.0,0.0,0.0,0.0,0.0,0.0,0.0,0.0,0.0,0.0,0.0,0.0,0.0,0.0,0.0,0.0,0.0,0.0,0.0,0.0,0.0,0.0,0.0,0.0,0.0,0.0,0.0,0.0,0.0,0.0,0.0,0.0,0.0,0.0,0.0,0.0,0.0,0.0,-1.4778,-1.4252,-1.4885,-1.5055,-1.4668,-1.4481,-1.4038,-1.3067,0.0,0.0,0.0,0.0,0.0,0.0,0.0,0.0,0.0,0.0,0.0,0.0,0.0,0.0]}]]]